﻿<?xml version="1.0" encoding="UTF-8" standalone="no" ?>
<gpx xmlns="http://www.topografix.com/GPX/1/1" creator="CompeGPS" version="1.1" xmlns:xsi="http://www.w3.org/2001/XMLSchema-instance" xsi:schemaLocation="http://www.topografix.com/GPX/1/1 http://www.topografix.com/GPX/1/1/gpx.xsd">
  <metadata>
    <link href="http://www.compegps.com">
      <text>CompeGPS TEAM, SL</text>
    </link>
    <time>2012-03-11T15:50:39Z</time>
    <bounds maxlat="43.295930" maxlon="-2.021138" minlat="43.208850" minlon="-2.131900"/>
  </metadata>
  <trk>
    <name>marcha andoain 2012 entera</name>
    <trkseg>
      <trkpt lat="43.275740" lon="-2.127970">
        <ele>2.0</ele>
        <time>2012-01-29T07:29:56Z</time>
      </trkpt>
      <trkpt lat="43.275760" lon="-2.128030">
        <ele>3.0</ele>
        <time>2012-01-29T07:30:13Z</time>
      </trkpt>
      <trkpt lat="43.275780" lon="-2.128110">
        <ele>4.0</ele>
        <time>2012-01-29T07:30:33Z</time>
      </trkpt>
      <trkpt lat="43.275630" lon="-2.127880">
        <ele>12.0</ele>
        <time>2012-01-29T07:30:53Z</time>
      </trkpt>
      <trkpt lat="43.275670" lon="-2.128130">
        <ele>6.0</ele>
        <time>2012-01-29T07:31:14Z</time>
      </trkpt>
      <trkpt lat="43.275880" lon="-2.128680">
        <ele>-5.0</ele>
        <time>2012-01-29T07:31:34Z</time>
      </trkpt>
      <trkpt lat="43.276190" lon="-2.128580">
        <ele>-15.0</ele>
        <time>2012-01-29T07:32:10Z</time>
      </trkpt>
      <trkpt lat="43.276170" lon="-2.129420">
        <ele>12.0</ele>
        <time>2012-01-29T07:32:48Z</time>
      </trkpt>
      <trkpt lat="43.276300" lon="-2.129660">
        <ele>5.0</ele>
        <time>2012-01-29T07:33:08Z</time>
      </trkpt>
      <trkpt lat="43.276440" lon="-2.129940">
        <ele>4.0</ele>
        <time>2012-01-29T07:33:28Z</time>
      </trkpt>
      <trkpt lat="43.276580" lon="-2.130250">
        <ele>6.0</ele>
        <time>2012-01-29T07:33:48Z</time>
      </trkpt>
      <trkpt lat="43.276730" lon="-2.130540">
        <ele>7.0</ele>
        <time>2012-01-29T07:34:08Z</time>
      </trkpt>
      <trkpt lat="43.276920" lon="-2.130820">
        <ele>6.0</ele>
        <time>2012-01-29T07:34:28Z</time>
      </trkpt>
      <trkpt lat="43.277110" lon="-2.131060">
        <ele>6.0</ele>
        <time>2012-01-29T07:34:48Z</time>
      </trkpt>
      <trkpt lat="43.277300" lon="-2.131270">
        <ele>7.0</ele>
        <time>2012-01-29T07:35:08Z</time>
      </trkpt>
      <trkpt lat="43.277530" lon="-2.131470">
        <ele>5.0</ele>
        <time>2012-01-29T07:35:28Z</time>
      </trkpt>
      <trkpt lat="43.277770" lon="-2.131650">
        <ele>4.0</ele>
        <time>2012-01-29T07:35:48Z</time>
      </trkpt>
      <trkpt lat="43.278020" lon="-2.131800">
        <ele>5.0</ele>
        <time>2012-01-29T07:36:08Z</time>
      </trkpt>
      <trkpt lat="43.278280" lon="-2.131880">
        <ele>6.0</ele>
        <time>2012-01-29T07:36:28Z</time>
      </trkpt>
      <trkpt lat="43.278550" lon="-2.131900">
        <ele>3.0</ele>
        <time>2012-01-29T07:36:48Z</time>
      </trkpt>
      <trkpt lat="43.278840" lon="-2.131840">
        <ele>1.0</ele>
        <time>2012-01-29T07:37:08Z</time>
      </trkpt>
      <trkpt lat="43.279100" lon="-2.131740">
        <ele>1.0</ele>
        <time>2012-01-29T07:37:28Z</time>
      </trkpt>
      <trkpt lat="43.279350" lon="-2.131640">
        <ele>2.0</ele>
        <time>2012-01-29T07:37:48Z</time>
      </trkpt>
      <trkpt lat="43.279600" lon="-2.131530">
        <ele>2.0</ele>
        <time>2012-01-29T07:38:08Z</time>
      </trkpt>
      <trkpt lat="43.279840" lon="-2.131380">
        <ele>2.0</ele>
        <time>2012-01-29T07:38:28Z</time>
      </trkpt>
      <trkpt lat="43.280050" lon="-2.131210">
        <ele>0.0</ele>
        <time>2012-01-29T07:38:47Z</time>
      </trkpt>
      <trkpt lat="43.280260" lon="-2.131040">
        <ele>-4.0</ele>
        <time>2012-01-29T07:39:07Z</time>
      </trkpt>
      <trkpt lat="43.280470" lon="-2.130850">
        <ele>-5.0</ele>
        <time>2012-01-29T07:39:27Z</time>
      </trkpt>
      <trkpt lat="43.280700" lon="-2.130690">
        <ele>-5.0</ele>
        <time>2012-01-29T07:39:47Z</time>
      </trkpt>
      <trkpt lat="43.280930" lon="-2.130540">
        <ele>-3.0</ele>
        <time>2012-01-29T07:40:07Z</time>
      </trkpt>
      <trkpt lat="43.281180" lon="-2.130380">
        <ele>-1.0</ele>
        <time>2012-01-29T07:40:27Z</time>
      </trkpt>
      <trkpt lat="43.281430" lon="-2.130210">
        <ele>-1.0</ele>
        <time>2012-01-29T07:40:47Z</time>
      </trkpt>
      <trkpt lat="43.281680" lon="-2.130050">
        <ele>-1.0</ele>
        <time>2012-01-29T07:41:07Z</time>
      </trkpt>
      <trkpt lat="43.281900" lon="-2.129870">
        <ele>-3.0</ele>
        <time>2012-01-29T07:41:27Z</time>
      </trkpt>
      <trkpt lat="43.282150" lon="-2.129710">
        <ele>-6.0</ele>
        <time>2012-01-29T07:41:47Z</time>
      </trkpt>
      <trkpt lat="43.282380" lon="-2.129570">
        <ele>-2.0</ele>
        <time>2012-01-29T07:42:07Z</time>
      </trkpt>
      <trkpt lat="43.282620" lon="-2.129370">
        <ele>0.0</ele>
        <time>2012-01-29T07:42:27Z</time>
      </trkpt>
      <trkpt lat="43.282970" lon="-2.129010">
        <ele>1.0</ele>
        <time>2012-01-29T07:42:53Z</time>
      </trkpt>
      <trkpt lat="43.283030" lon="-2.128690">
        <ele>3.0</ele>
        <time>2012-01-29T07:43:13Z</time>
      </trkpt>
      <trkpt lat="43.283050" lon="-2.128380">
        <ele>4.0</ele>
        <time>2012-01-29T07:43:33Z</time>
      </trkpt>
      <trkpt lat="43.283030" lon="-2.128030">
        <ele>3.0</ele>
        <time>2012-01-29T07:43:53Z</time>
      </trkpt>
      <trkpt lat="43.282960" lon="-2.127680">
        <ele>3.0</ele>
        <time>2012-01-29T07:44:13Z</time>
      </trkpt>
      <trkpt lat="43.282960" lon="-2.127320">
        <ele>0.0</ele>
        <time>2012-01-29T07:44:33Z</time>
      </trkpt>
      <trkpt lat="43.283120" lon="-2.127030">
        <ele>-2.0</ele>
        <time>2012-01-29T07:44:53Z</time>
      </trkpt>
      <trkpt lat="43.283330" lon="-2.126800">
        <ele>0.0</ele>
        <time>2012-01-29T07:45:13Z</time>
      </trkpt>
      <trkpt lat="43.283560" lon="-2.126620">
        <ele>3.0</ele>
        <time>2012-01-29T07:45:33Z</time>
      </trkpt>
      <trkpt lat="43.283840" lon="-2.126430">
        <ele>11.0</ele>
        <time>2012-01-29T07:45:53Z</time>
      </trkpt>
      <trkpt lat="43.284050" lon="-2.126230">
        <ele>7.0</ele>
        <time>2012-01-29T07:46:13Z</time>
      </trkpt>
      <trkpt lat="43.284270" lon="-2.126090">
        <ele>3.0</ele>
        <time>2012-01-29T07:46:33Z</time>
      </trkpt>
      <trkpt lat="43.284510" lon="-2.126010">
        <ele>5.0</ele>
        <time>2012-01-29T07:46:53Z</time>
      </trkpt>
      <trkpt lat="43.284740" lon="-2.125910">
        <ele>3.0</ele>
        <time>2012-01-29T07:47:13Z</time>
      </trkpt>
      <trkpt lat="43.284980" lon="-2.125860">
        <ele>-1.0</ele>
        <time>2012-01-29T07:47:33Z</time>
      </trkpt>
      <trkpt lat="43.285300" lon="-2.125870">
        <ele>6.0</ele>
        <time>2012-01-29T07:47:53Z</time>
      </trkpt>
      <trkpt lat="43.285550" lon="-2.125910">
        <ele>5.0</ele>
        <time>2012-01-29T07:48:13Z</time>
      </trkpt>
      <trkpt lat="43.285810" lon="-2.125990">
        <ele>5.0</ele>
        <time>2012-01-29T07:48:33Z</time>
      </trkpt>
      <trkpt lat="43.286040" lon="-2.126070">
        <ele>0.0</ele>
        <time>2012-01-29T07:48:53Z</time>
      </trkpt>
      <trkpt lat="43.286320" lon="-2.126150">
        <ele>2.0</ele>
        <time>2012-01-29T07:49:13Z</time>
      </trkpt>
      <trkpt lat="43.286560" lon="-2.126220">
        <ele>1.0</ele>
        <time>2012-01-29T07:49:33Z</time>
      </trkpt>
      <trkpt lat="43.286820" lon="-2.126290">
        <ele>5.0</ele>
        <time>2012-01-29T07:49:53Z</time>
      </trkpt>
      <trkpt lat="43.287320" lon="-2.126320">
        <ele>11.0</ele>
        <time>2012-01-29T07:50:27Z</time>
      </trkpt>
      <trkpt lat="43.287470" lon="-2.126280">
        <ele>2.0</ele>
        <time>2012-01-29T07:50:47Z</time>
      </trkpt>
      <trkpt lat="43.287640" lon="-2.126060">
        <ele>-7.0</ele>
        <time>2012-01-29T07:51:07Z</time>
      </trkpt>
      <trkpt lat="43.287800" lon="-2.125790">
        <ele>-2.0</ele>
        <time>2012-01-29T07:51:27Z</time>
      </trkpt>
      <trkpt lat="43.287940" lon="-2.125580">
        <ele>10.0</ele>
        <time>2012-01-29T07:51:47Z</time>
      </trkpt>
      <trkpt lat="43.288200" lon="-2.125660">
        <ele>4.0</ele>
        <time>2012-01-29T07:52:07Z</time>
      </trkpt>
      <trkpt lat="43.288480" lon="-2.125910">
        <ele>0.0</ele>
        <time>2012-01-29T07:52:27Z</time>
      </trkpt>
      <trkpt lat="43.288690" lon="-2.126120">
        <ele>-5.0</ele>
        <time>2012-01-29T07:52:47Z</time>
      </trkpt>
      <trkpt lat="43.288930" lon="-2.126220">
        <ele>-10.0</ele>
        <time>2012-01-29T07:53:07Z</time>
      </trkpt>
      <trkpt lat="43.289180" lon="-2.126380">
        <ele>-5.0</ele>
        <time>2012-01-29T07:53:28Z</time>
      </trkpt>
      <trkpt lat="43.289360" lon="-2.126520">
        <ele>1.0</ele>
        <time>2012-01-29T07:53:48Z</time>
      </trkpt>
      <trkpt lat="43.289520" lon="-2.126690">
        <ele>-1.0</ele>
        <time>2012-01-29T07:54:08Z</time>
      </trkpt>
      <trkpt lat="43.289680" lon="-2.126760">
        <ele>6.0</ele>
        <time>2012-01-29T07:54:28Z</time>
      </trkpt>
      <trkpt lat="43.289540" lon="-2.126560">
        <ele>9.0</ele>
        <time>2012-01-29T07:54:48Z</time>
      </trkpt>
      <trkpt lat="43.289630" lon="-2.126550">
        <ele>10.0</ele>
        <time>2012-01-29T07:55:08Z</time>
      </trkpt>
      <trkpt lat="43.289760" lon="-2.126680">
        <ele>16.0</ele>
        <time>2012-01-29T07:55:28Z</time>
      </trkpt>
      <trkpt lat="43.289900" lon="-2.126710">
        <ele>20.0</ele>
        <time>2012-01-29T07:55:48Z</time>
      </trkpt>
      <trkpt lat="43.290010" lon="-2.126540">
        <ele>22.0</ele>
        <time>2012-01-29T07:56:08Z</time>
      </trkpt>
      <trkpt lat="43.290070" lon="-2.126450">
        <ele>24.0</ele>
        <time>2012-01-29T07:56:28Z</time>
      </trkpt>
      <trkpt lat="43.290150" lon="-2.126280">
        <ele>28.0</ele>
        <time>2012-01-29T07:56:48Z</time>
      </trkpt>
      <trkpt lat="43.290210" lon="-2.126050">
        <ele>31.0</ele>
        <time>2012-01-29T07:57:08Z</time>
      </trkpt>
      <trkpt lat="43.290270" lon="-2.125830">
        <ele>37.0</ele>
        <time>2012-01-29T07:57:28Z</time>
      </trkpt>
      <trkpt lat="43.290300" lon="-2.125610">
        <ele>39.0</ele>
        <time>2012-01-29T07:57:48Z</time>
      </trkpt>
      <trkpt lat="43.290360" lon="-2.125400">
        <ele>43.0</ele>
        <time>2012-01-29T07:58:08Z</time>
      </trkpt>
      <trkpt lat="43.290450" lon="-2.125200">
        <ele>50.0</ele>
        <time>2012-01-29T07:58:28Z</time>
      </trkpt>
      <trkpt lat="43.290600" lon="-2.125040">
        <ele>53.0</ele>
        <time>2012-01-29T07:58:48Z</time>
      </trkpt>
      <trkpt lat="43.290750" lon="-2.124850">
        <ele>53.0</ele>
        <time>2012-01-29T07:59:08Z</time>
      </trkpt>
      <trkpt lat="43.290880" lon="-2.124620">
        <ele>54.0</ele>
        <time>2012-01-29T07:59:28Z</time>
      </trkpt>
      <trkpt lat="43.291020" lon="-2.124360">
        <ele>53.0</ele>
        <time>2012-01-29T07:59:48Z</time>
      </trkpt>
      <trkpt lat="43.291180" lon="-2.124100">
        <ele>51.0</ele>
        <time>2012-01-29T08:00:08Z</time>
      </trkpt>
      <trkpt lat="43.291270" lon="-2.123830">
        <ele>58.0</ele>
        <time>2012-01-29T08:00:28Z</time>
      </trkpt>
      <trkpt lat="43.291340" lon="-2.123530">
        <ele>53.0</ele>
        <time>2012-01-29T08:00:48Z</time>
      </trkpt>
      <trkpt lat="43.291450" lon="-2.123290">
        <ele>50.0</ele>
        <time>2012-01-29T08:01:08Z</time>
      </trkpt>
      <trkpt lat="43.291640" lon="-2.123040">
        <ele>54.0</ele>
        <time>2012-01-29T08:01:28Z</time>
      </trkpt>
      <trkpt lat="43.291800" lon="-2.122840">
        <ele>51.0</ele>
        <time>2012-01-29T08:01:48Z</time>
      </trkpt>
      <trkpt lat="43.291980" lon="-2.122700">
        <ele>52.0</ele>
        <time>2012-01-29T08:02:08Z</time>
      </trkpt>
      <trkpt lat="43.292190" lon="-2.122640">
        <ele>54.0</ele>
        <time>2012-01-29T08:02:28Z</time>
      </trkpt>
      <trkpt lat="43.292410" lon="-2.122570">
        <ele>54.0</ele>
        <time>2012-01-29T08:02:48Z</time>
      </trkpt>
      <trkpt lat="43.292620" lon="-2.122340">
        <ele>56.0</ele>
        <time>2012-01-29T08:03:08Z</time>
      </trkpt>
      <trkpt lat="43.292620" lon="-2.122090">
        <ele>55.0</ele>
        <time>2012-01-29T08:03:28Z</time>
      </trkpt>
      <trkpt lat="43.292460" lon="-2.121820">
        <ele>53.0</ele>
        <time>2012-01-29T08:03:49Z</time>
      </trkpt>
      <trkpt lat="43.292460" lon="-2.121590">
        <ele>50.0</ele>
        <time>2012-01-29T08:04:09Z</time>
      </trkpt>
      <trkpt lat="43.292460" lon="-2.121460">
        <ele>45.0</ele>
        <time>2012-01-29T08:04:29Z</time>
      </trkpt>
      <trkpt lat="43.292510" lon="-2.121210">
        <ele>43.0</ele>
        <time>2012-01-29T08:04:49Z</time>
      </trkpt>
      <trkpt lat="43.292610" lon="-2.120960">
        <ele>48.0</ele>
        <time>2012-01-29T08:05:09Z</time>
      </trkpt>
      <trkpt lat="43.292680" lon="-2.120670">
        <ele>51.0</ele>
        <time>2012-01-29T08:05:29Z</time>
      </trkpt>
      <trkpt lat="43.292740" lon="-2.120390">
        <ele>52.0</ele>
        <time>2012-01-29T08:05:49Z</time>
      </trkpt>
      <trkpt lat="43.292870" lon="-2.120090">
        <ele>55.0</ele>
        <time>2012-01-29T08:06:09Z</time>
      </trkpt>
      <trkpt lat="43.293050" lon="-2.119820">
        <ele>56.0</ele>
        <time>2012-01-29T08:06:29Z</time>
      </trkpt>
      <trkpt lat="43.293220" lon="-2.119640">
        <ele>53.0</ele>
        <time>2012-01-29T08:06:49Z</time>
      </trkpt>
      <trkpt lat="43.293370" lon="-2.119380">
        <ele>53.0</ele>
        <time>2012-01-29T08:07:09Z</time>
      </trkpt>
      <trkpt lat="43.293500" lon="-2.119120">
        <ele>57.0</ele>
        <time>2012-01-29T08:07:29Z</time>
      </trkpt>
      <trkpt lat="43.293600" lon="-2.118860">
        <ele>61.0</ele>
        <time>2012-01-29T08:07:49Z</time>
      </trkpt>
      <trkpt lat="43.293760" lon="-2.118740">
        <ele>64.0</ele>
        <time>2012-01-29T08:08:09Z</time>
      </trkpt>
      <trkpt lat="43.293900" lon="-2.118670">
        <ele>69.0</ele>
        <time>2012-01-29T08:08:29Z</time>
      </trkpt>
      <trkpt lat="43.294030" lon="-2.118570">
        <ele>70.0</ele>
        <time>2012-01-29T08:08:49Z</time>
      </trkpt>
      <trkpt lat="43.294180" lon="-2.118480">
        <ele>75.0</ele>
        <time>2012-01-29T08:09:09Z</time>
      </trkpt>
      <trkpt lat="43.294250" lon="-2.118300">
        <ele>77.0</ele>
        <time>2012-01-29T08:09:29Z</time>
      </trkpt>
      <trkpt lat="43.294270" lon="-2.118140">
        <ele>83.0</ele>
        <time>2012-01-29T08:09:49Z</time>
      </trkpt>
      <trkpt lat="43.294340" lon="-2.117980">
        <ele>89.0</ele>
        <time>2012-01-29T08:10:09Z</time>
      </trkpt>
      <trkpt lat="43.294410" lon="-2.117770">
        <ele>91.0</ele>
        <time>2012-01-29T08:10:29Z</time>
      </trkpt>
      <trkpt lat="43.294460" lon="-2.117510">
        <ele>92.0</ele>
        <time>2012-01-29T08:10:49Z</time>
      </trkpt>
      <trkpt lat="43.294540" lon="-2.117210">
        <ele>94.0</ele>
        <time>2012-01-29T08:11:09Z</time>
      </trkpt>
      <trkpt lat="43.294520" lon="-2.116940">
        <ele>95.0</ele>
        <time>2012-01-29T08:11:29Z</time>
      </trkpt>
      <trkpt lat="43.294370" lon="-2.116690">
        <ele>93.0</ele>
        <time>2012-01-29T08:11:49Z</time>
      </trkpt>
      <trkpt lat="43.294440" lon="-2.116420">
        <ele>92.0</ele>
        <time>2012-01-29T08:12:09Z</time>
      </trkpt>
      <trkpt lat="43.294550" lon="-2.116140">
        <ele>90.0</ele>
        <time>2012-01-29T08:12:29Z</time>
      </trkpt>
      <trkpt lat="43.294630" lon="-2.115840">
        <ele>93.0</ele>
        <time>2012-01-29T08:12:49Z</time>
      </trkpt>
      <trkpt lat="43.294680" lon="-2.115540">
        <ele>90.0</ele>
        <time>2012-01-29T08:13:09Z</time>
      </trkpt>
      <trkpt lat="43.294770" lon="-2.115270">
        <ele>94.0</ele>
        <time>2012-01-29T08:13:29Z</time>
      </trkpt>
      <trkpt lat="43.294780" lon="-2.115010">
        <ele>92.0</ele>
        <time>2012-01-29T08:13:49Z</time>
      </trkpt>
      <trkpt lat="43.294850" lon="-2.114760">
        <ele>94.0</ele>
        <time>2012-01-29T08:14:09Z</time>
      </trkpt>
      <trkpt lat="43.294870" lon="-2.114520">
        <ele>93.0</ele>
        <time>2012-01-29T08:14:29Z</time>
      </trkpt>
      <trkpt lat="43.294940" lon="-2.114230">
        <ele>101.0</ele>
        <time>2012-01-29T08:14:49Z</time>
      </trkpt>
      <trkpt lat="43.295000" lon="-2.114000">
        <ele>99.0</ele>
        <time>2012-01-29T08:15:09Z</time>
      </trkpt>
      <trkpt lat="43.294920" lon="-2.113850">
        <ele>102.0</ele>
        <time>2012-01-29T08:15:29Z</time>
      </trkpt>
      <trkpt lat="43.294760" lon="-2.113950">
        <ele>108.0</ele>
        <time>2012-01-29T08:15:49Z</time>
      </trkpt>
      <trkpt lat="43.294580" lon="-2.114230">
        <ele>109.0</ele>
        <time>2012-01-29T08:16:09Z</time>
      </trkpt>
      <trkpt lat="43.294430" lon="-2.114550">
        <ele>111.0</ele>
        <time>2012-01-29T08:16:29Z</time>
      </trkpt>
      <trkpt lat="43.294460" lon="-2.114380">
        <ele>112.0</ele>
        <time>2012-01-29T08:16:49Z</time>
      </trkpt>
      <trkpt lat="43.294600" lon="-2.114110">
        <ele>115.0</ele>
        <time>2012-01-29T08:17:09Z</time>
      </trkpt>
      <trkpt lat="43.294700" lon="-2.113810">
        <ele>114.0</ele>
        <time>2012-01-29T08:17:29Z</time>
      </trkpt>
      <trkpt lat="43.294770" lon="-2.113540">
        <ele>117.0</ele>
        <time>2012-01-29T08:17:49Z</time>
      </trkpt>
      <trkpt lat="43.294800" lon="-2.113330">
        <ele>123.0</ele>
        <time>2012-01-29T08:18:09Z</time>
      </trkpt>
      <trkpt lat="43.294830" lon="-2.113130">
        <ele>126.0</ele>
        <time>2012-01-29T08:18:29Z</time>
      </trkpt>
      <trkpt lat="43.294840" lon="-2.112970">
        <ele>129.0</ele>
        <time>2012-01-29T08:18:49Z</time>
      </trkpt>
      <trkpt lat="43.294920" lon="-2.112780">
        <ele>132.0</ele>
        <time>2012-01-29T08:19:09Z</time>
      </trkpt>
      <trkpt lat="43.295000" lon="-2.112640">
        <ele>134.0</ele>
        <time>2012-01-29T08:19:29Z</time>
      </trkpt>
      <trkpt lat="43.295090" lon="-2.112520">
        <ele>139.0</ele>
        <time>2012-01-29T08:19:49Z</time>
      </trkpt>
      <trkpt lat="43.295170" lon="-2.112340">
        <ele>145.0</ele>
        <time>2012-01-29T08:20:09Z</time>
      </trkpt>
      <trkpt lat="43.295200" lon="-2.112140">
        <ele>148.0</ele>
        <time>2012-01-29T08:20:29Z</time>
      </trkpt>
      <trkpt lat="43.295230" lon="-2.112000">
        <ele>151.0</ele>
        <time>2012-01-29T08:20:49Z</time>
      </trkpt>
      <trkpt lat="43.295290" lon="-2.111900">
        <ele>163.0</ele>
        <time>2012-01-29T08:21:09Z</time>
      </trkpt>
      <trkpt lat="43.295420" lon="-2.111790">
        <ele>167.0</ele>
        <time>2012-01-29T08:21:29Z</time>
      </trkpt>
      <trkpt lat="43.295450" lon="-2.111590">
        <ele>168.0</ele>
        <time>2012-01-29T08:21:49Z</time>
      </trkpt>
      <trkpt lat="43.295490" lon="-2.111420">
        <ele>172.0</ele>
        <time>2012-01-29T08:22:09Z</time>
      </trkpt>
      <trkpt lat="43.295480" lon="-2.111270">
        <ele>174.0</ele>
        <time>2012-01-29T08:22:29Z</time>
      </trkpt>
      <trkpt lat="43.295470" lon="-2.111100">
        <ele>173.0</ele>
        <time>2012-01-29T08:22:49Z</time>
      </trkpt>
      <trkpt lat="43.295450" lon="-2.110940">
        <ele>173.0</ele>
        <time>2012-01-29T08:23:09Z</time>
      </trkpt>
      <trkpt lat="43.295440" lon="-2.110820">
        <ele>179.0</ele>
        <time>2012-01-29T08:23:29Z</time>
      </trkpt>
      <trkpt lat="43.295440" lon="-2.110690">
        <ele>181.0</ele>
        <time>2012-01-29T08:23:49Z</time>
      </trkpt>
      <trkpt lat="43.295440" lon="-2.110550">
        <ele>186.0</ele>
        <time>2012-01-29T08:24:09Z</time>
      </trkpt>
      <trkpt lat="43.295440" lon="-2.110420">
        <ele>197.0</ele>
        <time>2012-01-29T08:24:29Z</time>
      </trkpt>
      <trkpt lat="43.295440" lon="-2.110210">
        <ele>201.0</ele>
        <time>2012-01-29T08:24:49Z</time>
      </trkpt>
      <trkpt lat="43.295490" lon="-2.110020">
        <ele>197.0</ele>
        <time>2012-01-29T08:25:09Z</time>
      </trkpt>
      <trkpt lat="43.295490" lon="-2.109840">
        <ele>185.0</ele>
        <time>2012-01-29T08:25:29Z</time>
      </trkpt>
      <trkpt lat="43.295530" lon="-2.109570">
        <ele>195.0</ele>
        <time>2012-01-29T08:25:49Z</time>
      </trkpt>
      <trkpt lat="43.295590" lon="-2.109390">
        <ele>204.0</ele>
        <time>2012-01-29T08:26:09Z</time>
      </trkpt>
      <trkpt lat="43.295650" lon="-2.109240">
        <ele>213.0</ele>
        <time>2012-01-29T08:26:29Z</time>
      </trkpt>
      <trkpt lat="43.295660" lon="-2.109070">
        <ele>218.0</ele>
        <time>2012-01-29T08:26:49Z</time>
      </trkpt>
      <trkpt lat="43.295590" lon="-2.108980">
        <ele>220.0</ele>
        <time>2012-01-29T08:27:09Z</time>
      </trkpt>
      <trkpt lat="43.295550" lon="-2.108750">
        <ele>219.0</ele>
        <time>2012-01-29T08:27:29Z</time>
      </trkpt>
      <trkpt lat="43.295520" lon="-2.108480">
        <ele>218.0</ele>
        <time>2012-01-29T08:27:49Z</time>
      </trkpt>
      <trkpt lat="43.295410" lon="-2.108250">
        <ele>213.0</ele>
        <time>2012-01-29T08:28:09Z</time>
      </trkpt>
      <trkpt lat="43.295350" lon="-2.107960">
        <ele>212.0</ele>
        <time>2012-01-29T08:28:29Z</time>
      </trkpt>
      <trkpt lat="43.295340" lon="-2.107750">
        <ele>214.0</ele>
        <time>2012-01-29T08:28:49Z</time>
      </trkpt>
      <trkpt lat="43.295330" lon="-2.107500">
        <ele>217.0</ele>
        <time>2012-01-29T08:29:09Z</time>
      </trkpt>
      <trkpt lat="43.295330" lon="-2.107210">
        <ele>223.0</ele>
        <time>2012-01-29T08:29:29Z</time>
      </trkpt>
      <trkpt lat="43.295360" lon="-2.106990">
        <ele>220.0</ele>
        <time>2012-01-29T08:29:49Z</time>
      </trkpt>
      <trkpt lat="43.295450" lon="-2.106800">
        <ele>227.0</ele>
        <time>2012-01-29T08:30:09Z</time>
      </trkpt>
      <trkpt lat="43.295490" lon="-2.106580">
        <ele>232.0</ele>
        <time>2012-01-29T08:30:29Z</time>
      </trkpt>
      <trkpt lat="43.295510" lon="-2.106380">
        <ele>230.0</ele>
        <time>2012-01-29T08:30:49Z</time>
      </trkpt>
      <trkpt lat="43.295560" lon="-2.106170">
        <ele>232.0</ele>
        <time>2012-01-29T08:31:09Z</time>
      </trkpt>
      <trkpt lat="43.295690" lon="-2.106100">
        <ele>245.0</ele>
        <time>2012-01-29T08:31:29Z</time>
      </trkpt>
      <trkpt lat="43.295800" lon="-2.106030">
        <ele>250.0</ele>
        <time>2012-01-29T08:31:49Z</time>
      </trkpt>
      <trkpt lat="43.295830" lon="-2.105840">
        <ele>255.0</ele>
        <time>2012-01-29T08:32:09Z</time>
      </trkpt>
      <trkpt lat="43.295730" lon="-2.105630">
        <ele>259.0</ele>
        <time>2012-01-29T08:32:29Z</time>
      </trkpt>
      <trkpt lat="43.295590" lon="-2.105460">
        <ele>272.0</ele>
        <time>2012-01-29T08:32:49Z</time>
      </trkpt>
      <trkpt lat="43.295550" lon="-2.105270">
        <ele>267.0</ele>
        <time>2012-01-29T08:33:09Z</time>
      </trkpt>
      <trkpt lat="43.295540" lon="-2.105040">
        <ele>269.0</ele>
        <time>2012-01-29T08:33:29Z</time>
      </trkpt>
      <trkpt lat="43.295480" lon="-2.104850">
        <ele>268.0</ele>
        <time>2012-01-29T08:33:49Z</time>
      </trkpt>
      <trkpt lat="43.295420" lon="-2.104680">
        <ele>272.0</ele>
        <time>2012-01-29T08:34:09Z</time>
      </trkpt>
      <trkpt lat="43.295360" lon="-2.104510">
        <ele>275.0</ele>
        <time>2012-01-29T08:34:29Z</time>
      </trkpt>
      <trkpt lat="43.295310" lon="-2.104350">
        <ele>278.0</ele>
        <time>2012-01-29T08:34:49Z</time>
      </trkpt>
      <trkpt lat="43.295280" lon="-2.104240">
        <ele>280.0</ele>
        <time>2012-01-29T08:35:09Z</time>
      </trkpt>
      <trkpt lat="43.295270" lon="-2.104260">
        <ele>281.0</ele>
        <time>2012-01-29T08:35:29Z</time>
      </trkpt>
      <trkpt lat="43.295200" lon="-2.104290">
        <ele>288.0</ele>
        <time>2012-01-29T08:35:49Z</time>
      </trkpt>
      <trkpt lat="43.295180" lon="-2.104310">
        <ele>292.0</ele>
        <time>2012-01-29T08:36:09Z</time>
      </trkpt>
      <trkpt lat="43.295230" lon="-2.104390">
        <ele>284.0</ele>
        <time>2012-01-29T08:36:29Z</time>
      </trkpt>
      <trkpt lat="43.295220" lon="-2.104560">
        <ele>289.0</ele>
        <time>2012-01-29T08:36:49Z</time>
      </trkpt>
      <trkpt lat="43.295150" lon="-2.104850">
        <ele>286.0</ele>
        <time>2012-01-29T08:37:09Z</time>
      </trkpt>
      <trkpt lat="43.295040" lon="-2.105130">
        <ele>278.0</ele>
        <time>2012-01-29T08:37:29Z</time>
      </trkpt>
      <trkpt lat="43.294920" lon="-2.105370">
        <ele>279.0</ele>
        <time>2012-01-29T08:37:49Z</time>
      </trkpt>
      <trkpt lat="43.294820" lon="-2.105610">
        <ele>285.0</ele>
        <time>2012-01-29T08:38:09Z</time>
      </trkpt>
      <trkpt lat="43.294650" lon="-2.105860">
        <ele>283.0</ele>
        <time>2012-01-29T08:38:29Z</time>
      </trkpt>
      <trkpt lat="43.294470" lon="-2.106020">
        <ele>290.0</ele>
        <time>2012-01-29T08:38:49Z</time>
      </trkpt>
      <trkpt lat="43.294330" lon="-2.106250">
        <ele>282.0</ele>
        <time>2012-01-29T08:39:09Z</time>
      </trkpt>
      <trkpt lat="43.294300" lon="-2.106600">
        <ele>279.0</ele>
        <time>2012-01-29T08:39:29Z</time>
      </trkpt>
      <trkpt lat="43.294260" lon="-2.106930">
        <ele>283.0</ele>
        <time>2012-01-29T08:39:49Z</time>
      </trkpt>
      <trkpt lat="43.294270" lon="-2.107130">
        <ele>286.0</ele>
        <time>2012-01-29T08:40:09Z</time>
      </trkpt>
      <trkpt lat="43.294240" lon="-2.107400">
        <ele>283.0</ele>
        <time>2012-01-29T08:40:29Z</time>
      </trkpt>
      <trkpt lat="43.294170" lon="-2.107640">
        <ele>284.0</ele>
        <time>2012-01-29T08:40:49Z</time>
      </trkpt>
      <trkpt lat="43.294090" lon="-2.107910">
        <ele>282.0</ele>
        <time>2012-01-29T08:41:09Z</time>
      </trkpt>
      <trkpt lat="43.294000" lon="-2.108240">
        <ele>280.0</ele>
        <time>2012-01-29T08:41:29Z</time>
      </trkpt>
      <trkpt lat="43.293880" lon="-2.108600">
        <ele>283.0</ele>
        <time>2012-01-29T08:41:49Z</time>
      </trkpt>
      <trkpt lat="43.293820" lon="-2.108770">
        <ele>282.0</ele>
        <time>2012-01-29T08:42:09Z</time>
      </trkpt>
      <trkpt lat="43.293740" lon="-2.109020">
        <ele>280.0</ele>
        <time>2012-01-29T08:42:29Z</time>
      </trkpt>
      <trkpt lat="43.293630" lon="-2.109280">
        <ele>280.0</ele>
        <time>2012-01-29T08:42:49Z</time>
      </trkpt>
      <trkpt lat="43.293490" lon="-2.109540">
        <ele>284.0</ele>
        <time>2012-01-29T08:43:09Z</time>
      </trkpt>
      <trkpt lat="43.293400" lon="-2.109780">
        <ele>288.0</ele>
        <time>2012-01-29T08:43:29Z</time>
      </trkpt>
      <trkpt lat="43.293290" lon="-2.110060">
        <ele>288.0</ele>
        <time>2012-01-29T08:43:52Z</time>
      </trkpt>
      <trkpt lat="43.293200" lon="-2.110330">
        <ele>290.0</ele>
        <time>2012-01-29T08:44:12Z</time>
      </trkpt>
      <trkpt lat="43.293060" lon="-2.110640">
        <ele>287.0</ele>
        <time>2012-01-29T08:44:39Z</time>
      </trkpt>
      <trkpt lat="43.293010" lon="-2.110900">
        <ele>297.0</ele>
        <time>2012-01-29T08:44:59Z</time>
      </trkpt>
      <trkpt lat="43.292840" lon="-2.111060">
        <ele>285.0</ele>
        <time>2012-01-29T08:45:19Z</time>
      </trkpt>
      <trkpt lat="43.292600" lon="-2.111290">
        <ele>263.0</ele>
        <time>2012-01-29T08:45:40Z</time>
      </trkpt>
      <trkpt lat="43.292660" lon="-2.111570">
        <ele>275.0</ele>
        <time>2012-01-29T08:46:01Z</time>
      </trkpt>
      <trkpt lat="43.292700" lon="-2.111910">
        <ele>290.0</ele>
        <time>2012-01-29T08:46:23Z</time>
      </trkpt>
      <trkpt lat="43.292610" lon="-2.112170">
        <ele>291.0</ele>
        <time>2012-01-29T08:46:43Z</time>
      </trkpt>
      <trkpt lat="43.292400" lon="-2.112430">
        <ele>273.0</ele>
        <time>2012-01-29T08:47:03Z</time>
      </trkpt>
      <trkpt lat="43.292220" lon="-2.112670">
        <ele>259.0</ele>
        <time>2012-01-29T08:47:23Z</time>
      </trkpt>
      <trkpt lat="43.292270" lon="-2.112910">
        <ele>275.0</ele>
        <time>2012-01-29T08:47:43Z</time>
      </trkpt>
      <trkpt lat="43.292210" lon="-2.113140">
        <ele>279.0</ele>
        <time>2012-01-29T08:48:03Z</time>
      </trkpt>
      <trkpt lat="43.292150" lon="-2.113330">
        <ele>280.0</ele>
        <time>2012-01-29T08:48:23Z</time>
      </trkpt>
      <trkpt lat="43.292120" lon="-2.113420">
        <ele>281.0</ele>
        <time>2012-01-29T08:48:43Z</time>
      </trkpt>
      <trkpt lat="43.292060" lon="-2.113650">
        <ele>285.0</ele>
        <time>2012-01-29T08:49:03Z</time>
      </trkpt>
      <trkpt lat="43.291970" lon="-2.113920">
        <ele>288.0</ele>
        <time>2012-01-29T08:49:23Z</time>
      </trkpt>
      <trkpt lat="43.291860" lon="-2.114190">
        <ele>290.0</ele>
        <time>2012-01-29T08:49:43Z</time>
      </trkpt>
      <trkpt lat="43.291710" lon="-2.114400">
        <ele>288.0</ele>
        <time>2012-01-29T08:50:03Z</time>
      </trkpt>
      <trkpt lat="43.291570" lon="-2.114650">
        <ele>288.0</ele>
        <time>2012-01-29T08:50:23Z</time>
      </trkpt>
      <trkpt lat="43.291460" lon="-2.114920">
        <ele>289.0</ele>
        <time>2012-01-29T08:50:43Z</time>
      </trkpt>
      <trkpt lat="43.291330" lon="-2.115090">
        <ele>286.0</ele>
        <time>2012-01-29T08:51:03Z</time>
      </trkpt>
      <trkpt lat="43.291310" lon="-2.115110">
        <ele>283.0</ele>
        <time>2012-01-29T08:51:23Z</time>
      </trkpt>
      <trkpt lat="43.291300" lon="-2.115080">
        <ele>282.0</ele>
        <time>2012-01-29T08:51:43Z</time>
      </trkpt>
      <trkpt lat="43.291360" lon="-2.114880">
        <ele>283.0</ele>
        <time>2012-01-29T08:52:03Z</time>
      </trkpt>
      <trkpt lat="43.291400" lon="-2.114680">
        <ele>284.0</ele>
        <time>2012-01-29T08:52:23Z</time>
      </trkpt>
      <trkpt lat="43.291440" lon="-2.114490">
        <ele>288.0</ele>
        <time>2012-01-29T08:52:43Z</time>
      </trkpt>
      <trkpt lat="43.291470" lon="-2.114310">
        <ele>294.0</ele>
        <time>2012-01-29T08:53:03Z</time>
      </trkpt>
      <trkpt lat="43.291500" lon="-2.114070">
        <ele>293.0</ele>
        <time>2012-01-29T08:53:23Z</time>
      </trkpt>
      <trkpt lat="43.291550" lon="-2.113840">
        <ele>303.0</ele>
        <time>2012-01-29T08:53:43Z</time>
      </trkpt>
      <trkpt lat="43.291560" lon="-2.113640">
        <ele>302.0</ele>
        <time>2012-01-29T08:54:03Z</time>
      </trkpt>
      <trkpt lat="43.291600" lon="-2.113430">
        <ele>308.0</ele>
        <time>2012-01-29T08:54:23Z</time>
      </trkpt>
      <trkpt lat="43.291630" lon="-2.113250">
        <ele>310.0</ele>
        <time>2012-01-29T08:54:43Z</time>
      </trkpt>
      <trkpt lat="43.291680" lon="-2.113010">
        <ele>306.0</ele>
        <time>2012-01-29T08:55:03Z</time>
      </trkpt>
      <trkpt lat="43.291730" lon="-2.112740">
        <ele>314.0</ele>
        <time>2012-01-29T08:55:23Z</time>
      </trkpt>
      <trkpt lat="43.291810" lon="-2.112480">
        <ele>311.0</ele>
        <time>2012-01-29T08:55:43Z</time>
      </trkpt>
      <trkpt lat="43.291920" lon="-2.112130">
        <ele>318.0</ele>
        <time>2012-01-29T08:56:05Z</time>
      </trkpt>
      <trkpt lat="43.292050" lon="-2.111670">
        <ele>324.0</ele>
        <time>2012-01-29T08:56:32Z</time>
      </trkpt>
      <trkpt lat="43.292100" lon="-2.111370">
        <ele>315.0</ele>
        <time>2012-01-29T08:56:52Z</time>
      </trkpt>
      <trkpt lat="43.292160" lon="-2.111080">
        <ele>312.0</ele>
        <time>2012-01-29T08:57:12Z</time>
      </trkpt>
      <trkpt lat="43.292220" lon="-2.110820">
        <ele>314.0</ele>
        <time>2012-01-29T08:57:32Z</time>
      </trkpt>
      <trkpt lat="43.292210" lon="-2.110570">
        <ele>318.0</ele>
        <time>2012-01-29T08:57:52Z</time>
      </trkpt>
      <trkpt lat="43.292220" lon="-2.110340">
        <ele>320.0</ele>
        <time>2012-01-29T08:58:12Z</time>
      </trkpt>
      <trkpt lat="43.292240" lon="-2.110070">
        <ele>321.0</ele>
        <time>2012-01-29T08:58:32Z</time>
      </trkpt>
      <trkpt lat="43.292300" lon="-2.109790">
        <ele>328.0</ele>
        <time>2012-01-29T08:58:52Z</time>
      </trkpt>
      <trkpt lat="43.292330" lon="-2.109580">
        <ele>331.0</ele>
        <time>2012-01-29T08:59:12Z</time>
      </trkpt>
      <trkpt lat="43.292280" lon="-2.109440">
        <ele>330.0</ele>
        <time>2012-01-29T08:59:32Z</time>
      </trkpt>
      <trkpt lat="43.292250" lon="-2.109270">
        <ele>335.0</ele>
        <time>2012-01-29T08:59:52Z</time>
      </trkpt>
      <trkpt lat="43.292180" lon="-2.109170">
        <ele>334.0</ele>
        <time>2012-01-29T09:00:12Z</time>
      </trkpt>
      <trkpt lat="43.292180" lon="-2.109000">
        <ele>336.0</ele>
        <time>2012-01-29T09:00:32Z</time>
      </trkpt>
      <trkpt lat="43.292110" lon="-2.108880">
        <ele>342.0</ele>
        <time>2012-01-29T09:00:52Z</time>
      </trkpt>
      <trkpt lat="43.292170" lon="-2.108680">
        <ele>344.0</ele>
        <time>2012-01-29T09:01:12Z</time>
      </trkpt>
      <trkpt lat="43.292210" lon="-2.108440">
        <ele>346.0</ele>
        <time>2012-01-29T09:01:32Z</time>
      </trkpt>
      <trkpt lat="43.292260" lon="-2.108210">
        <ele>349.0</ele>
        <time>2012-01-29T09:01:52Z</time>
      </trkpt>
      <trkpt lat="43.292290" lon="-2.108030">
        <ele>350.0</ele>
        <time>2012-01-29T09:02:12Z</time>
      </trkpt>
      <trkpt lat="43.292340" lon="-2.107840">
        <ele>354.0</ele>
        <time>2012-01-29T09:02:32Z</time>
      </trkpt>
      <trkpt lat="43.292340" lon="-2.107790">
        <ele>355.0</ele>
        <time>2012-01-29T09:02:52Z</time>
      </trkpt>
      <trkpt lat="43.292340" lon="-2.107740">
        <ele>358.0</ele>
        <time>2012-01-29T09:03:12Z</time>
      </trkpt>
      <trkpt lat="43.292340" lon="-2.107730">
        <ele>357.0</ele>
        <time>2012-01-29T09:03:32Z</time>
      </trkpt>
      <trkpt lat="43.292340" lon="-2.107720">
        <ele>356.0</ele>
        <time>2012-01-29T09:03:52Z</time>
      </trkpt>
      <trkpt lat="43.292340" lon="-2.107670">
        <ele>357.0</ele>
        <time>2012-01-29T09:04:12Z</time>
      </trkpt>
      <trkpt lat="43.292410" lon="-2.107500">
        <ele>355.0</ele>
        <time>2012-01-29T09:04:32Z</time>
      </trkpt>
      <trkpt lat="43.292440" lon="-2.107280">
        <ele>358.0</ele>
        <time>2012-01-29T09:04:52Z</time>
      </trkpt>
      <trkpt lat="43.292450" lon="-2.107120">
        <ele>353.0</ele>
        <time>2012-01-29T09:05:12Z</time>
      </trkpt>
      <trkpt lat="43.292420" lon="-2.106820">
        <ele>355.0</ele>
        <time>2012-01-29T09:05:32Z</time>
      </trkpt>
      <trkpt lat="43.292440" lon="-2.106510">
        <ele>356.0</ele>
        <time>2012-01-29T09:05:52Z</time>
      </trkpt>
      <trkpt lat="43.292480" lon="-2.106300">
        <ele>356.0</ele>
        <time>2012-01-29T09:06:12Z</time>
      </trkpt>
      <trkpt lat="43.292500" lon="-2.106050">
        <ele>355.0</ele>
        <time>2012-01-29T09:06:32Z</time>
      </trkpt>
      <trkpt lat="43.292540" lon="-2.105780">
        <ele>353.0</ele>
        <time>2012-01-29T09:06:52Z</time>
      </trkpt>
      <trkpt lat="43.292630" lon="-2.105500">
        <ele>349.0</ele>
        <time>2012-01-29T09:07:12Z</time>
      </trkpt>
      <trkpt lat="43.292700" lon="-2.105210">
        <ele>346.0</ele>
        <time>2012-01-29T09:07:32Z</time>
      </trkpt>
      <trkpt lat="43.292780" lon="-2.104900">
        <ele>347.0</ele>
        <time>2012-01-29T09:07:52Z</time>
      </trkpt>
      <trkpt lat="43.292940" lon="-2.104710">
        <ele>347.0</ele>
        <time>2012-01-29T09:08:12Z</time>
      </trkpt>
      <trkpt lat="43.293110" lon="-2.104570">
        <ele>343.0</ele>
        <time>2012-01-29T09:08:32Z</time>
      </trkpt>
      <trkpt lat="43.293270" lon="-2.104550">
        <ele>343.0</ele>
        <time>2012-01-29T09:08:52Z</time>
      </trkpt>
      <trkpt lat="43.293470" lon="-2.104560">
        <ele>338.0</ele>
        <time>2012-01-29T09:09:12Z</time>
      </trkpt>
      <trkpt lat="43.293660" lon="-2.104540">
        <ele>333.0</ele>
        <time>2012-01-29T09:09:32Z</time>
      </trkpt>
      <trkpt lat="43.293880" lon="-2.104310">
        <ele>334.0</ele>
        <time>2012-01-29T09:09:52Z</time>
      </trkpt>
      <trkpt lat="43.294030" lon="-2.104010">
        <ele>336.0</ele>
        <time>2012-01-29T09:10:12Z</time>
      </trkpt>
      <trkpt lat="43.294140" lon="-2.103690">
        <ele>334.0</ele>
        <time>2012-01-29T09:10:32Z</time>
      </trkpt>
      <trkpt lat="43.294200" lon="-2.103390">
        <ele>331.0</ele>
        <time>2012-01-29T09:10:52Z</time>
      </trkpt>
      <trkpt lat="43.294280" lon="-2.103050">
        <ele>327.0</ele>
        <time>2012-01-29T09:11:12Z</time>
      </trkpt>
      <trkpt lat="43.294370" lon="-2.102750">
        <ele>324.0</ele>
        <time>2012-01-29T09:11:32Z</time>
      </trkpt>
      <trkpt lat="43.294430" lon="-2.102440">
        <ele>323.0</ele>
        <time>2012-01-29T09:11:52Z</time>
      </trkpt>
      <trkpt lat="43.294410" lon="-2.102220">
        <ele>321.0</ele>
        <time>2012-01-29T09:12:12Z</time>
      </trkpt>
      <trkpt lat="43.294420" lon="-2.101900">
        <ele>318.0</ele>
        <time>2012-01-29T09:12:32Z</time>
      </trkpt>
      <trkpt lat="43.294450" lon="-2.101630">
        <ele>313.0</ele>
        <time>2012-01-29T09:12:52Z</time>
      </trkpt>
      <trkpt lat="43.294500" lon="-2.101320">
        <ele>310.0</ele>
        <time>2012-01-29T09:13:12Z</time>
      </trkpt>
      <trkpt lat="43.294530" lon="-2.100990">
        <ele>314.0</ele>
        <time>2012-01-29T09:13:32Z</time>
      </trkpt>
      <trkpt lat="43.294540" lon="-2.100650">
        <ele>315.0</ele>
        <time>2012-01-29T09:13:52Z</time>
      </trkpt>
      <trkpt lat="43.294540" lon="-2.100320">
        <ele>314.0</ele>
        <time>2012-01-29T09:14:12Z</time>
      </trkpt>
      <trkpt lat="43.294550" lon="-2.099990">
        <ele>314.0</ele>
        <time>2012-01-29T09:14:32Z</time>
      </trkpt>
      <trkpt lat="43.294570" lon="-2.099630">
        <ele>314.0</ele>
        <time>2012-01-29T09:14:52Z</time>
      </trkpt>
      <trkpt lat="43.294530" lon="-2.099300">
        <ele>314.0</ele>
        <time>2012-01-29T09:15:12Z</time>
      </trkpt>
      <trkpt lat="43.294400" lon="-2.098980">
        <ele>318.0</ele>
        <time>2012-01-29T09:15:32Z</time>
      </trkpt>
      <trkpt lat="43.294180" lon="-2.098800">
        <ele>317.0</ele>
        <time>2012-01-29T09:15:52Z</time>
      </trkpt>
      <trkpt lat="43.293950" lon="-2.098760">
        <ele>310.0</ele>
        <time>2012-01-29T09:16:12Z</time>
      </trkpt>
      <trkpt lat="43.293690" lon="-2.098760">
        <ele>310.0</ele>
        <time>2012-01-29T09:16:32Z</time>
      </trkpt>
      <trkpt lat="43.293510" lon="-2.098810">
        <ele>311.0</ele>
        <time>2012-01-29T09:16:52Z</time>
      </trkpt>
      <trkpt lat="43.293490" lon="-2.098820">
        <ele>313.0</ele>
        <time>2012-01-29T09:17:12Z</time>
      </trkpt>
      <trkpt lat="43.293480" lon="-2.098820">
        <ele>314.0</ele>
        <time>2012-01-29T09:17:32Z</time>
      </trkpt>
      <trkpt lat="43.293420" lon="-2.098780">
        <ele>312.0</ele>
        <time>2012-01-29T09:17:52Z</time>
      </trkpt>
      <trkpt lat="43.293220" lon="-2.098600">
        <ele>309.0</ele>
        <time>2012-01-29T09:18:12Z</time>
      </trkpt>
      <trkpt lat="43.293050" lon="-2.098500">
        <ele>309.0</ele>
        <time>2012-01-29T09:18:32Z</time>
      </trkpt>
      <trkpt lat="43.292820" lon="-2.098370">
        <ele>308.0</ele>
        <time>2012-01-29T09:18:52Z</time>
      </trkpt>
      <trkpt lat="43.292610" lon="-2.098260">
        <ele>309.0</ele>
        <time>2012-01-29T09:19:12Z</time>
      </trkpt>
      <trkpt lat="43.292610" lon="-2.098000">
        <ele>312.0</ele>
        <time>2012-01-29T09:19:32Z</time>
      </trkpt>
      <trkpt lat="43.292690" lon="-2.097700">
        <ele>313.0</ele>
        <time>2012-01-29T09:19:52Z</time>
      </trkpt>
      <trkpt lat="43.292770" lon="-2.097390">
        <ele>316.0</ele>
        <time>2012-01-29T09:20:12Z</time>
      </trkpt>
      <trkpt lat="43.292870" lon="-2.097100">
        <ele>317.0</ele>
        <time>2012-01-29T09:20:32Z</time>
      </trkpt>
      <trkpt lat="43.292970" lon="-2.096820">
        <ele>314.0</ele>
        <time>2012-01-29T09:20:52Z</time>
      </trkpt>
      <trkpt lat="43.293070" lon="-2.096500">
        <ele>316.0</ele>
        <time>2012-01-29T09:21:12Z</time>
      </trkpt>
      <trkpt lat="43.293160" lon="-2.096180">
        <ele>317.0</ele>
        <time>2012-01-29T09:21:32Z</time>
      </trkpt>
      <trkpt lat="43.293240" lon="-2.095840">
        <ele>318.0</ele>
        <time>2012-01-29T09:21:52Z</time>
      </trkpt>
      <trkpt lat="43.293310" lon="-2.095510">
        <ele>318.0</ele>
        <time>2012-01-29T09:22:12Z</time>
      </trkpt>
      <trkpt lat="43.293320" lon="-2.095170">
        <ele>320.0</ele>
        <time>2012-01-29T09:22:32Z</time>
      </trkpt>
      <trkpt lat="43.293330" lon="-2.094820">
        <ele>322.0</ele>
        <time>2012-01-29T09:22:52Z</time>
      </trkpt>
      <trkpt lat="43.293330" lon="-2.094480">
        <ele>322.0</ele>
        <time>2012-01-29T09:23:12Z</time>
      </trkpt>
      <trkpt lat="43.293320" lon="-2.094140">
        <ele>322.0</ele>
        <time>2012-01-29T09:23:32Z</time>
      </trkpt>
      <trkpt lat="43.293310" lon="-2.093810">
        <ele>323.0</ele>
        <time>2012-01-29T09:23:52Z</time>
      </trkpt>
      <trkpt lat="43.293330" lon="-2.093460">
        <ele>323.0</ele>
        <time>2012-01-29T09:24:12Z</time>
      </trkpt>
      <trkpt lat="43.293340" lon="-2.093080">
        <ele>324.0</ele>
        <time>2012-01-29T09:24:32Z</time>
      </trkpt>
      <trkpt lat="43.293350" lon="-2.092720">
        <ele>326.0</ele>
        <time>2012-01-29T09:24:52Z</time>
      </trkpt>
      <trkpt lat="43.293350" lon="-2.092360">
        <ele>328.0</ele>
        <time>2012-01-29T09:25:12Z</time>
      </trkpt>
      <trkpt lat="43.293360" lon="-2.092030">
        <ele>329.0</ele>
        <time>2012-01-29T09:25:32Z</time>
      </trkpt>
      <trkpt lat="43.293370" lon="-2.091840">
        <ele>329.0</ele>
        <time>2012-01-29T09:25:52Z</time>
      </trkpt>
      <trkpt lat="43.293430" lon="-2.091530">
        <ele>328.0</ele>
        <time>2012-01-29T09:26:12Z</time>
      </trkpt>
      <trkpt lat="43.293510" lon="-2.091220">
        <ele>326.0</ele>
        <time>2012-01-29T09:26:32Z</time>
      </trkpt>
      <trkpt lat="43.293600" lon="-2.090900">
        <ele>326.0</ele>
        <time>2012-01-29T09:26:52Z</time>
      </trkpt>
      <trkpt lat="43.293670" lon="-2.090530">
        <ele>330.0</ele>
        <time>2012-01-29T09:27:12Z</time>
      </trkpt>
      <trkpt lat="43.293730" lon="-2.090200">
        <ele>332.0</ele>
        <time>2012-01-29T09:27:32Z</time>
      </trkpt>
      <trkpt lat="43.293790" lon="-2.089850">
        <ele>332.0</ele>
        <time>2012-01-29T09:27:52Z</time>
      </trkpt>
      <trkpt lat="43.293870" lon="-2.089520">
        <ele>333.0</ele>
        <time>2012-01-29T09:28:12Z</time>
      </trkpt>
      <trkpt lat="43.293960" lon="-2.089220">
        <ele>333.0</ele>
        <time>2012-01-29T09:28:32Z</time>
      </trkpt>
      <trkpt lat="43.294050" lon="-2.089030">
        <ele>333.0</ele>
        <time>2012-01-29T09:28:52Z</time>
      </trkpt>
      <trkpt lat="43.294050" lon="-2.089030">
        <ele>334.0</ele>
        <time>2012-01-29T09:29:12Z</time>
      </trkpt>
      <trkpt lat="43.294060" lon="-2.089020">
        <ele>336.0</ele>
        <time>2012-01-29T09:29:32Z</time>
      </trkpt>
      <trkpt lat="43.294060" lon="-2.089020">
        <ele>336.0</ele>
        <time>2012-01-29T09:29:52Z</time>
      </trkpt>
      <trkpt lat="43.294060" lon="-2.089020">
        <ele>336.0</ele>
        <time>2012-01-29T09:30:12Z</time>
      </trkpt>
      <trkpt lat="43.294060" lon="-2.089020">
        <ele>335.0</ele>
        <time>2012-01-29T09:30:32Z</time>
      </trkpt>
      <trkpt lat="43.294010" lon="-2.088960">
        <ele>337.0</ele>
        <time>2012-01-29T09:30:53Z</time>
      </trkpt>
      <trkpt lat="43.294110" lon="-2.088640">
        <ele>329.0</ele>
        <time>2012-01-29T09:31:13Z</time>
      </trkpt>
      <trkpt lat="43.294190" lon="-2.088360">
        <ele>328.0</ele>
        <time>2012-01-29T09:31:33Z</time>
      </trkpt>
      <trkpt lat="43.294310" lon="-2.088040">
        <ele>333.0</ele>
        <time>2012-01-29T09:31:53Z</time>
      </trkpt>
      <trkpt lat="43.294410" lon="-2.087700">
        <ele>335.0</ele>
        <time>2012-01-29T09:32:13Z</time>
      </trkpt>
      <trkpt lat="43.294510" lon="-2.087390">
        <ele>333.0</ele>
        <time>2012-01-29T09:32:33Z</time>
      </trkpt>
      <trkpt lat="43.294630" lon="-2.087090">
        <ele>334.0</ele>
        <time>2012-01-29T09:32:53Z</time>
      </trkpt>
      <trkpt lat="43.294730" lon="-2.086790">
        <ele>331.0</ele>
        <time>2012-01-29T09:33:13Z</time>
      </trkpt>
      <trkpt lat="43.294860" lon="-2.086450">
        <ele>332.0</ele>
        <time>2012-01-29T09:33:33Z</time>
      </trkpt>
      <trkpt lat="43.294970" lon="-2.086110">
        <ele>336.0</ele>
        <time>2012-01-29T09:33:53Z</time>
      </trkpt>
      <trkpt lat="43.295060" lon="-2.085750">
        <ele>337.0</ele>
        <time>2012-01-29T09:34:13Z</time>
      </trkpt>
      <trkpt lat="43.295100" lon="-2.085410">
        <ele>335.0</ele>
        <time>2012-01-29T09:34:33Z</time>
      </trkpt>
      <trkpt lat="43.295170" lon="-2.085070">
        <ele>333.0</ele>
        <time>2012-01-29T09:34:53Z</time>
      </trkpt>
      <trkpt lat="43.295240" lon="-2.084730">
        <ele>335.0</ele>
        <time>2012-01-29T09:35:13Z</time>
      </trkpt>
      <trkpt lat="43.295240" lon="-2.084430">
        <ele>338.0</ele>
        <time>2012-01-29T09:35:33Z</time>
      </trkpt>
      <trkpt lat="43.295200" lon="-2.084120">
        <ele>342.0</ele>
        <time>2012-01-29T09:35:53Z</time>
      </trkpt>
      <trkpt lat="43.295140" lon="-2.083790">
        <ele>346.0</ele>
        <time>2012-01-29T09:36:13Z</time>
      </trkpt>
      <trkpt lat="43.295100" lon="-2.083450">
        <ele>346.0</ele>
        <time>2012-01-29T09:36:33Z</time>
      </trkpt>
      <trkpt lat="43.295070" lon="-2.083130">
        <ele>346.0</ele>
        <time>2012-01-29T09:36:53Z</time>
      </trkpt>
      <trkpt lat="43.295080" lon="-2.082790">
        <ele>346.0</ele>
        <time>2012-01-29T09:37:13Z</time>
      </trkpt>
      <trkpt lat="43.295080" lon="-2.082460">
        <ele>346.0</ele>
        <time>2012-01-29T09:37:33Z</time>
      </trkpt>
      <trkpt lat="43.295060" lon="-2.082080">
        <ele>344.0</ele>
        <time>2012-01-29T09:37:53Z</time>
      </trkpt>
      <trkpt lat="43.295090" lon="-2.081750">
        <ele>339.0</ele>
        <time>2012-01-29T09:38:13Z</time>
      </trkpt>
      <trkpt lat="43.295130" lon="-2.081390">
        <ele>338.0</ele>
        <time>2012-01-29T09:38:33Z</time>
      </trkpt>
      <trkpt lat="43.295190" lon="-2.081030">
        <ele>339.0</ele>
        <time>2012-01-29T09:38:53Z</time>
      </trkpt>
      <trkpt lat="43.295260" lon="-2.080690">
        <ele>341.0</ele>
        <time>2012-01-29T09:39:13Z</time>
      </trkpt>
      <trkpt lat="43.295300" lon="-2.080360">
        <ele>339.0</ele>
        <time>2012-01-29T09:39:33Z</time>
      </trkpt>
      <trkpt lat="43.295310" lon="-2.080000">
        <ele>340.0</ele>
        <time>2012-01-29T09:39:53Z</time>
      </trkpt>
      <trkpt lat="43.295290" lon="-2.079640">
        <ele>342.0</ele>
        <time>2012-01-29T09:40:13Z</time>
      </trkpt>
      <trkpt lat="43.295260" lon="-2.079300">
        <ele>341.0</ele>
        <time>2012-01-29T09:40:33Z</time>
      </trkpt>
      <trkpt lat="43.295280" lon="-2.078970">
        <ele>342.0</ele>
        <time>2012-01-29T09:40:53Z</time>
      </trkpt>
      <trkpt lat="43.295150" lon="-2.078910">
        <ele>342.0</ele>
        <time>2012-01-29T09:41:13Z</time>
      </trkpt>
      <trkpt lat="43.294980" lon="-2.079110">
        <ele>344.0</ele>
        <time>2012-01-29T09:41:33Z</time>
      </trkpt>
      <trkpt lat="43.294850" lon="-2.079040">
        <ele>345.0</ele>
        <time>2012-01-29T09:41:53Z</time>
      </trkpt>
      <trkpt lat="43.294820" lon="-2.078820">
        <ele>342.0</ele>
        <time>2012-01-29T09:42:13Z</time>
      </trkpt>
      <trkpt lat="43.294820" lon="-2.078700">
        <ele>342.0</ele>
        <time>2012-01-29T09:42:33Z</time>
      </trkpt>
      <trkpt lat="43.294790" lon="-2.078540">
        <ele>342.0</ele>
        <time>2012-01-29T09:42:53Z</time>
      </trkpt>
      <trkpt lat="43.294750" lon="-2.078250">
        <ele>340.0</ele>
        <time>2012-01-29T09:43:13Z</time>
      </trkpt>
      <trkpt lat="43.294700" lon="-2.077930">
        <ele>336.0</ele>
        <time>2012-01-29T09:43:33Z</time>
      </trkpt>
      <trkpt lat="43.294680" lon="-2.077670">
        <ele>332.0</ele>
        <time>2012-01-29T09:43:53Z</time>
      </trkpt>
      <trkpt lat="43.294630" lon="-2.077400">
        <ele>328.0</ele>
        <time>2012-01-29T09:44:13Z</time>
      </trkpt>
      <trkpt lat="43.294550" lon="-2.077180">
        <ele>325.0</ele>
        <time>2012-01-29T09:44:33Z</time>
      </trkpt>
      <trkpt lat="43.294540" lon="-2.077150">
        <ele>325.0</ele>
        <time>2012-01-29T09:44:53Z</time>
      </trkpt>
      <trkpt lat="43.294490" lon="-2.076960">
        <ele>330.0</ele>
        <time>2012-01-29T09:45:13Z</time>
      </trkpt>
      <trkpt lat="43.294450" lon="-2.076760">
        <ele>327.0</ele>
        <time>2012-01-29T09:45:33Z</time>
      </trkpt>
      <trkpt lat="43.294420" lon="-2.076460">
        <ele>325.0</ele>
        <time>2012-01-29T09:45:53Z</time>
      </trkpt>
      <trkpt lat="43.294430" lon="-2.076120">
        <ele>324.0</ele>
        <time>2012-01-29T09:46:13Z</time>
      </trkpt>
      <trkpt lat="43.294400" lon="-2.075880">
        <ele>317.0</ele>
        <time>2012-01-29T09:46:33Z</time>
      </trkpt>
      <trkpt lat="43.294420" lon="-2.075620">
        <ele>309.0</ele>
        <time>2012-01-29T09:46:53Z</time>
      </trkpt>
      <trkpt lat="43.294480" lon="-2.075310">
        <ele>309.0</ele>
        <time>2012-01-29T09:47:13Z</time>
      </trkpt>
      <trkpt lat="43.294580" lon="-2.075010">
        <ele>306.0</ele>
        <time>2012-01-29T09:47:33Z</time>
      </trkpt>
      <trkpt lat="43.294690" lon="-2.074640">
        <ele>309.0</ele>
        <time>2012-01-29T09:47:55Z</time>
      </trkpt>
      <trkpt lat="43.294780" lon="-2.074340">
        <ele>312.0</ele>
        <time>2012-01-29T09:48:15Z</time>
      </trkpt>
      <trkpt lat="43.294910" lon="-2.074030">
        <ele>310.0</ele>
        <time>2012-01-29T09:48:35Z</time>
      </trkpt>
      <trkpt lat="43.295040" lon="-2.073730">
        <ele>308.0</ele>
        <time>2012-01-29T09:48:55Z</time>
      </trkpt>
      <trkpt lat="43.295190" lon="-2.073440">
        <ele>304.0</ele>
        <time>2012-01-29T09:49:15Z</time>
      </trkpt>
      <trkpt lat="43.295340" lon="-2.073090">
        <ele>304.0</ele>
        <time>2012-01-29T09:49:35Z</time>
      </trkpt>
      <trkpt lat="43.295420" lon="-2.072770">
        <ele>306.0</ele>
        <time>2012-01-29T09:49:55Z</time>
      </trkpt>
      <trkpt lat="43.295480" lon="-2.072610">
        <ele>303.0</ele>
        <time>2012-01-29T09:50:15Z</time>
      </trkpt>
      <trkpt lat="43.295500" lon="-2.072420">
        <ele>302.0</ele>
        <time>2012-01-29T09:50:35Z</time>
      </trkpt>
      <trkpt lat="43.295530" lon="-2.072090">
        <ele>304.0</ele>
        <time>2012-01-29T09:50:55Z</time>
      </trkpt>
      <trkpt lat="43.295500" lon="-2.071810">
        <ele>310.0</ele>
        <time>2012-01-29T09:51:15Z</time>
      </trkpt>
      <trkpt lat="43.295520" lon="-2.071440">
        <ele>308.0</ele>
        <time>2012-01-29T09:51:35Z</time>
      </trkpt>
      <trkpt lat="43.295570" lon="-2.070940">
        <ele>296.0</ele>
        <time>2012-01-29T09:52:02Z</time>
      </trkpt>
      <trkpt lat="43.295600" lon="-2.070680">
        <ele>304.0</ele>
        <time>2012-01-29T09:52:22Z</time>
      </trkpt>
      <trkpt lat="43.295580" lon="-2.070480">
        <ele>295.0</ele>
        <time>2012-01-29T09:52:42Z</time>
      </trkpt>
      <trkpt lat="43.295550" lon="-2.070280">
        <ele>300.0</ele>
        <time>2012-01-29T09:53:02Z</time>
      </trkpt>
      <trkpt lat="43.295500" lon="-2.070020">
        <ele>298.0</ele>
        <time>2012-01-29T09:53:22Z</time>
      </trkpt>
      <trkpt lat="43.295550" lon="-2.069770">
        <ele>293.0</ele>
        <time>2012-01-29T09:53:44Z</time>
      </trkpt>
      <trkpt lat="43.295670" lon="-2.069430">
        <ele>285.0</ele>
        <time>2012-01-29T09:54:09Z</time>
      </trkpt>
      <trkpt lat="43.295760" lon="-2.069190">
        <ele>279.0</ele>
        <time>2012-01-29T09:54:31Z</time>
      </trkpt>
      <trkpt lat="43.295890" lon="-2.068940">
        <ele>270.0</ele>
        <time>2012-01-29T09:54:51Z</time>
      </trkpt>
      <trkpt lat="43.295930" lon="-2.068640">
        <ele>284.0</ele>
        <time>2012-01-29T09:55:15Z</time>
      </trkpt>
      <trkpt lat="43.295890" lon="-2.068340">
        <ele>287.0</ele>
        <time>2012-01-29T09:55:35Z</time>
      </trkpt>
      <trkpt lat="43.295800" lon="-2.068140">
        <ele>282.0</ele>
        <time>2012-01-29T09:55:55Z</time>
      </trkpt>
      <trkpt lat="43.295680" lon="-2.067920">
        <ele>278.0</ele>
        <time>2012-01-29T09:56:15Z</time>
      </trkpt>
      <trkpt lat="43.295540" lon="-2.067750">
        <ele>281.0</ele>
        <time>2012-01-29T09:56:35Z</time>
      </trkpt>
      <trkpt lat="43.295480" lon="-2.067590">
        <ele>277.0</ele>
        <time>2012-01-29T09:56:55Z</time>
      </trkpt>
      <trkpt lat="43.295420" lon="-2.067380">
        <ele>277.0</ele>
        <time>2012-01-29T09:57:17Z</time>
      </trkpt>
      <trkpt lat="43.295360" lon="-2.067210">
        <ele>274.0</ele>
        <time>2012-01-29T09:57:39Z</time>
      </trkpt>
      <trkpt lat="43.295330" lon="-2.067040">
        <ele>274.0</ele>
        <time>2012-01-29T09:58:01Z</time>
      </trkpt>
      <trkpt lat="43.295270" lon="-2.066970">
        <ele>267.0</ele>
        <time>2012-01-29T09:58:26Z</time>
      </trkpt>
      <trkpt lat="43.295230" lon="-2.066860">
        <ele>264.0</ele>
        <time>2012-01-29T09:58:46Z</time>
      </trkpt>
      <trkpt lat="43.295200" lon="-2.066660">
        <ele>273.0</ele>
        <time>2012-01-29T09:59:06Z</time>
      </trkpt>
      <trkpt lat="43.295220" lon="-2.066650">
        <ele>266.0</ele>
        <time>2012-01-29T09:59:31Z</time>
      </trkpt>
      <trkpt lat="43.295230" lon="-2.066670">
        <ele>261.0</ele>
        <time>2012-01-29T09:59:54Z</time>
      </trkpt>
      <trkpt lat="43.295170" lon="-2.066560">
        <ele>270.0</ele>
        <time>2012-01-29T10:00:14Z</time>
      </trkpt>
      <trkpt lat="43.295150" lon="-2.066540">
        <ele>266.0</ele>
        <time>2012-01-29T10:00:37Z</time>
      </trkpt>
      <trkpt lat="43.295150" lon="-2.066480">
        <ele>254.0</ele>
        <time>2012-01-29T10:01:00Z</time>
      </trkpt>
      <trkpt lat="43.295160" lon="-2.066220">
        <ele>255.0</ele>
        <time>2012-01-29T10:01:22Z</time>
      </trkpt>
      <trkpt lat="43.295160" lon="-2.065900">
        <ele>252.0</ele>
        <time>2012-01-29T10:01:42Z</time>
      </trkpt>
      <trkpt lat="43.295150" lon="-2.065580">
        <ele>251.0</ele>
        <time>2012-01-29T10:02:02Z</time>
      </trkpt>
      <trkpt lat="43.295150" lon="-2.065270">
        <ele>247.0</ele>
        <time>2012-01-29T10:02:22Z</time>
      </trkpt>
      <trkpt lat="43.295060" lon="-2.065070">
        <ele>243.0</ele>
        <time>2012-01-29T10:02:42Z</time>
      </trkpt>
      <trkpt lat="43.294960" lon="-2.064850">
        <ele>241.0</ele>
        <time>2012-01-29T10:03:02Z</time>
      </trkpt>
      <trkpt lat="43.294880" lon="-2.064670">
        <ele>234.0</ele>
        <time>2012-01-29T10:03:22Z</time>
      </trkpt>
      <trkpt lat="43.294860" lon="-2.064520">
        <ele>233.0</ele>
        <time>2012-01-29T10:03:42Z</time>
      </trkpt>
      <trkpt lat="43.294800" lon="-2.064450">
        <ele>230.0</ele>
        <time>2012-01-29T10:04:02Z</time>
      </trkpt>
      <trkpt lat="43.294680" lon="-2.064360">
        <ele>225.0</ele>
        <time>2012-01-29T10:04:22Z</time>
      </trkpt>
      <trkpt lat="43.294530" lon="-2.064340">
        <ele>226.0</ele>
        <time>2012-01-29T10:04:42Z</time>
      </trkpt>
      <trkpt lat="43.294360" lon="-2.064240">
        <ele>214.0</ele>
        <time>2012-01-29T10:05:04Z</time>
      </trkpt>
      <trkpt lat="43.294310" lon="-2.064160">
        <ele>213.0</ele>
        <time>2012-01-29T10:05:24Z</time>
      </trkpt>
      <trkpt lat="43.294280" lon="-2.064010">
        <ele>210.0</ele>
        <time>2012-01-29T10:05:44Z</time>
      </trkpt>
      <trkpt lat="43.294430" lon="-2.063740">
        <ele>210.0</ele>
        <time>2012-01-29T10:06:04Z</time>
      </trkpt>
      <trkpt lat="43.294560" lon="-2.063430">
        <ele>207.0</ele>
        <time>2012-01-29T10:06:24Z</time>
      </trkpt>
      <trkpt lat="43.294720" lon="-2.063150">
        <ele>207.0</ele>
        <time>2012-01-29T10:06:44Z</time>
      </trkpt>
      <trkpt lat="43.294860" lon="-2.062840">
        <ele>206.0</ele>
        <time>2012-01-29T10:07:04Z</time>
      </trkpt>
      <trkpt lat="43.295020" lon="-2.062500">
        <ele>211.0</ele>
        <time>2012-01-29T10:07:24Z</time>
      </trkpt>
      <trkpt lat="43.295110" lon="-2.062150">
        <ele>210.0</ele>
        <time>2012-01-29T10:07:44Z</time>
      </trkpt>
      <trkpt lat="43.295190" lon="-2.061830">
        <ele>208.0</ele>
        <time>2012-01-29T10:08:04Z</time>
      </trkpt>
      <trkpt lat="43.295270" lon="-2.061520">
        <ele>204.0</ele>
        <time>2012-01-29T10:08:24Z</time>
      </trkpt>
      <trkpt lat="43.295300" lon="-2.061180">
        <ele>201.0</ele>
        <time>2012-01-29T10:08:44Z</time>
      </trkpt>
      <trkpt lat="43.295080" lon="-2.061010">
        <ele>204.0</ele>
        <time>2012-01-29T10:09:04Z</time>
      </trkpt>
      <trkpt lat="43.294870" lon="-2.060940">
        <ele>209.0</ele>
        <time>2012-01-29T10:09:24Z</time>
      </trkpt>
      <trkpt lat="43.294640" lon="-2.060850">
        <ele>212.0</ele>
        <time>2012-01-29T10:09:44Z</time>
      </trkpt>
      <trkpt lat="43.294480" lon="-2.060650">
        <ele>209.0</ele>
        <time>2012-01-29T10:10:04Z</time>
      </trkpt>
      <trkpt lat="43.294440" lon="-2.060320">
        <ele>212.0</ele>
        <time>2012-01-29T10:10:24Z</time>
      </trkpt>
      <trkpt lat="43.294510" lon="-2.059930">
        <ele>219.0</ele>
        <time>2012-01-29T10:10:44Z</time>
      </trkpt>
      <trkpt lat="43.294480" lon="-2.059600">
        <ele>219.0</ele>
        <time>2012-01-29T10:11:04Z</time>
      </trkpt>
      <trkpt lat="43.294450" lon="-2.059160">
        <ele>225.0</ele>
        <time>2012-01-29T10:11:30Z</time>
      </trkpt>
      <trkpt lat="43.294390" lon="-2.058830">
        <ele>231.0</ele>
        <time>2012-01-29T10:11:52Z</time>
      </trkpt>
      <trkpt lat="43.294320" lon="-2.058500">
        <ele>229.0</ele>
        <time>2012-01-29T10:12:12Z</time>
      </trkpt>
      <trkpt lat="43.294230" lon="-2.058140">
        <ele>226.0</ele>
        <time>2012-01-29T10:12:32Z</time>
      </trkpt>
      <trkpt lat="43.294170" lon="-2.057780">
        <ele>228.0</ele>
        <time>2012-01-29T10:12:52Z</time>
      </trkpt>
      <trkpt lat="43.294110" lon="-2.057400">
        <ele>233.0</ele>
        <time>2012-01-29T10:13:12Z</time>
      </trkpt>
      <trkpt lat="43.293960" lon="-2.057110">
        <ele>226.0</ele>
        <time>2012-01-29T10:13:32Z</time>
      </trkpt>
      <trkpt lat="43.293870" lon="-2.056750">
        <ele>231.0</ele>
        <time>2012-01-29T10:13:52Z</time>
      </trkpt>
      <trkpt lat="43.293840" lon="-2.056420">
        <ele>235.0</ele>
        <time>2012-01-29T10:14:12Z</time>
      </trkpt>
      <trkpt lat="43.293890" lon="-2.056100">
        <ele>235.0</ele>
        <time>2012-01-29T10:14:32Z</time>
      </trkpt>
      <trkpt lat="43.293930" lon="-2.055730">
        <ele>229.0</ele>
        <time>2012-01-29T10:14:52Z</time>
      </trkpt>
      <trkpt lat="43.293940" lon="-2.055360">
        <ele>232.0</ele>
        <time>2012-01-29T10:15:12Z</time>
      </trkpt>
      <trkpt lat="43.293900" lon="-2.055020">
        <ele>233.0</ele>
        <time>2012-01-29T10:15:32Z</time>
      </trkpt>
      <trkpt lat="43.293850" lon="-2.054680">
        <ele>237.0</ele>
        <time>2012-01-29T10:15:52Z</time>
      </trkpt>
      <trkpt lat="43.293730" lon="-2.054410">
        <ele>235.0</ele>
        <time>2012-01-29T10:16:12Z</time>
      </trkpt>
      <trkpt lat="43.293550" lon="-2.054200">
        <ele>238.0</ele>
        <time>2012-01-29T10:16:32Z</time>
      </trkpt>
      <trkpt lat="43.293430" lon="-2.053870">
        <ele>240.0</ele>
        <time>2012-01-29T10:16:52Z</time>
      </trkpt>
      <trkpt lat="43.293270" lon="-2.053690">
        <ele>234.0</ele>
        <time>2012-01-29T10:17:12Z</time>
      </trkpt>
      <trkpt lat="43.293120" lon="-2.053590">
        <ele>236.0</ele>
        <time>2012-01-29T10:17:32Z</time>
      </trkpt>
      <trkpt lat="43.292950" lon="-2.053400">
        <ele>251.0</ele>
        <time>2012-01-29T10:17:52Z</time>
      </trkpt>
      <trkpt lat="43.292830" lon="-2.053090">
        <ele>245.0</ele>
        <time>2012-01-29T10:18:12Z</time>
      </trkpt>
      <trkpt lat="43.292710" lon="-2.052790">
        <ele>240.0</ele>
        <time>2012-01-29T10:18:32Z</time>
      </trkpt>
      <trkpt lat="43.292550" lon="-2.052580">
        <ele>230.0</ele>
        <time>2012-01-29T10:18:52Z</time>
      </trkpt>
      <trkpt lat="43.292350" lon="-2.052450">
        <ele>223.0</ele>
        <time>2012-01-29T10:19:12Z</time>
      </trkpt>
      <trkpt lat="43.292140" lon="-2.052270">
        <ele>226.0</ele>
        <time>2012-01-29T10:19:32Z</time>
      </trkpt>
      <trkpt lat="43.291910" lon="-2.052070">
        <ele>233.0</ele>
        <time>2012-01-29T10:19:52Z</time>
      </trkpt>
      <trkpt lat="43.291730" lon="-2.051900">
        <ele>221.0</ele>
        <time>2012-01-29T10:20:12Z</time>
      </trkpt>
      <trkpt lat="43.291600" lon="-2.051760">
        <ele>216.0</ele>
        <time>2012-01-29T10:20:32Z</time>
      </trkpt>
      <trkpt lat="43.291520" lon="-2.051680">
        <ele>221.0</ele>
        <time>2012-01-29T10:20:52Z</time>
      </trkpt>
      <trkpt lat="43.291380" lon="-2.051700">
        <ele>226.0</ele>
        <time>2012-01-29T10:21:12Z</time>
      </trkpt>
      <trkpt lat="43.291150" lon="-2.051690">
        <ele>227.0</ele>
        <time>2012-01-29T10:21:32Z</time>
      </trkpt>
      <trkpt lat="43.290920" lon="-2.051820">
        <ele>228.0</ele>
        <time>2012-01-29T10:21:52Z</time>
      </trkpt>
      <trkpt lat="43.290700" lon="-2.051960">
        <ele>226.0</ele>
        <time>2012-01-29T10:22:12Z</time>
      </trkpt>
      <trkpt lat="43.290560" lon="-2.052080">
        <ele>217.0</ele>
        <time>2012-01-29T10:22:32Z</time>
      </trkpt>
      <trkpt lat="43.290380" lon="-2.052160">
        <ele>212.0</ele>
        <time>2012-01-29T10:22:52Z</time>
      </trkpt>
      <trkpt lat="43.290180" lon="-2.052270">
        <ele>204.0</ele>
        <time>2012-01-29T10:23:12Z</time>
      </trkpt>
      <trkpt lat="43.290000" lon="-2.052430">
        <ele>193.0</ele>
        <time>2012-01-29T10:23:32Z</time>
      </trkpt>
      <trkpt lat="43.289850" lon="-2.052630">
        <ele>192.0</ele>
        <time>2012-01-29T10:23:52Z</time>
      </trkpt>
      <trkpt lat="43.289770" lon="-2.052890">
        <ele>194.0</ele>
        <time>2012-01-29T10:24:12Z</time>
      </trkpt>
      <trkpt lat="43.289800" lon="-2.053190">
        <ele>188.0</ele>
        <time>2012-01-29T10:24:32Z</time>
      </trkpt>
      <trkpt lat="43.289890" lon="-2.053450">
        <ele>184.0</ele>
        <time>2012-01-29T10:24:52Z</time>
      </trkpt>
      <trkpt lat="43.289710" lon="-2.053760">
        <ele>203.0</ele>
        <time>2012-01-29T10:25:12Z</time>
      </trkpt>
      <trkpt lat="43.289630" lon="-2.054060">
        <ele>182.0</ele>
        <time>2012-01-29T10:25:32Z</time>
      </trkpt>
      <trkpt lat="43.289580" lon="-2.054340">
        <ele>178.0</ele>
        <time>2012-01-29T10:25:52Z</time>
      </trkpt>
      <trkpt lat="43.289370" lon="-2.054600">
        <ele>184.0</ele>
        <time>2012-01-29T10:26:12Z</time>
      </trkpt>
      <trkpt lat="43.289250" lon="-2.054850">
        <ele>184.0</ele>
        <time>2012-01-29T10:26:32Z</time>
      </trkpt>
      <trkpt lat="43.289070" lon="-2.055020">
        <ele>162.0</ele>
        <time>2012-01-29T10:26:52Z</time>
      </trkpt>
      <trkpt lat="43.288820" lon="-2.055000">
        <ele>162.0</ele>
        <time>2012-01-29T10:27:12Z</time>
      </trkpt>
      <trkpt lat="43.288570" lon="-2.054910">
        <ele>160.0</ele>
        <time>2012-01-29T10:27:32Z</time>
      </trkpt>
      <trkpt lat="43.288360" lon="-2.054690">
        <ele>167.0</ele>
        <time>2012-01-29T10:27:52Z</time>
      </trkpt>
      <trkpt lat="43.288190" lon="-2.054620">
        <ele>156.0</ele>
        <time>2012-01-29T10:28:12Z</time>
      </trkpt>
      <trkpt lat="43.287960" lon="-2.054500">
        <ele>155.0</ele>
        <time>2012-01-29T10:28:32Z</time>
      </trkpt>
      <trkpt lat="43.287730" lon="-2.054440">
        <ele>149.0</ele>
        <time>2012-01-29T10:28:52Z</time>
      </trkpt>
      <trkpt lat="43.287470" lon="-2.054400">
        <ele>142.0</ele>
        <time>2012-01-29T10:29:12Z</time>
      </trkpt>
      <trkpt lat="43.287270" lon="-2.054230">
        <ele>137.0</ele>
        <time>2012-01-29T10:29:32Z</time>
      </trkpt>
      <trkpt lat="43.287090" lon="-2.054020">
        <ele>136.0</ele>
        <time>2012-01-29T10:29:52Z</time>
      </trkpt>
      <trkpt lat="43.286860" lon="-2.053820">
        <ele>131.0</ele>
        <time>2012-01-29T10:30:12Z</time>
      </trkpt>
      <trkpt lat="43.286630" lon="-2.053670">
        <ele>132.0</ele>
        <time>2012-01-29T10:30:32Z</time>
      </trkpt>
      <trkpt lat="43.286390" lon="-2.053560">
        <ele>135.0</ele>
        <time>2012-01-29T10:30:52Z</time>
      </trkpt>
      <trkpt lat="43.286170" lon="-2.053490">
        <ele>129.0</ele>
        <time>2012-01-29T10:31:12Z</time>
      </trkpt>
      <trkpt lat="43.285920" lon="-2.053350">
        <ele>127.0</ele>
        <time>2012-01-29T10:31:32Z</time>
      </trkpt>
      <trkpt lat="43.285660" lon="-2.053290">
        <ele>127.0</ele>
        <time>2012-01-29T10:31:52Z</time>
      </trkpt>
      <trkpt lat="43.285400" lon="-2.053180">
        <ele>134.0</ele>
        <time>2012-01-29T10:32:12Z</time>
      </trkpt>
      <trkpt lat="43.285200" lon="-2.052920">
        <ele>134.0</ele>
        <time>2012-01-29T10:32:32Z</time>
      </trkpt>
      <trkpt lat="43.285010" lon="-2.052660">
        <ele>130.0</ele>
        <time>2012-01-29T10:32:52Z</time>
      </trkpt>
      <trkpt lat="43.284820" lon="-2.052540">
        <ele>122.0</ele>
        <time>2012-01-29T10:33:12Z</time>
      </trkpt>
      <trkpt lat="43.284590" lon="-2.052380">
        <ele>118.0</ele>
        <time>2012-01-29T10:33:32Z</time>
      </trkpt>
      <trkpt lat="43.284370" lon="-2.052320">
        <ele>114.0</ele>
        <time>2012-01-29T10:33:52Z</time>
      </trkpt>
      <trkpt lat="43.284130" lon="-2.052260">
        <ele>111.0</ele>
        <time>2012-01-29T10:34:12Z</time>
      </trkpt>
      <trkpt lat="43.283910" lon="-2.052270">
        <ele>111.0</ele>
        <time>2012-01-29T10:34:32Z</time>
      </trkpt>
      <trkpt lat="43.283700" lon="-2.052280">
        <ele>105.0</ele>
        <time>2012-01-29T10:34:52Z</time>
      </trkpt>
      <trkpt lat="43.283450" lon="-2.052310">
        <ele>102.0</ele>
        <time>2012-01-29T10:35:12Z</time>
      </trkpt>
      <trkpt lat="43.283220" lon="-2.052200">
        <ele>100.0</ele>
        <time>2012-01-29T10:35:32Z</time>
      </trkpt>
      <trkpt lat="43.283000" lon="-2.052060">
        <ele>99.0</ele>
        <time>2012-01-29T10:35:52Z</time>
      </trkpt>
      <trkpt lat="43.282810" lon="-2.051910">
        <ele>95.0</ele>
        <time>2012-01-29T10:36:12Z</time>
      </trkpt>
      <trkpt lat="43.282580" lon="-2.051780">
        <ele>93.0</ele>
        <time>2012-01-29T10:36:32Z</time>
      </trkpt>
      <trkpt lat="43.282320" lon="-2.051670">
        <ele>96.0</ele>
        <time>2012-01-29T10:36:52Z</time>
      </trkpt>
      <trkpt lat="43.282030" lon="-2.051650">
        <ele>101.0</ele>
        <time>2012-01-29T10:37:12Z</time>
      </trkpt>
      <trkpt lat="43.281810" lon="-2.051770">
        <ele>97.0</ele>
        <time>2012-01-29T10:37:32Z</time>
      </trkpt>
      <trkpt lat="43.281610" lon="-2.051960">
        <ele>94.0</ele>
        <time>2012-01-29T10:37:52Z</time>
      </trkpt>
      <trkpt lat="43.281390" lon="-2.052220">
        <ele>98.0</ele>
        <time>2012-01-29T10:38:12Z</time>
      </trkpt>
      <trkpt lat="43.281170" lon="-2.052400">
        <ele>97.0</ele>
        <time>2012-01-29T10:38:32Z</time>
      </trkpt>
      <trkpt lat="43.280910" lon="-2.052440">
        <ele>96.0</ele>
        <time>2012-01-29T10:38:52Z</time>
      </trkpt>
      <trkpt lat="43.280670" lon="-2.052370">
        <ele>92.0</ele>
        <time>2012-01-29T10:39:12Z</time>
      </trkpt>
      <trkpt lat="43.280460" lon="-2.052190">
        <ele>85.0</ele>
        <time>2012-01-29T10:39:32Z</time>
      </trkpt>
      <trkpt lat="43.280150" lon="-2.052060">
        <ele>96.0</ele>
        <time>2012-01-29T10:39:52Z</time>
      </trkpt>
      <trkpt lat="43.280080" lon="-2.052140">
        <ele>96.0</ele>
        <time>2012-01-29T10:40:12Z</time>
      </trkpt>
      <trkpt lat="43.280040" lon="-2.051990">
        <ele>99.0</ele>
        <time>2012-01-29T10:40:32Z</time>
      </trkpt>
      <trkpt lat="43.279870" lon="-2.051800">
        <ele>95.0</ele>
        <time>2012-01-29T10:40:52Z</time>
      </trkpt>
      <trkpt lat="43.279700" lon="-2.051540">
        <ele>91.0</ele>
        <time>2012-01-29T10:41:12Z</time>
      </trkpt>
      <trkpt lat="43.279480" lon="-2.051350">
        <ele>90.0</ele>
        <time>2012-01-29T10:41:32Z</time>
      </trkpt>
      <trkpt lat="43.279230" lon="-2.051220">
        <ele>87.0</ele>
        <time>2012-01-29T10:41:52Z</time>
      </trkpt>
      <trkpt lat="43.279000" lon="-2.051100">
        <ele>88.0</ele>
        <time>2012-01-29T10:42:12Z</time>
      </trkpt>
      <trkpt lat="43.278740" lon="-2.050980">
        <ele>91.0</ele>
        <time>2012-01-29T10:42:32Z</time>
      </trkpt>
      <trkpt lat="43.278550" lon="-2.050660">
        <ele>89.0</ele>
        <time>2012-01-29T10:42:52Z</time>
      </trkpt>
      <trkpt lat="43.278470" lon="-2.050370">
        <ele>88.0</ele>
        <time>2012-01-29T10:43:12Z</time>
      </trkpt>
      <trkpt lat="43.278320" lon="-2.050120">
        <ele>87.0</ele>
        <time>2012-01-29T10:43:32Z</time>
      </trkpt>
      <trkpt lat="43.278160" lon="-2.050010">
        <ele>85.0</ele>
        <time>2012-01-29T10:43:52Z</time>
      </trkpt>
      <trkpt lat="43.278050" lon="-2.049990">
        <ele>84.0</ele>
        <time>2012-01-29T10:44:12Z</time>
      </trkpt>
      <trkpt lat="43.277840" lon="-2.050150">
        <ele>85.0</ele>
        <time>2012-01-29T10:44:32Z</time>
      </trkpt>
      <trkpt lat="43.277630" lon="-2.050350">
        <ele>82.0</ele>
        <time>2012-01-29T10:44:52Z</time>
      </trkpt>
      <trkpt lat="43.277460" lon="-2.050530">
        <ele>77.0</ele>
        <time>2012-01-29T10:45:12Z</time>
      </trkpt>
      <trkpt lat="43.277270" lon="-2.050680">
        <ele>74.0</ele>
        <time>2012-01-29T10:45:32Z</time>
      </trkpt>
      <trkpt lat="43.277050" lon="-2.050800">
        <ele>78.0</ele>
        <time>2012-01-29T10:45:52Z</time>
      </trkpt>
      <trkpt lat="43.276860" lon="-2.050890">
        <ele>75.0</ele>
        <time>2012-01-29T10:46:12Z</time>
      </trkpt>
      <trkpt lat="43.276750" lon="-2.050890">
        <ele>73.0</ele>
        <time>2012-01-29T10:46:32Z</time>
      </trkpt>
      <trkpt lat="43.276440" lon="-2.050970">
        <ele>74.0</ele>
        <time>2012-01-29T10:46:52Z</time>
      </trkpt>
      <trkpt lat="43.276200" lon="-2.051120">
        <ele>71.0</ele>
        <time>2012-01-29T10:47:12Z</time>
      </trkpt>
      <trkpt lat="43.275990" lon="-2.051300">
        <ele>64.0</ele>
        <time>2012-01-29T10:47:32Z</time>
      </trkpt>
      <trkpt lat="43.275750" lon="-2.051390">
        <ele>60.0</ele>
        <time>2012-01-29T10:47:52Z</time>
      </trkpt>
      <trkpt lat="43.275510" lon="-2.051430">
        <ele>56.0</ele>
        <time>2012-01-29T10:48:12Z</time>
      </trkpt>
      <trkpt lat="43.275260" lon="-2.051490">
        <ele>55.0</ele>
        <time>2012-01-29T10:48:32Z</time>
      </trkpt>
      <trkpt lat="43.275030" lon="-2.051550">
        <ele>51.0</ele>
        <time>2012-01-29T10:48:52Z</time>
      </trkpt>
      <trkpt lat="43.274790" lon="-2.051540">
        <ele>50.0</ele>
        <time>2012-01-29T10:49:12Z</time>
      </trkpt>
      <trkpt lat="43.274540" lon="-2.051440">
        <ele>51.0</ele>
        <time>2012-01-29T10:49:32Z</time>
      </trkpt>
      <trkpt lat="43.274310" lon="-2.051260">
        <ele>50.0</ele>
        <time>2012-01-29T10:49:52Z</time>
      </trkpt>
      <trkpt lat="43.274120" lon="-2.051110">
        <ele>50.0</ele>
        <time>2012-01-29T10:50:12Z</time>
      </trkpt>
      <trkpt lat="43.273860" lon="-2.050970">
        <ele>51.0</ele>
        <time>2012-01-29T10:50:32Z</time>
      </trkpt>
      <trkpt lat="43.273670" lon="-2.050800">
        <ele>47.0</ele>
        <time>2012-01-29T10:50:52Z</time>
      </trkpt>
      <trkpt lat="43.273510" lon="-2.050500">
        <ele>44.0</ele>
        <time>2012-01-29T10:51:12Z</time>
      </trkpt>
      <trkpt lat="43.273280" lon="-2.050470">
        <ele>45.0</ele>
        <time>2012-01-29T10:51:32Z</time>
      </trkpt>
      <trkpt lat="43.273080" lon="-2.050440">
        <ele>41.0</ele>
        <time>2012-01-29T10:51:52Z</time>
      </trkpt>
      <trkpt lat="43.272860" lon="-2.050420">
        <ele>36.0</ele>
        <time>2012-01-29T10:52:12Z</time>
      </trkpt>
      <trkpt lat="43.272640" lon="-2.050390">
        <ele>37.0</ele>
        <time>2012-01-29T10:52:32Z</time>
      </trkpt>
      <trkpt lat="43.272400" lon="-2.050300">
        <ele>34.0</ele>
        <time>2012-01-29T10:52:52Z</time>
      </trkpt>
      <trkpt lat="43.272240" lon="-2.050230">
        <ele>35.0</ele>
        <time>2012-01-29T10:53:12Z</time>
      </trkpt>
      <trkpt lat="43.272020" lon="-2.050130">
        <ele>29.0</ele>
        <time>2012-01-29T10:53:32Z</time>
      </trkpt>
      <trkpt lat="43.271780" lon="-2.050020">
        <ele>26.0</ele>
        <time>2012-01-29T10:53:52Z</time>
      </trkpt>
      <trkpt lat="43.271570" lon="-2.049990">
        <ele>21.0</ele>
        <time>2012-01-29T10:54:12Z</time>
      </trkpt>
      <trkpt lat="43.271420" lon="-2.049920">
        <ele>28.0</ele>
        <time>2012-01-29T10:54:32Z</time>
      </trkpt>
      <trkpt lat="43.271140" lon="-2.050050">
        <ele>32.0</ele>
        <time>2012-01-29T10:54:54Z</time>
      </trkpt>
      <trkpt lat="43.270890" lon="-2.050220">
        <ele>35.0</ele>
        <time>2012-01-29T10:55:14Z</time>
      </trkpt>
      <trkpt lat="43.270750" lon="-2.050340">
        <ele>34.0</ele>
        <time>2012-01-29T10:55:34Z</time>
      </trkpt>
      <trkpt lat="43.270540" lon="-2.050200">
        <ele>37.0</ele>
        <time>2012-01-29T10:55:58Z</time>
      </trkpt>
      <trkpt lat="43.270510" lon="-2.050150">
        <ele>53.0</ele>
        <time>2012-01-29T10:56:25Z</time>
      </trkpt>
      <trkpt lat="43.270190" lon="-2.050240">
        <ele>51.0</ele>
        <time>2012-01-29T10:56:52Z</time>
      </trkpt>
      <trkpt lat="43.269970" lon="-2.049950">
        <ele>31.0</ele>
        <time>2012-01-29T10:57:28Z</time>
      </trkpt>
      <trkpt lat="43.269810" lon="-2.049930">
        <ele>26.0</ele>
        <time>2012-01-29T10:57:48Z</time>
      </trkpt>
      <trkpt lat="43.269810" lon="-2.049710">
        <ele>18.0</ele>
        <time>2012-01-29T10:58:08Z</time>
      </trkpt>
      <trkpt lat="43.269790" lon="-2.049430">
        <ele>13.0</ele>
        <time>2012-01-29T10:58:28Z</time>
      </trkpt>
      <trkpt lat="43.269570" lon="-2.049280">
        <ele>16.0</ele>
        <time>2012-01-29T10:58:48Z</time>
      </trkpt>
      <trkpt lat="43.269390" lon="-2.049030">
        <ele>39.0</ele>
        <time>2012-01-29T10:59:10Z</time>
      </trkpt>
      <trkpt lat="43.269150" lon="-2.048810">
        <ele>44.0</ele>
        <time>2012-01-29T10:59:30Z</time>
      </trkpt>
      <trkpt lat="43.268940" lon="-2.048810">
        <ele>27.0</ele>
        <time>2012-01-29T10:59:52Z</time>
      </trkpt>
      <trkpt lat="43.268660" lon="-2.048790">
        <ele>23.0</ele>
        <time>2012-01-29T11:00:12Z</time>
      </trkpt>
      <trkpt lat="43.268430" lon="-2.048800">
        <ele>23.0</ele>
        <time>2012-01-29T11:00:32Z</time>
      </trkpt>
      <trkpt lat="43.268220" lon="-2.048770">
        <ele>18.0</ele>
        <time>2012-01-29T11:00:52Z</time>
      </trkpt>
      <trkpt lat="43.268000" lon="-2.048800">
        <ele>21.0</ele>
        <time>2012-01-29T11:01:12Z</time>
      </trkpt>
      <trkpt lat="43.267690" lon="-2.048830">
        <ele>28.0</ele>
        <time>2012-01-29T11:01:32Z</time>
      </trkpt>
      <trkpt lat="43.267510" lon="-2.049010">
        <ele>25.0</ele>
        <time>2012-01-29T11:01:52Z</time>
      </trkpt>
      <trkpt lat="43.267350" lon="-2.049180">
        <ele>19.0</ele>
        <time>2012-01-29T11:02:12Z</time>
      </trkpt>
      <trkpt lat="43.267140" lon="-2.049190">
        <ele>17.0</ele>
        <time>2012-01-29T11:02:32Z</time>
      </trkpt>
      <trkpt lat="43.266970" lon="-2.049320">
        <ele>13.0</ele>
        <time>2012-01-29T11:02:52Z</time>
      </trkpt>
      <trkpt lat="43.266830" lon="-2.049530">
        <ele>9.0</ele>
        <time>2012-01-29T11:03:12Z</time>
      </trkpt>
      <trkpt lat="43.266690" lon="-2.049780">
        <ele>6.0</ele>
        <time>2012-01-29T11:03:32Z</time>
      </trkpt>
      <trkpt lat="43.266660" lon="-2.050090">
        <ele>-2.0</ele>
        <time>2012-01-29T11:03:52Z</time>
      </trkpt>
      <trkpt lat="43.266790" lon="-2.050340">
        <ele>2.0</ele>
        <time>2012-01-29T11:04:12Z</time>
      </trkpt>
      <trkpt lat="43.266950" lon="-2.050570">
        <ele>8.0</ele>
        <time>2012-01-29T11:04:32Z</time>
      </trkpt>
      <trkpt lat="43.267140" lon="-2.050780">
        <ele>11.0</ele>
        <time>2012-01-29T11:04:52Z</time>
      </trkpt>
      <trkpt lat="43.267380" lon="-2.050990">
        <ele>9.0</ele>
        <time>2012-01-29T11:05:12Z</time>
      </trkpt>
      <trkpt lat="43.267600" lon="-2.051170">
        <ele>10.0</ele>
        <time>2012-01-29T11:05:32Z</time>
      </trkpt>
      <trkpt lat="43.267750" lon="-2.051300">
        <ele>17.0</ele>
        <time>2012-01-29T11:05:52Z</time>
      </trkpt>
      <trkpt lat="43.267960" lon="-2.051490">
        <ele>15.0</ele>
        <time>2012-01-29T11:06:12Z</time>
      </trkpt>
      <trkpt lat="43.267990" lon="-2.051510">
        <ele>12.0</ele>
        <time>2012-01-29T11:06:32Z</time>
      </trkpt>
      <trkpt lat="43.268010" lon="-2.051530">
        <ele>13.0</ele>
        <time>2012-01-29T11:06:52Z</time>
      </trkpt>
      <trkpt lat="43.268040" lon="-2.051620">
        <ele>20.0</ele>
        <time>2012-01-29T11:07:12Z</time>
      </trkpt>
      <trkpt lat="43.268060" lon="-2.051610">
        <ele>20.0</ele>
        <time>2012-01-29T11:07:32Z</time>
      </trkpt>
      <trkpt lat="43.268110" lon="-2.051660">
        <ele>17.0</ele>
        <time>2012-01-29T11:07:52Z</time>
      </trkpt>
      <trkpt lat="43.268120" lon="-2.051770">
        <ele>15.0</ele>
        <time>2012-01-29T11:08:12Z</time>
      </trkpt>
      <trkpt lat="43.268000" lon="-2.052040">
        <ele>14.0</ele>
        <time>2012-01-29T11:08:32Z</time>
      </trkpt>
      <trkpt lat="43.267880" lon="-2.052300">
        <ele>15.0</ele>
        <time>2012-01-29T11:08:52Z</time>
      </trkpt>
      <trkpt lat="43.267780" lon="-2.052580">
        <ele>23.0</ele>
        <time>2012-01-29T11:09:12Z</time>
      </trkpt>
      <trkpt lat="43.267610" lon="-2.052870">
        <ele>21.0</ele>
        <time>2012-01-29T11:09:32Z</time>
      </trkpt>
      <trkpt lat="43.267460" lon="-2.053180">
        <ele>23.0</ele>
        <time>2012-01-29T11:09:52Z</time>
      </trkpt>
      <trkpt lat="43.267310" lon="-2.053410">
        <ele>14.0</ele>
        <time>2012-01-29T11:10:12Z</time>
      </trkpt>
      <trkpt lat="43.267150" lon="-2.053690">
        <ele>7.0</ele>
        <time>2012-01-29T11:10:32Z</time>
      </trkpt>
      <trkpt lat="43.266980" lon="-2.054040">
        <ele>9.0</ele>
        <time>2012-01-29T11:10:52Z</time>
      </trkpt>
      <trkpt lat="43.266840" lon="-2.054370">
        <ele>10.0</ele>
        <time>2012-01-29T11:11:12Z</time>
      </trkpt>
      <trkpt lat="43.266740" lon="-2.054720">
        <ele>12.0</ele>
        <time>2012-01-29T11:11:32Z</time>
      </trkpt>
      <trkpt lat="43.266620" lon="-2.055020">
        <ele>10.0</ele>
        <time>2012-01-29T11:11:52Z</time>
      </trkpt>
      <trkpt lat="43.266490" lon="-2.055320">
        <ele>12.0</ele>
        <time>2012-01-29T11:12:12Z</time>
      </trkpt>
      <trkpt lat="43.266390" lon="-2.055570">
        <ele>11.0</ele>
        <time>2012-01-29T11:12:32Z</time>
      </trkpt>
      <trkpt lat="43.266280" lon="-2.055800">
        <ele>2.0</ele>
        <time>2012-01-29T11:12:52Z</time>
      </trkpt>
      <trkpt lat="43.266190" lon="-2.055970">
        <ele>3.0</ele>
        <time>2012-01-29T11:13:12Z</time>
      </trkpt>
      <trkpt lat="43.266130" lon="-2.055990">
        <ele>6.0</ele>
        <time>2012-01-29T11:13:32Z</time>
      </trkpt>
      <trkpt lat="43.266120" lon="-2.056310">
        <ele>16.0</ele>
        <time>2012-01-29T11:25:38Z</time>
      </trkpt>
      <trkpt lat="43.266120" lon="-2.056600">
        <ele>15.0</ele>
        <time>2012-01-29T11:25:58Z</time>
      </trkpt>
      <trkpt lat="43.266090" lon="-2.056870">
        <ele>8.0</ele>
        <time>2012-01-29T11:26:46Z</time>
      </trkpt>
      <trkpt lat="43.266030" lon="-2.056920">
        <ele>17.0</ele>
        <time>2012-01-29T11:26:55Z</time>
      </trkpt>
      <trkpt lat="43.266150" lon="-2.056680">
        <ele>-9.0</ele>
        <time>2012-03-10T07:26:52Z</time>
      </trkpt>
      <trkpt lat="43.266090" lon="-2.056770">
        <ele>1.0</ele>
        <time>2012-03-10T07:27:11Z</time>
      </trkpt>
      <trkpt lat="43.266010" lon="-2.056950">
        <ele>11.0</ele>
        <time>2012-03-10T07:27:31Z</time>
      </trkpt>
      <trkpt lat="43.266020" lon="-2.057200">
        <ele>14.0</ele>
        <time>2012-03-10T07:27:51Z</time>
      </trkpt>
      <trkpt lat="43.266100" lon="-2.057380">
        <ele>18.0</ele>
        <time>2012-03-10T07:28:11Z</time>
      </trkpt>
      <trkpt lat="43.266150" lon="-2.057540">
        <ele>17.0</ele>
        <time>2012-03-10T07:28:31Z</time>
      </trkpt>
      <trkpt lat="43.266330" lon="-2.057710">
        <ele>25.0</ele>
        <time>2012-03-10T07:28:51Z</time>
      </trkpt>
      <trkpt lat="43.266400" lon="-2.057850">
        <ele>37.0</ele>
        <time>2012-03-10T07:29:11Z</time>
      </trkpt>
      <trkpt lat="43.266380" lon="-2.058010">
        <ele>32.0</ele>
        <time>2012-03-10T07:29:31Z</time>
      </trkpt>
      <trkpt lat="43.266320" lon="-2.058200">
        <ele>44.0</ele>
        <time>2012-03-10T07:29:51Z</time>
      </trkpt>
      <trkpt lat="43.266240" lon="-2.058340">
        <ele>61.0</ele>
        <time>2012-03-10T07:30:11Z</time>
      </trkpt>
      <trkpt lat="43.266400" lon="-2.058430">
        <ele>45.0</ele>
        <time>2012-03-10T07:30:31Z</time>
      </trkpt>
      <trkpt lat="43.266500" lon="-2.058520">
        <ele>50.0</ele>
        <time>2012-03-10T07:30:51Z</time>
      </trkpt>
      <trkpt lat="43.266620" lon="-2.058660">
        <ele>49.0</ele>
        <time>2012-03-10T07:31:11Z</time>
      </trkpt>
      <trkpt lat="43.266740" lon="-2.058740">
        <ele>54.0</ele>
        <time>2012-03-10T07:31:31Z</time>
      </trkpt>
      <trkpt lat="43.266740" lon="-2.058870">
        <ele>62.0</ele>
        <time>2012-03-10T07:31:51Z</time>
      </trkpt>
      <trkpt lat="43.266770" lon="-2.058990">
        <ele>65.0</ele>
        <time>2012-03-10T07:32:11Z</time>
      </trkpt>
      <trkpt lat="43.266850" lon="-2.059160">
        <ele>69.0</ele>
        <time>2012-03-10T07:32:31Z</time>
      </trkpt>
      <trkpt lat="43.266860" lon="-2.059300">
        <ele>71.0</ele>
        <time>2012-03-10T07:32:52Z</time>
      </trkpt>
      <trkpt lat="43.266780" lon="-2.059320">
        <ele>78.0</ele>
        <time>2012-03-10T07:33:12Z</time>
      </trkpt>
      <trkpt lat="43.266830" lon="-2.059460">
        <ele>83.0</ele>
        <time>2012-03-10T07:33:32Z</time>
      </trkpt>
      <trkpt lat="43.266780" lon="-2.059550">
        <ele>84.0</ele>
        <time>2012-03-10T07:33:52Z</time>
      </trkpt>
      <trkpt lat="43.266830" lon="-2.059600">
        <ele>89.0</ele>
        <time>2012-03-10T07:34:12Z</time>
      </trkpt>
      <trkpt lat="43.266900" lon="-2.059760">
        <ele>97.0</ele>
        <time>2012-03-10T07:34:32Z</time>
      </trkpt>
      <trkpt lat="43.266850" lon="-2.059820">
        <ele>94.0</ele>
        <time>2012-03-10T07:34:52Z</time>
      </trkpt>
      <trkpt lat="43.266860" lon="-2.059960">
        <ele>97.0</ele>
        <time>2012-03-10T07:35:12Z</time>
      </trkpt>
      <trkpt lat="43.266800" lon="-2.060130">
        <ele>106.0</ele>
        <time>2012-03-10T07:35:32Z</time>
      </trkpt>
      <trkpt lat="43.266700" lon="-2.060330">
        <ele>108.0</ele>
        <time>2012-03-10T07:35:52Z</time>
      </trkpt>
      <trkpt lat="43.266520" lon="-2.060480">
        <ele>102.0</ele>
        <time>2012-03-10T07:36:11Z</time>
      </trkpt>
      <trkpt lat="43.266310" lon="-2.060550">
        <ele>96.0</ele>
        <time>2012-03-10T07:36:31Z</time>
      </trkpt>
      <trkpt lat="43.266090" lon="-2.060590">
        <ele>89.0</ele>
        <time>2012-03-10T07:36:51Z</time>
      </trkpt>
      <trkpt lat="43.265830" lon="-2.060620">
        <ele>91.0</ele>
        <time>2012-03-10T07:37:11Z</time>
      </trkpt>
      <trkpt lat="43.265590" lon="-2.060660">
        <ele>91.0</ele>
        <time>2012-03-10T07:37:31Z</time>
      </trkpt>
      <trkpt lat="43.265340" lon="-2.060720">
        <ele>91.0</ele>
        <time>2012-03-10T07:37:51Z</time>
      </trkpt>
      <trkpt lat="43.265120" lon="-2.060790">
        <ele>90.0</ele>
        <time>2012-03-10T07:38:11Z</time>
      </trkpt>
      <trkpt lat="43.264950" lon="-2.060990">
        <ele>93.0</ele>
        <time>2012-03-10T07:38:31Z</time>
      </trkpt>
      <trkpt lat="43.264770" lon="-2.061220">
        <ele>96.0</ele>
        <time>2012-03-10T07:38:51Z</time>
      </trkpt>
      <trkpt lat="43.264580" lon="-2.061410">
        <ele>99.0</ele>
        <time>2012-03-10T07:39:11Z</time>
      </trkpt>
      <trkpt lat="43.264390" lon="-2.061500">
        <ele>102.0</ele>
        <time>2012-03-10T07:39:31Z</time>
      </trkpt>
      <trkpt lat="43.264190" lon="-2.061510">
        <ele>106.0</ele>
        <time>2012-03-10T07:39:51Z</time>
      </trkpt>
      <trkpt lat="43.264010" lon="-2.061510">
        <ele>108.0</ele>
        <time>2012-03-10T07:40:11Z</time>
      </trkpt>
      <trkpt lat="43.263840" lon="-2.061540">
        <ele>113.0</ele>
        <time>2012-03-10T07:40:31Z</time>
      </trkpt>
      <trkpt lat="43.263660" lon="-2.061680">
        <ele>115.0</ele>
        <time>2012-03-10T07:40:51Z</time>
      </trkpt>
      <trkpt lat="43.263460" lon="-2.061840">
        <ele>118.0</ele>
        <time>2012-03-10T07:41:11Z</time>
      </trkpt>
      <trkpt lat="43.263240" lon="-2.061960">
        <ele>124.0</ele>
        <time>2012-03-10T07:41:31Z</time>
      </trkpt>
      <trkpt lat="43.263030" lon="-2.062080">
        <ele>124.0</ele>
        <time>2012-03-10T07:41:51Z</time>
      </trkpt>
      <trkpt lat="43.262870" lon="-2.062160">
        <ele>124.0</ele>
        <time>2012-03-10T07:42:11Z</time>
      </trkpt>
      <trkpt lat="43.262690" lon="-2.062300">
        <ele>126.0</ele>
        <time>2012-03-10T07:42:31Z</time>
      </trkpt>
      <trkpt lat="43.262510" lon="-2.062430">
        <ele>129.0</ele>
        <time>2012-03-10T07:42:51Z</time>
      </trkpt>
      <trkpt lat="43.262330" lon="-2.062570">
        <ele>135.0</ele>
        <time>2012-03-10T07:43:11Z</time>
      </trkpt>
      <trkpt lat="43.262190" lon="-2.062680">
        <ele>138.0</ele>
        <time>2012-03-10T07:43:31Z</time>
      </trkpt>
      <trkpt lat="43.262030" lon="-2.062760">
        <ele>143.0</ele>
        <time>2012-03-10T07:43:51Z</time>
      </trkpt>
      <trkpt lat="43.261840" lon="-2.062810">
        <ele>144.0</ele>
        <time>2012-03-10T07:44:11Z</time>
      </trkpt>
      <trkpt lat="43.261630" lon="-2.062880">
        <ele>144.0</ele>
        <time>2012-03-10T07:44:31Z</time>
      </trkpt>
      <trkpt lat="43.261390" lon="-2.063040">
        <ele>147.0</ele>
        <time>2012-03-10T07:44:51Z</time>
      </trkpt>
      <trkpt lat="43.261170" lon="-2.063200">
        <ele>147.0</ele>
        <time>2012-03-10T07:45:11Z</time>
      </trkpt>
      <trkpt lat="43.260970" lon="-2.063290">
        <ele>147.0</ele>
        <time>2012-03-10T07:45:31Z</time>
      </trkpt>
      <trkpt lat="43.260750" lon="-2.063430">
        <ele>154.0</ele>
        <time>2012-03-10T07:45:51Z</time>
      </trkpt>
      <trkpt lat="43.260540" lon="-2.063560">
        <ele>163.0</ele>
        <time>2012-03-10T07:46:11Z</time>
      </trkpt>
      <trkpt lat="43.260310" lon="-2.063600">
        <ele>166.0</ele>
        <time>2012-03-10T07:46:31Z</time>
      </trkpt>
      <trkpt lat="43.260090" lon="-2.063620">
        <ele>164.0</ele>
        <time>2012-03-10T07:46:51Z</time>
      </trkpt>
      <trkpt lat="43.259880" lon="-2.063530">
        <ele>161.0</ele>
        <time>2012-03-10T07:47:11Z</time>
      </trkpt>
      <trkpt lat="43.259670" lon="-2.063430">
        <ele>157.0</ele>
        <time>2012-03-10T07:47:31Z</time>
      </trkpt>
      <trkpt lat="43.259510" lon="-2.063560">
        <ele>165.0</ele>
        <time>2012-03-10T07:47:51Z</time>
      </trkpt>
      <trkpt lat="43.259450" lon="-2.063780">
        <ele>170.0</ele>
        <time>2012-03-10T07:48:11Z</time>
      </trkpt>
      <trkpt lat="43.259390" lon="-2.064000">
        <ele>173.0</ele>
        <time>2012-03-10T07:48:31Z</time>
      </trkpt>
      <trkpt lat="43.259310" lon="-2.064190">
        <ele>174.0</ele>
        <time>2012-03-10T07:48:51Z</time>
      </trkpt>
      <trkpt lat="43.259190" lon="-2.064200">
        <ele>176.0</ele>
        <time>2012-03-10T07:49:11Z</time>
      </trkpt>
      <trkpt lat="43.259170" lon="-2.064180">
        <ele>176.0</ele>
        <time>2012-03-10T07:49:31Z</time>
      </trkpt>
      <trkpt lat="43.259110" lon="-2.064180">
        <ele>179.0</ele>
        <time>2012-03-10T07:49:51Z</time>
      </trkpt>
      <trkpt lat="43.259010" lon="-2.064230">
        <ele>180.0</ele>
        <time>2012-03-10T07:50:11Z</time>
      </trkpt>
      <trkpt lat="43.258860" lon="-2.064250">
        <ele>182.0</ele>
        <time>2012-03-10T07:50:31Z</time>
      </trkpt>
      <trkpt lat="43.258690" lon="-2.064180">
        <ele>185.0</ele>
        <time>2012-03-10T07:50:51Z</time>
      </trkpt>
      <trkpt lat="43.258580" lon="-2.063990">
        <ele>188.0</ele>
        <time>2012-03-10T07:51:11Z</time>
      </trkpt>
      <trkpt lat="43.258530" lon="-2.063760">
        <ele>190.0</ele>
        <time>2012-03-10T07:51:31Z</time>
      </trkpt>
      <trkpt lat="43.258540" lon="-2.063460">
        <ele>194.0</ele>
        <time>2012-03-10T07:51:51Z</time>
      </trkpt>
      <trkpt lat="43.258540" lon="-2.063150">
        <ele>194.0</ele>
        <time>2012-03-10T07:52:11Z</time>
      </trkpt>
      <trkpt lat="43.258510" lon="-2.062820">
        <ele>197.0</ele>
        <time>2012-03-10T07:52:31Z</time>
      </trkpt>
      <trkpt lat="43.258390" lon="-2.062560">
        <ele>200.0</ele>
        <time>2012-03-10T07:52:51Z</time>
      </trkpt>
      <trkpt lat="43.258350" lon="-2.062290">
        <ele>203.0</ele>
        <time>2012-03-10T07:53:11Z</time>
      </trkpt>
      <trkpt lat="43.258420" lon="-2.061920">
        <ele>202.0</ele>
        <time>2012-03-10T07:53:31Z</time>
      </trkpt>
      <trkpt lat="43.258530" lon="-2.061650">
        <ele>200.0</ele>
        <time>2012-03-10T07:53:51Z</time>
      </trkpt>
      <trkpt lat="43.258730" lon="-2.061440">
        <ele>202.0</ele>
        <time>2012-03-10T07:54:11Z</time>
      </trkpt>
      <trkpt lat="43.258940" lon="-2.061270">
        <ele>203.0</ele>
        <time>2012-03-10T07:54:31Z</time>
      </trkpt>
      <trkpt lat="43.259140" lon="-2.061080">
        <ele>203.0</ele>
        <time>2012-03-10T07:54:51Z</time>
      </trkpt>
      <trkpt lat="43.259320" lon="-2.060800">
        <ele>206.0</ele>
        <time>2012-03-10T07:55:17Z</time>
      </trkpt>
      <trkpt lat="43.259290" lon="-2.060540">
        <ele>204.0</ele>
        <time>2012-03-10T07:55:37Z</time>
      </trkpt>
      <trkpt lat="43.259200" lon="-2.060250">
        <ele>207.0</ele>
        <time>2012-03-10T07:55:57Z</time>
      </trkpt>
      <trkpt lat="43.259050" lon="-2.060020">
        <ele>213.0</ele>
        <time>2012-03-10T07:56:17Z</time>
      </trkpt>
      <trkpt lat="43.258850" lon="-2.059880">
        <ele>217.0</ele>
        <time>2012-03-10T07:56:37Z</time>
      </trkpt>
      <trkpt lat="43.258660" lon="-2.059670">
        <ele>220.0</ele>
        <time>2012-03-10T07:56:59Z</time>
      </trkpt>
      <trkpt lat="43.258480" lon="-2.059530">
        <ele>217.0</ele>
        <time>2012-03-10T07:57:19Z</time>
      </trkpt>
      <trkpt lat="43.258370" lon="-2.059220">
        <ele>218.0</ele>
        <time>2012-03-10T07:57:39Z</time>
      </trkpt>
      <trkpt lat="43.258220" lon="-2.058960">
        <ele>215.0</ele>
        <time>2012-03-10T07:57:59Z</time>
      </trkpt>
      <trkpt lat="43.258010" lon="-2.058880">
        <ele>209.0</ele>
        <time>2012-03-10T07:58:19Z</time>
      </trkpt>
      <trkpt lat="43.257780" lon="-2.058840">
        <ele>208.0</ele>
        <time>2012-03-10T07:58:39Z</time>
      </trkpt>
      <trkpt lat="43.257530" lon="-2.058740">
        <ele>213.0</ele>
        <time>2012-03-10T07:58:59Z</time>
      </trkpt>
      <trkpt lat="43.257330" lon="-2.058770">
        <ele>212.0</ele>
        <time>2012-03-10T07:59:19Z</time>
      </trkpt>
      <trkpt lat="43.257090" lon="-2.058940">
        <ele>208.0</ele>
        <time>2012-03-10T07:59:39Z</time>
      </trkpt>
      <trkpt lat="43.256860" lon="-2.059050">
        <ele>219.0</ele>
        <time>2012-03-10T07:59:59Z</time>
      </trkpt>
      <trkpt lat="43.256730" lon="-2.058770">
        <ele>233.0</ele>
        <time>2012-03-10T08:00:19Z</time>
      </trkpt>
      <trkpt lat="43.256770" lon="-2.058470">
        <ele>236.0</ele>
        <time>2012-03-10T08:00:39Z</time>
      </trkpt>
      <trkpt lat="43.256870" lon="-2.058190">
        <ele>238.0</ele>
        <time>2012-03-10T08:00:59Z</time>
      </trkpt>
      <trkpt lat="43.256900" lon="-2.057910">
        <ele>233.0</ele>
        <time>2012-03-10T08:01:19Z</time>
      </trkpt>
      <trkpt lat="43.257000" lon="-2.057580">
        <ele>238.0</ele>
        <time>2012-03-10T08:01:39Z</time>
      </trkpt>
      <trkpt lat="43.257090" lon="-2.057330">
        <ele>237.0</ele>
        <time>2012-03-10T08:01:59Z</time>
      </trkpt>
      <trkpt lat="43.257190" lon="-2.057070">
        <ele>243.0</ele>
        <time>2012-03-10T08:02:19Z</time>
      </trkpt>
      <trkpt lat="43.257170" lon="-2.056830">
        <ele>248.0</ele>
        <time>2012-03-10T08:02:39Z</time>
      </trkpt>
      <trkpt lat="43.257060" lon="-2.056850">
        <ele>242.0</ele>
        <time>2012-03-10T08:02:59Z</time>
      </trkpt>
      <trkpt lat="43.256900" lon="-2.056990">
        <ele>237.0</ele>
        <time>2012-03-10T08:03:20Z</time>
      </trkpt>
      <trkpt lat="43.256720" lon="-2.057230">
        <ele>242.0</ele>
        <time>2012-03-10T08:03:40Z</time>
      </trkpt>
      <trkpt lat="43.256580" lon="-2.057420">
        <ele>246.0</ele>
        <time>2012-03-10T08:04:00Z</time>
      </trkpt>
      <trkpt lat="43.256440" lon="-2.057600">
        <ele>251.0</ele>
        <time>2012-03-10T08:04:20Z</time>
      </trkpt>
      <trkpt lat="43.256330" lon="-2.057740">
        <ele>259.0</ele>
        <time>2012-03-10T08:04:40Z</time>
      </trkpt>
      <trkpt lat="43.256210" lon="-2.057910">
        <ele>260.0</ele>
        <time>2012-03-10T08:05:00Z</time>
      </trkpt>
      <trkpt lat="43.256080" lon="-2.058110">
        <ele>267.0</ele>
        <time>2012-03-10T08:05:20Z</time>
      </trkpt>
      <trkpt lat="43.256030" lon="-2.058320">
        <ele>268.0</ele>
        <time>2012-03-10T08:05:40Z</time>
      </trkpt>
      <trkpt lat="43.255900" lon="-2.058530">
        <ele>270.0</ele>
        <time>2012-03-10T08:06:00Z</time>
      </trkpt>
      <trkpt lat="43.255760" lon="-2.058690">
        <ele>275.0</ele>
        <time>2012-03-10T08:06:20Z</time>
      </trkpt>
      <trkpt lat="43.255650" lon="-2.058840">
        <ele>277.0</ele>
        <time>2012-03-10T08:06:40Z</time>
      </trkpt>
      <trkpt lat="43.255500" lon="-2.058970">
        <ele>283.0</ele>
        <time>2012-03-10T08:07:00Z</time>
      </trkpt>
      <trkpt lat="43.255360" lon="-2.059020">
        <ele>285.0</ele>
        <time>2012-03-10T08:07:20Z</time>
      </trkpt>
      <trkpt lat="43.255190" lon="-2.059000">
        <ele>287.0</ele>
        <time>2012-03-10T08:07:40Z</time>
      </trkpt>
      <trkpt lat="43.255040" lon="-2.059030">
        <ele>287.0</ele>
        <time>2012-03-10T08:08:00Z</time>
      </trkpt>
      <trkpt lat="43.254910" lon="-2.059040">
        <ele>286.0</ele>
        <time>2012-03-10T08:08:20Z</time>
      </trkpt>
      <trkpt lat="43.254790" lon="-2.059060">
        <ele>288.0</ele>
        <time>2012-03-10T08:08:40Z</time>
      </trkpt>
      <trkpt lat="43.254670" lon="-2.059070">
        <ele>290.0</ele>
        <time>2012-03-10T08:09:00Z</time>
      </trkpt>
      <trkpt lat="43.254540" lon="-2.059090">
        <ele>290.0</ele>
        <time>2012-03-10T08:09:20Z</time>
      </trkpt>
      <trkpt lat="43.254420" lon="-2.059090">
        <ele>290.0</ele>
        <time>2012-03-10T08:09:40Z</time>
      </trkpt>
      <trkpt lat="43.254280" lon="-2.059100">
        <ele>292.0</ele>
        <time>2012-03-10T08:10:00Z</time>
      </trkpt>
      <trkpt lat="43.254140" lon="-2.059140">
        <ele>295.0</ele>
        <time>2012-03-10T08:10:20Z</time>
      </trkpt>
      <trkpt lat="43.253940" lon="-2.059170">
        <ele>302.0</ele>
        <time>2012-03-10T08:10:40Z</time>
      </trkpt>
      <trkpt lat="43.253780" lon="-2.059250">
        <ele>306.0</ele>
        <time>2012-03-10T08:11:00Z</time>
      </trkpt>
      <trkpt lat="43.253630" lon="-2.059290">
        <ele>309.0</ele>
        <time>2012-03-10T08:11:20Z</time>
      </trkpt>
      <trkpt lat="43.253450" lon="-2.059310">
        <ele>313.0</ele>
        <time>2012-03-10T08:11:40Z</time>
      </trkpt>
      <trkpt lat="43.253310" lon="-2.059360">
        <ele>308.0</ele>
        <time>2012-03-10T08:12:00Z</time>
      </trkpt>
      <trkpt lat="43.253110" lon="-2.059420">
        <ele>317.0</ele>
        <time>2012-03-10T08:12:20Z</time>
      </trkpt>
      <trkpt lat="43.252970" lon="-2.059460">
        <ele>318.0</ele>
        <time>2012-03-10T08:12:40Z</time>
      </trkpt>
      <trkpt lat="43.252830" lon="-2.059430">
        <ele>320.0</ele>
        <time>2012-03-10T08:13:00Z</time>
      </trkpt>
      <trkpt lat="43.252640" lon="-2.059450">
        <ele>329.0</ele>
        <time>2012-03-10T08:13:20Z</time>
      </trkpt>
      <trkpt lat="43.252560" lon="-2.059570">
        <ele>335.0</ele>
        <time>2012-03-10T08:13:40Z</time>
      </trkpt>
      <trkpt lat="43.252560" lon="-2.059680">
        <ele>334.0</ele>
        <time>2012-03-10T08:14:00Z</time>
      </trkpt>
      <trkpt lat="43.252570" lon="-2.059910">
        <ele>334.0</ele>
        <time>2012-03-10T08:14:20Z</time>
      </trkpt>
      <trkpt lat="43.252660" lon="-2.060160">
        <ele>333.0</ele>
        <time>2012-03-10T08:14:40Z</time>
      </trkpt>
      <trkpt lat="43.252830" lon="-2.060380">
        <ele>340.0</ele>
        <time>2012-03-10T08:15:00Z</time>
      </trkpt>
      <trkpt lat="43.252990" lon="-2.060600">
        <ele>340.0</ele>
        <time>2012-03-10T08:15:20Z</time>
      </trkpt>
      <trkpt lat="43.253110" lon="-2.060830">
        <ele>336.0</ele>
        <time>2012-03-10T08:15:40Z</time>
      </trkpt>
      <trkpt lat="43.253050" lon="-2.060820">
        <ele>345.0</ele>
        <time>2012-03-10T08:16:00Z</time>
      </trkpt>
      <trkpt lat="43.252890" lon="-2.060610">
        <ele>355.0</ele>
        <time>2012-03-10T08:16:20Z</time>
      </trkpt>
      <trkpt lat="43.252670" lon="-2.060490">
        <ele>354.0</ele>
        <time>2012-03-10T08:16:40Z</time>
      </trkpt>
      <trkpt lat="43.252460" lon="-2.060330">
        <ele>356.0</ele>
        <time>2012-03-10T08:17:00Z</time>
      </trkpt>
      <trkpt lat="43.252370" lon="-2.060270">
        <ele>355.0</ele>
        <time>2012-03-10T08:17:20Z</time>
      </trkpt>
      <trkpt lat="43.252350" lon="-2.060260">
        <ele>357.0</ele>
        <time>2012-03-10T08:17:40Z</time>
      </trkpt>
      <trkpt lat="43.252340" lon="-2.060260">
        <ele>358.0</ele>
        <time>2012-03-10T08:18:00Z</time>
      </trkpt>
      <trkpt lat="43.252260" lon="-2.060140">
        <ele>363.0</ele>
        <time>2012-03-10T08:18:20Z</time>
      </trkpt>
      <trkpt lat="43.252090" lon="-2.060130">
        <ele>355.0</ele>
        <time>2012-03-10T08:18:40Z</time>
      </trkpt>
      <trkpt lat="43.251910" lon="-2.059990">
        <ele>355.0</ele>
        <time>2012-03-10T08:19:00Z</time>
      </trkpt>
      <trkpt lat="43.251700" lon="-2.059960">
        <ele>351.0</ele>
        <time>2012-03-10T08:19:20Z</time>
      </trkpt>
      <trkpt lat="43.251490" lon="-2.060020">
        <ele>351.0</ele>
        <time>2012-03-10T08:19:40Z</time>
      </trkpt>
      <trkpt lat="43.251260" lon="-2.060080">
        <ele>348.0</ele>
        <time>2012-03-10T08:20:00Z</time>
      </trkpt>
      <trkpt lat="43.251010" lon="-2.060070">
        <ele>350.0</ele>
        <time>2012-03-10T08:20:20Z</time>
      </trkpt>
      <trkpt lat="43.250770" lon="-2.060080">
        <ele>364.0</ele>
        <time>2012-03-10T08:20:40Z</time>
      </trkpt>
      <trkpt lat="43.250510" lon="-2.060130">
        <ele>368.0</ele>
        <time>2012-03-10T08:21:00Z</time>
      </trkpt>
      <trkpt lat="43.250280" lon="-2.060210">
        <ele>363.0</ele>
        <time>2012-03-10T08:21:20Z</time>
      </trkpt>
      <trkpt lat="43.250080" lon="-2.060330">
        <ele>359.0</ele>
        <time>2012-03-10T08:21:40Z</time>
      </trkpt>
      <trkpt lat="43.249800" lon="-2.060530">
        <ele>368.0</ele>
        <time>2012-03-10T08:22:00Z</time>
      </trkpt>
      <trkpt lat="43.249590" lon="-2.060750">
        <ele>375.0</ele>
        <time>2012-03-10T08:22:20Z</time>
      </trkpt>
      <trkpt lat="43.249420" lon="-2.061000">
        <ele>376.0</ele>
        <time>2012-03-10T08:22:40Z</time>
      </trkpt>
      <trkpt lat="43.249240" lon="-2.061250">
        <ele>374.0</ele>
        <time>2012-03-10T08:23:00Z</time>
      </trkpt>
      <trkpt lat="43.249130" lon="-2.061440">
        <ele>380.0</ele>
        <time>2012-03-10T08:23:20Z</time>
      </trkpt>
      <trkpt lat="43.248950" lon="-2.061530">
        <ele>374.0</ele>
        <time>2012-03-10T08:23:40Z</time>
      </trkpt>
      <trkpt lat="43.248780" lon="-2.061500">
        <ele>355.0</ele>
        <time>2012-03-10T08:24:00Z</time>
      </trkpt>
      <trkpt lat="43.248600" lon="-2.061300">
        <ele>350.0</ele>
        <time>2012-03-10T08:24:20Z</time>
      </trkpt>
      <trkpt lat="43.248270" lon="-2.061170">
        <ele>368.0</ele>
        <time>2012-03-10T08:24:40Z</time>
      </trkpt>
      <trkpt lat="43.248020" lon="-2.061170">
        <ele>381.0</ele>
        <time>2012-03-10T08:25:00Z</time>
      </trkpt>
      <trkpt lat="43.248000" lon="-2.061230">
        <ele>383.0</ele>
        <time>2012-03-10T08:25:20Z</time>
      </trkpt>
      <trkpt lat="43.247990" lon="-2.061280">
        <ele>385.0</ele>
        <time>2012-03-10T08:25:40Z</time>
      </trkpt>
      <trkpt lat="43.247980" lon="-2.061330">
        <ele>383.0</ele>
        <time>2012-03-10T08:26:00Z</time>
      </trkpt>
      <trkpt lat="43.248010" lon="-2.061450">
        <ele>384.0</ele>
        <time>2012-03-10T08:26:20Z</time>
      </trkpt>
      <trkpt lat="43.248030" lon="-2.061610">
        <ele>388.0</ele>
        <time>2012-03-10T08:26:40Z</time>
      </trkpt>
      <trkpt lat="43.248050" lon="-2.061770">
        <ele>393.0</ele>
        <time>2012-03-10T08:27:00Z</time>
      </trkpt>
      <trkpt lat="43.248100" lon="-2.061900">
        <ele>393.0</ele>
        <time>2012-03-10T08:27:20Z</time>
      </trkpt>
      <trkpt lat="43.248160" lon="-2.061980">
        <ele>395.0</ele>
        <time>2012-03-10T08:27:40Z</time>
      </trkpt>
      <trkpt lat="43.248210" lon="-2.062070">
        <ele>397.0</ele>
        <time>2012-03-10T08:28:00Z</time>
      </trkpt>
      <trkpt lat="43.248270" lon="-2.062190">
        <ele>400.0</ele>
        <time>2012-03-10T08:28:20Z</time>
      </trkpt>
      <trkpt lat="43.248340" lon="-2.062270">
        <ele>401.0</ele>
        <time>2012-03-10T08:28:40Z</time>
      </trkpt>
      <trkpt lat="43.248390" lon="-2.062370">
        <ele>407.0</ele>
        <time>2012-03-10T08:29:00Z</time>
      </trkpt>
      <trkpt lat="43.248410" lon="-2.062550">
        <ele>411.0</ele>
        <time>2012-03-10T08:29:20Z</time>
      </trkpt>
      <trkpt lat="43.248420" lon="-2.062710">
        <ele>413.0</ele>
        <time>2012-03-10T08:29:40Z</time>
      </trkpt>
      <trkpt lat="43.248440" lon="-2.062890">
        <ele>415.0</ele>
        <time>2012-03-10T08:30:00Z</time>
      </trkpt>
      <trkpt lat="43.248450" lon="-2.063140">
        <ele>419.0</ele>
        <time>2012-03-10T08:30:20Z</time>
      </trkpt>
      <trkpt lat="43.248390" lon="-2.063320">
        <ele>423.0</ele>
        <time>2012-03-10T08:30:40Z</time>
      </trkpt>
      <trkpt lat="43.248400" lon="-2.063470">
        <ele>428.0</ele>
        <time>2012-03-10T08:31:00Z</time>
      </trkpt>
      <trkpt lat="43.248420" lon="-2.063590">
        <ele>428.0</ele>
        <time>2012-03-10T08:31:20Z</time>
      </trkpt>
      <trkpt lat="43.248340" lon="-2.063750">
        <ele>432.0</ele>
        <time>2012-03-10T08:31:41Z</time>
      </trkpt>
      <trkpt lat="43.248360" lon="-2.064020">
        <ele>434.0</ele>
        <time>2012-03-10T08:32:01Z</time>
      </trkpt>
      <trkpt lat="43.248420" lon="-2.064290">
        <ele>436.0</ele>
        <time>2012-03-10T08:32:21Z</time>
      </trkpt>
      <trkpt lat="43.248460" lon="-2.064590">
        <ele>437.0</ele>
        <time>2012-03-10T08:32:45Z</time>
      </trkpt>
      <trkpt lat="43.248540" lon="-2.064880">
        <ele>441.0</ele>
        <time>2012-03-10T08:33:05Z</time>
      </trkpt>
      <trkpt lat="43.248570" lon="-2.065110">
        <ele>446.0</ele>
        <time>2012-03-10T08:33:27Z</time>
      </trkpt>
      <trkpt lat="43.248580" lon="-2.065380">
        <ele>451.0</ele>
        <time>2012-03-10T08:33:47Z</time>
      </trkpt>
      <trkpt lat="43.248580" lon="-2.065610">
        <ele>461.0</ele>
        <time>2012-03-10T08:34:07Z</time>
      </trkpt>
      <trkpt lat="43.248600" lon="-2.065800">
        <ele>466.0</ele>
        <time>2012-03-10T08:34:27Z</time>
      </trkpt>
      <trkpt lat="43.248590" lon="-2.066110">
        <ele>461.0</ele>
        <time>2012-03-10T08:34:47Z</time>
      </trkpt>
      <trkpt lat="43.248590" lon="-2.066390">
        <ele>460.0</ele>
        <time>2012-03-10T08:35:07Z</time>
      </trkpt>
      <trkpt lat="43.248510" lon="-2.066680">
        <ele>464.0</ele>
        <time>2012-03-10T08:35:27Z</time>
      </trkpt>
      <trkpt lat="43.248470" lon="-2.066950">
        <ele>467.0</ele>
        <time>2012-03-10T08:35:47Z</time>
      </trkpt>
      <trkpt lat="43.248370" lon="-2.067230">
        <ele>473.0</ele>
        <time>2012-03-10T08:36:07Z</time>
      </trkpt>
      <trkpt lat="43.248340" lon="-2.067460">
        <ele>473.0</ele>
        <time>2012-03-10T08:36:27Z</time>
      </trkpt>
      <trkpt lat="43.248260" lon="-2.067670">
        <ele>472.0</ele>
        <time>2012-03-10T08:36:47Z</time>
      </trkpt>
      <trkpt lat="43.248130" lon="-2.067910">
        <ele>468.0</ele>
        <time>2012-03-10T08:37:07Z</time>
      </trkpt>
      <trkpt lat="43.248020" lon="-2.068140">
        <ele>471.0</ele>
        <time>2012-03-10T08:37:27Z</time>
      </trkpt>
      <trkpt lat="43.247890" lon="-2.068310">
        <ele>484.0</ele>
        <time>2012-03-10T08:37:47Z</time>
      </trkpt>
      <trkpt lat="43.247740" lon="-2.068540">
        <ele>487.0</ele>
        <time>2012-03-10T08:38:07Z</time>
      </trkpt>
      <trkpt lat="43.247650" lon="-2.068820">
        <ele>487.0</ele>
        <time>2012-03-10T08:38:27Z</time>
      </trkpt>
      <trkpt lat="43.247590" lon="-2.069110">
        <ele>481.0</ele>
        <time>2012-03-10T08:38:47Z</time>
      </trkpt>
      <trkpt lat="43.247530" lon="-2.069330">
        <ele>486.0</ele>
        <time>2012-03-10T08:39:07Z</time>
      </trkpt>
      <trkpt lat="43.247460" lon="-2.069590">
        <ele>484.0</ele>
        <time>2012-03-10T08:39:27Z</time>
      </trkpt>
      <trkpt lat="43.247430" lon="-2.069880">
        <ele>485.0</ele>
        <time>2012-03-10T08:39:47Z</time>
      </trkpt>
      <trkpt lat="43.247470" lon="-2.070030">
        <ele>487.0</ele>
        <time>2012-03-10T08:40:07Z</time>
      </trkpt>
      <trkpt lat="43.247430" lon="-2.070120">
        <ele>507.0</ele>
        <time>2012-03-10T08:40:27Z</time>
      </trkpt>
      <trkpt lat="43.247350" lon="-2.070110">
        <ele>507.0</ele>
        <time>2012-03-10T08:40:48Z</time>
      </trkpt>
      <trkpt lat="43.247450" lon="-2.070070">
        <ele>489.0</ele>
        <time>2012-03-10T08:41:10Z</time>
      </trkpt>
      <trkpt lat="43.247470" lon="-2.070280">
        <ele>483.0</ele>
        <time>2012-03-10T08:41:34Z</time>
      </trkpt>
      <trkpt lat="43.247440" lon="-2.070520">
        <ele>495.0</ele>
        <time>2012-03-10T08:41:54Z</time>
      </trkpt>
      <trkpt lat="43.247370" lon="-2.070740">
        <ele>505.0</ele>
        <time>2012-03-10T08:42:14Z</time>
      </trkpt>
      <trkpt lat="43.247350" lon="-2.070950">
        <ele>504.0</ele>
        <time>2012-03-10T08:42:34Z</time>
      </trkpt>
      <trkpt lat="43.247290" lon="-2.071190">
        <ele>500.0</ele>
        <time>2012-03-10T08:42:54Z</time>
      </trkpt>
      <trkpt lat="43.247140" lon="-2.071370">
        <ele>510.0</ele>
        <time>2012-03-10T08:43:14Z</time>
      </trkpt>
      <trkpt lat="43.247060" lon="-2.071540">
        <ele>505.0</ele>
        <time>2012-03-10T08:43:34Z</time>
      </trkpt>
      <trkpt lat="43.246970" lon="-2.071720">
        <ele>505.0</ele>
        <time>2012-03-10T08:43:54Z</time>
      </trkpt>
      <trkpt lat="43.246860" lon="-2.071960">
        <ele>505.0</ele>
        <time>2012-03-10T08:44:14Z</time>
      </trkpt>
      <trkpt lat="43.246720" lon="-2.072230">
        <ele>505.0</ele>
        <time>2012-03-10T08:44:34Z</time>
      </trkpt>
      <trkpt lat="43.246630" lon="-2.072430">
        <ele>510.0</ele>
        <time>2012-03-10T08:44:54Z</time>
      </trkpt>
      <trkpt lat="43.246590" lon="-2.072590">
        <ele>512.0</ele>
        <time>2012-03-10T08:45:14Z</time>
      </trkpt>
      <trkpt lat="43.246530" lon="-2.072550">
        <ele>522.0</ele>
        <time>2012-03-10T08:45:34Z</time>
      </trkpt>
      <trkpt lat="43.246530" lon="-2.072530">
        <ele>518.0</ele>
        <time>2012-03-10T08:45:54Z</time>
      </trkpt>
      <trkpt lat="43.246480" lon="-2.072640">
        <ele>529.0</ele>
        <time>2012-03-10T08:46:14Z</time>
      </trkpt>
      <trkpt lat="43.246620" lon="-2.072790">
        <ele>519.0</ele>
        <time>2012-03-10T08:46:37Z</time>
      </trkpt>
      <trkpt lat="43.246730" lon="-2.072890">
        <ele>526.0</ele>
        <time>2012-03-10T08:46:57Z</time>
      </trkpt>
      <trkpt lat="43.246850" lon="-2.072960">
        <ele>529.0</ele>
        <time>2012-03-10T08:47:17Z</time>
      </trkpt>
      <trkpt lat="43.246930" lon="-2.073060">
        <ele>536.0</ele>
        <time>2012-03-10T08:47:37Z</time>
      </trkpt>
      <trkpt lat="43.247040" lon="-2.073200">
        <ele>537.0</ele>
        <time>2012-03-10T08:47:57Z</time>
      </trkpt>
      <trkpt lat="43.247150" lon="-2.073320">
        <ele>538.0</ele>
        <time>2012-03-10T08:48:17Z</time>
      </trkpt>
      <trkpt lat="43.247330" lon="-2.073200">
        <ele>511.0</ele>
        <time>2012-03-10T08:48:37Z</time>
      </trkpt>
      <trkpt lat="43.247320" lon="-2.073310">
        <ele>507.0</ele>
        <time>2012-03-10T08:48:57Z</time>
      </trkpt>
      <trkpt lat="43.247140" lon="-2.073440">
        <ele>541.0</ele>
        <time>2012-03-10T08:49:17Z</time>
      </trkpt>
      <trkpt lat="43.247250" lon="-2.073510">
        <ele>537.0</ele>
        <time>2012-03-10T08:49:38Z</time>
      </trkpt>
      <trkpt lat="43.247420" lon="-2.073610">
        <ele>531.0</ele>
        <time>2012-03-10T08:49:58Z</time>
      </trkpt>
      <trkpt lat="43.247520" lon="-2.073780">
        <ele>528.0</ele>
        <time>2012-03-10T08:50:18Z</time>
      </trkpt>
      <trkpt lat="43.247440" lon="-2.074010">
        <ele>532.0</ele>
        <time>2012-03-10T08:50:38Z</time>
      </trkpt>
      <trkpt lat="43.247360" lon="-2.074270">
        <ele>533.0</ele>
        <time>2012-03-10T08:50:58Z</time>
      </trkpt>
      <trkpt lat="43.247290" lon="-2.074550">
        <ele>535.0</ele>
        <time>2012-03-10T08:51:18Z</time>
      </trkpt>
      <trkpt lat="43.247200" lon="-2.074750">
        <ele>541.0</ele>
        <time>2012-03-10T08:51:38Z</time>
      </trkpt>
      <trkpt lat="43.247150" lon="-2.074900">
        <ele>544.0</ele>
        <time>2012-03-10T08:51:58Z</time>
      </trkpt>
      <trkpt lat="43.247040" lon="-2.075050">
        <ele>548.0</ele>
        <time>2012-03-10T08:52:18Z</time>
      </trkpt>
      <trkpt lat="43.246960" lon="-2.075260">
        <ele>546.0</ele>
        <time>2012-03-10T08:52:38Z</time>
      </trkpt>
      <trkpt lat="43.246850" lon="-2.075470">
        <ele>550.0</ele>
        <time>2012-03-10T08:52:58Z</time>
      </trkpt>
      <trkpt lat="43.246820" lon="-2.075550">
        <ele>551.0</ele>
        <time>2012-03-10T08:53:18Z</time>
      </trkpt>
      <trkpt lat="43.246770" lon="-2.075630">
        <ele>553.0</ele>
        <time>2012-03-10T08:53:38Z</time>
      </trkpt>
      <trkpt lat="43.246730" lon="-2.075690">
        <ele>555.0</ele>
        <time>2012-03-10T08:53:58Z</time>
      </trkpt>
      <trkpt lat="43.246690" lon="-2.075660">
        <ele>556.0</ele>
        <time>2012-03-10T08:54:18Z</time>
      </trkpt>
      <trkpt lat="43.246700" lon="-2.075650">
        <ele>556.0</ele>
        <time>2012-03-10T08:54:38Z</time>
      </trkpt>
      <trkpt lat="43.246730" lon="-2.075640">
        <ele>555.0</ele>
        <time>2012-03-10T08:54:58Z</time>
      </trkpt>
      <trkpt lat="43.246730" lon="-2.075610">
        <ele>556.0</ele>
        <time>2012-03-10T08:55:18Z</time>
      </trkpt>
      <trkpt lat="43.246730" lon="-2.075610">
        <ele>558.0</ele>
        <time>2012-03-10T08:55:38Z</time>
      </trkpt>
      <trkpt lat="43.246730" lon="-2.075620">
        <ele>561.0</ele>
        <time>2012-03-10T08:55:58Z</time>
      </trkpt>
      <trkpt lat="43.246740" lon="-2.075620">
        <ele>565.0</ele>
        <time>2012-03-10T08:56:18Z</time>
      </trkpt>
      <trkpt lat="43.246740" lon="-2.075620">
        <ele>564.0</ele>
        <time>2012-03-10T08:56:38Z</time>
      </trkpt>
      <trkpt lat="43.246710" lon="-2.075630">
        <ele>562.0</ele>
        <time>2012-03-10T08:56:58Z</time>
      </trkpt>
      <trkpt lat="43.246710" lon="-2.075630">
        <ele>561.0</ele>
        <time>2012-03-10T08:57:18Z</time>
      </trkpt>
      <trkpt lat="43.246700" lon="-2.075630">
        <ele>561.0</ele>
        <time>2012-03-10T08:57:38Z</time>
      </trkpt>
      <trkpt lat="43.246720" lon="-2.075630">
        <ele>562.0</ele>
        <time>2012-03-10T08:57:58Z</time>
      </trkpt>
      <trkpt lat="43.246750" lon="-2.075630">
        <ele>563.0</ele>
        <time>2012-03-10T08:58:18Z</time>
      </trkpt>
      <trkpt lat="43.246740" lon="-2.075630">
        <ele>563.0</ele>
        <time>2012-03-10T08:58:38Z</time>
      </trkpt>
      <trkpt lat="43.246760" lon="-2.075670">
        <ele>562.0</ele>
        <time>2012-03-10T08:58:58Z</time>
      </trkpt>
      <trkpt lat="43.246770" lon="-2.075670">
        <ele>562.0</ele>
        <time>2012-03-10T08:59:18Z</time>
      </trkpt>
      <trkpt lat="43.246770" lon="-2.075680">
        <ele>562.0</ele>
        <time>2012-03-10T08:59:38Z</time>
      </trkpt>
      <trkpt lat="43.246770" lon="-2.075680">
        <ele>562.0</ele>
        <time>2012-03-10T08:59:58Z</time>
      </trkpt>
      <trkpt lat="43.246720" lon="-2.075600">
        <ele>560.0</ele>
        <time>2012-03-10T09:00:18Z</time>
      </trkpt>
      <trkpt lat="43.246700" lon="-2.075520">
        <ele>561.0</ele>
        <time>2012-03-10T09:00:38Z</time>
      </trkpt>
      <trkpt lat="43.246590" lon="-2.075420">
        <ele>561.0</ele>
        <time>2012-03-10T09:01:00Z</time>
      </trkpt>
      <trkpt lat="43.246500" lon="-2.075370">
        <ele>554.0</ele>
        <time>2012-03-10T09:01:20Z</time>
      </trkpt>
      <trkpt lat="43.246430" lon="-2.075360">
        <ele>556.0</ele>
        <time>2012-03-10T09:01:40Z</time>
      </trkpt>
      <trkpt lat="43.246260" lon="-2.075470">
        <ele>547.0</ele>
        <time>2012-03-10T09:02:00Z</time>
      </trkpt>
      <trkpt lat="43.246070" lon="-2.075510">
        <ele>545.0</ele>
        <time>2012-03-10T09:02:20Z</time>
      </trkpt>
      <trkpt lat="43.245930" lon="-2.075510">
        <ele>543.0</ele>
        <time>2012-03-10T09:02:40Z</time>
      </trkpt>
      <trkpt lat="43.245850" lon="-2.075530">
        <ele>543.0</ele>
        <time>2012-03-10T09:03:00Z</time>
      </trkpt>
      <trkpt lat="43.245770" lon="-2.075510">
        <ele>541.0</ele>
        <time>2012-03-10T09:03:20Z</time>
      </trkpt>
      <trkpt lat="43.245690" lon="-2.075500">
        <ele>541.0</ele>
        <time>2012-03-10T09:03:40Z</time>
      </trkpt>
      <trkpt lat="43.245620" lon="-2.075450">
        <ele>539.0</ele>
        <time>2012-03-10T09:04:00Z</time>
      </trkpt>
      <trkpt lat="43.245580" lon="-2.075450">
        <ele>530.0</ele>
        <time>2012-03-10T09:04:20Z</time>
      </trkpt>
      <trkpt lat="43.245480" lon="-2.075460">
        <ele>523.0</ele>
        <time>2012-03-10T09:04:40Z</time>
      </trkpt>
      <trkpt lat="43.245380" lon="-2.075470">
        <ele>520.0</ele>
        <time>2012-03-10T09:05:00Z</time>
      </trkpt>
      <trkpt lat="43.245240" lon="-2.075430">
        <ele>517.0</ele>
        <time>2012-03-10T09:05:20Z</time>
      </trkpt>
      <trkpt lat="43.245060" lon="-2.075430">
        <ele>509.0</ele>
        <time>2012-03-10T09:05:40Z</time>
      </trkpt>
      <trkpt lat="43.244850" lon="-2.075400">
        <ele>505.0</ele>
        <time>2012-03-10T09:06:00Z</time>
      </trkpt>
      <trkpt lat="43.244650" lon="-2.075340">
        <ele>500.0</ele>
        <time>2012-03-10T09:06:20Z</time>
      </trkpt>
      <trkpt lat="43.244450" lon="-2.075330">
        <ele>493.0</ele>
        <time>2012-03-10T09:06:40Z</time>
      </trkpt>
      <trkpt lat="43.244270" lon="-2.075300">
        <ele>488.0</ele>
        <time>2012-03-10T09:07:00Z</time>
      </trkpt>
      <trkpt lat="43.244090" lon="-2.075290">
        <ele>481.0</ele>
        <time>2012-03-10T09:07:20Z</time>
      </trkpt>
      <trkpt lat="43.243890" lon="-2.075260">
        <ele>475.0</ele>
        <time>2012-03-10T09:07:40Z</time>
      </trkpt>
      <trkpt lat="43.243680" lon="-2.075240">
        <ele>470.0</ele>
        <time>2012-03-10T09:08:00Z</time>
      </trkpt>
      <trkpt lat="43.243440" lon="-2.075150">
        <ele>476.0</ele>
        <time>2012-03-10T09:08:20Z</time>
      </trkpt>
      <trkpt lat="43.243260" lon="-2.075130">
        <ele>478.0</ele>
        <time>2012-03-10T09:08:40Z</time>
      </trkpt>
      <trkpt lat="43.243090" lon="-2.075210">
        <ele>476.0</ele>
        <time>2012-03-10T09:09:00Z</time>
      </trkpt>
      <trkpt lat="43.242950" lon="-2.075370">
        <ele>471.0</ele>
        <time>2012-03-10T09:09:20Z</time>
      </trkpt>
      <trkpt lat="43.242800" lon="-2.075540">
        <ele>466.0</ele>
        <time>2012-03-10T09:09:40Z</time>
      </trkpt>
      <trkpt lat="43.242650" lon="-2.075700">
        <ele>464.0</ele>
        <time>2012-03-10T09:10:00Z</time>
      </trkpt>
      <trkpt lat="43.242480" lon="-2.075820">
        <ele>459.0</ele>
        <time>2012-03-10T09:10:20Z</time>
      </trkpt>
      <trkpt lat="43.242320" lon="-2.076050">
        <ele>457.0</ele>
        <time>2012-03-10T09:10:40Z</time>
      </trkpt>
      <trkpt lat="43.242190" lon="-2.076260">
        <ele>449.0</ele>
        <time>2012-03-10T09:11:00Z</time>
      </trkpt>
      <trkpt lat="43.242050" lon="-2.076450">
        <ele>446.0</ele>
        <time>2012-03-10T09:11:20Z</time>
      </trkpt>
      <trkpt lat="43.241900" lon="-2.076650">
        <ele>442.0</ele>
        <time>2012-03-10T09:11:40Z</time>
      </trkpt>
      <trkpt lat="43.241730" lon="-2.076860">
        <ele>436.0</ele>
        <time>2012-03-10T09:12:00Z</time>
      </trkpt>
      <trkpt lat="43.241750" lon="-2.076930">
        <ele>430.0</ele>
        <time>2012-03-10T09:12:20Z</time>
      </trkpt>
      <trkpt lat="43.241700" lon="-2.076890">
        <ele>428.0</ele>
        <time>2012-03-10T09:12:40Z</time>
      </trkpt>
      <trkpt lat="43.241700" lon="-2.076800">
        <ele>427.0</ele>
        <time>2012-03-10T09:13:00Z</time>
      </trkpt>
      <trkpt lat="43.241570" lon="-2.076970">
        <ele>427.0</ele>
        <time>2012-03-10T09:13:20Z</time>
      </trkpt>
      <trkpt lat="43.241470" lon="-2.077150">
        <ele>429.0</ele>
        <time>2012-03-10T09:13:40Z</time>
      </trkpt>
      <trkpt lat="43.241410" lon="-2.077320">
        <ele>425.0</ele>
        <time>2012-03-10T09:14:01Z</time>
      </trkpt>
      <trkpt lat="43.241250" lon="-2.077520">
        <ele>415.0</ele>
        <time>2012-03-10T09:14:21Z</time>
      </trkpt>
      <trkpt lat="43.241050" lon="-2.077770">
        <ele>420.0</ele>
        <time>2012-03-10T09:14:41Z</time>
      </trkpt>
      <trkpt lat="43.240860" lon="-2.078030">
        <ele>424.0</ele>
        <time>2012-03-10T09:15:01Z</time>
      </trkpt>
      <trkpt lat="43.240650" lon="-2.078170">
        <ele>428.0</ele>
        <time>2012-03-10T09:15:21Z</time>
      </trkpt>
      <trkpt lat="43.240430" lon="-2.078300">
        <ele>427.0</ele>
        <time>2012-03-10T09:15:41Z</time>
      </trkpt>
      <trkpt lat="43.240190" lon="-2.078410">
        <ele>424.0</ele>
        <time>2012-03-10T09:16:01Z</time>
      </trkpt>
      <trkpt lat="43.239940" lon="-2.078520">
        <ele>422.0</ele>
        <time>2012-03-10T09:16:21Z</time>
      </trkpt>
      <trkpt lat="43.239740" lon="-2.078690">
        <ele>426.0</ele>
        <time>2012-03-10T09:16:41Z</time>
      </trkpt>
      <trkpt lat="43.239610" lon="-2.078980">
        <ele>431.0</ele>
        <time>2012-03-10T09:17:01Z</time>
      </trkpt>
      <trkpt lat="43.239570" lon="-2.079170">
        <ele>434.0</ele>
        <time>2012-03-10T09:17:21Z</time>
      </trkpt>
      <trkpt lat="43.239520" lon="-2.079250">
        <ele>439.0</ele>
        <time>2012-03-10T09:17:41Z</time>
      </trkpt>
      <trkpt lat="43.239430" lon="-2.079560">
        <ele>442.0</ele>
        <time>2012-03-10T09:18:01Z</time>
      </trkpt>
      <trkpt lat="43.239330" lon="-2.079720">
        <ele>448.0</ele>
        <time>2012-03-10T09:18:21Z</time>
      </trkpt>
      <trkpt lat="43.239220" lon="-2.079900">
        <ele>447.0</ele>
        <time>2012-03-10T09:18:41Z</time>
      </trkpt>
      <trkpt lat="43.239020" lon="-2.080130">
        <ele>442.0</ele>
        <time>2012-03-10T09:19:01Z</time>
      </trkpt>
      <trkpt lat="43.238810" lon="-2.080360">
        <ele>442.0</ele>
        <time>2012-03-10T09:19:21Z</time>
      </trkpt>
      <trkpt lat="43.238580" lon="-2.080650">
        <ele>442.0</ele>
        <time>2012-03-10T09:19:41Z</time>
      </trkpt>
      <trkpt lat="43.238430" lon="-2.080990">
        <ele>442.0</ele>
        <time>2012-03-10T09:20:01Z</time>
      </trkpt>
      <trkpt lat="43.238370" lon="-2.081360">
        <ele>446.0</ele>
        <time>2012-03-10T09:20:21Z</time>
      </trkpt>
      <trkpt lat="43.238290" lon="-2.081600">
        <ele>446.0</ele>
        <time>2012-03-10T09:20:41Z</time>
      </trkpt>
      <trkpt lat="43.238110" lon="-2.081860">
        <ele>449.0</ele>
        <time>2012-03-10T09:21:01Z</time>
      </trkpt>
      <trkpt lat="43.237860" lon="-2.082000">
        <ele>449.0</ele>
        <time>2012-03-10T09:21:21Z</time>
      </trkpt>
      <trkpt lat="43.237610" lon="-2.082110">
        <ele>448.0</ele>
        <time>2012-03-10T09:21:41Z</time>
      </trkpt>
      <trkpt lat="43.237370" lon="-2.082240">
        <ele>448.0</ele>
        <time>2012-03-10T09:22:01Z</time>
      </trkpt>
      <trkpt lat="43.237190" lon="-2.082440">
        <ele>449.0</ele>
        <time>2012-03-10T09:22:21Z</time>
      </trkpt>
      <trkpt lat="43.237010" lon="-2.082610">
        <ele>451.0</ele>
        <time>2012-03-10T09:22:41Z</time>
      </trkpt>
      <trkpt lat="43.236800" lon="-2.082780">
        <ele>452.0</ele>
        <time>2012-03-10T09:23:01Z</time>
      </trkpt>
      <trkpt lat="43.236630" lon="-2.083010">
        <ele>453.0</ele>
        <time>2012-03-10T09:23:21Z</time>
      </trkpt>
      <trkpt lat="43.236460" lon="-2.083240">
        <ele>456.0</ele>
        <time>2012-03-10T09:23:41Z</time>
      </trkpt>
      <trkpt lat="43.236300" lon="-2.083450">
        <ele>458.0</ele>
        <time>2012-03-10T09:24:01Z</time>
      </trkpt>
      <trkpt lat="43.236140" lon="-2.083690">
        <ele>460.0</ele>
        <time>2012-03-10T09:24:21Z</time>
      </trkpt>
      <trkpt lat="43.236000" lon="-2.083950">
        <ele>460.0</ele>
        <time>2012-03-10T09:24:41Z</time>
      </trkpt>
      <trkpt lat="43.235950" lon="-2.084270">
        <ele>459.0</ele>
        <time>2012-03-10T09:25:01Z</time>
      </trkpt>
      <trkpt lat="43.235860" lon="-2.084560">
        <ele>454.0</ele>
        <time>2012-03-10T09:25:21Z</time>
      </trkpt>
      <trkpt lat="43.235730" lon="-2.084830">
        <ele>452.0</ele>
        <time>2012-03-10T09:25:41Z</time>
      </trkpt>
      <trkpt lat="43.235570" lon="-2.085070">
        <ele>452.0</ele>
        <time>2012-03-10T09:26:01Z</time>
      </trkpt>
      <trkpt lat="43.235390" lon="-2.085310">
        <ele>452.0</ele>
        <time>2012-03-10T09:26:21Z</time>
      </trkpt>
      <trkpt lat="43.235220" lon="-2.085500">
        <ele>449.0</ele>
        <time>2012-03-10T09:26:41Z</time>
      </trkpt>
      <trkpt lat="43.235020" lon="-2.085650">
        <ele>447.0</ele>
        <time>2012-03-10T09:27:01Z</time>
      </trkpt>
      <trkpt lat="43.234780" lon="-2.085730">
        <ele>447.0</ele>
        <time>2012-03-10T09:27:21Z</time>
      </trkpt>
      <trkpt lat="43.234590" lon="-2.085770">
        <ele>448.0</ele>
        <time>2012-03-10T09:27:41Z</time>
      </trkpt>
      <trkpt lat="43.234340" lon="-2.085800">
        <ele>449.0</ele>
        <time>2012-03-10T09:28:01Z</time>
      </trkpt>
      <trkpt lat="43.234090" lon="-2.085890">
        <ele>451.0</ele>
        <time>2012-03-10T09:28:21Z</time>
      </trkpt>
      <trkpt lat="43.233870" lon="-2.086030">
        <ele>453.0</ele>
        <time>2012-03-10T09:28:41Z</time>
      </trkpt>
      <trkpt lat="43.233660" lon="-2.086180">
        <ele>453.0</ele>
        <time>2012-03-10T09:29:01Z</time>
      </trkpt>
      <trkpt lat="43.233470" lon="-2.086390">
        <ele>453.0</ele>
        <time>2012-03-10T09:29:21Z</time>
      </trkpt>
      <trkpt lat="43.233300" lon="-2.086690">
        <ele>453.0</ele>
        <time>2012-03-10T09:29:41Z</time>
      </trkpt>
      <trkpt lat="43.233140" lon="-2.086980">
        <ele>454.0</ele>
        <time>2012-03-10T09:30:01Z</time>
      </trkpt>
      <trkpt lat="43.232960" lon="-2.087200">
        <ele>456.0</ele>
        <time>2012-03-10T09:30:21Z</time>
      </trkpt>
      <trkpt lat="43.232800" lon="-2.087460">
        <ele>454.0</ele>
        <time>2012-03-10T09:30:42Z</time>
      </trkpt>
      <trkpt lat="43.232750" lon="-2.087760">
        <ele>454.0</ele>
        <time>2012-03-10T09:31:02Z</time>
      </trkpt>
      <trkpt lat="43.232620" lon="-2.088030">
        <ele>450.0</ele>
        <time>2012-03-10T09:31:22Z</time>
      </trkpt>
      <trkpt lat="43.232460" lon="-2.088170">
        <ele>449.0</ele>
        <time>2012-03-10T09:31:42Z</time>
      </trkpt>
      <trkpt lat="43.232190" lon="-2.088280">
        <ele>445.0</ele>
        <time>2012-03-10T09:32:02Z</time>
      </trkpt>
      <trkpt lat="43.231930" lon="-2.088320">
        <ele>444.0</ele>
        <time>2012-03-10T09:32:22Z</time>
      </trkpt>
      <trkpt lat="43.231630" lon="-2.088310">
        <ele>441.0</ele>
        <time>2012-03-10T09:32:42Z</time>
      </trkpt>
      <trkpt lat="43.231370" lon="-2.088310">
        <ele>439.0</ele>
        <time>2012-03-10T09:33:02Z</time>
      </trkpt>
      <trkpt lat="43.231160" lon="-2.088450">
        <ele>438.0</ele>
        <time>2012-03-10T09:33:22Z</time>
      </trkpt>
      <trkpt lat="43.230970" lon="-2.088640">
        <ele>437.0</ele>
        <time>2012-03-10T09:33:42Z</time>
      </trkpt>
      <trkpt lat="43.230750" lon="-2.088840">
        <ele>435.0</ele>
        <time>2012-03-10T09:34:02Z</time>
      </trkpt>
      <trkpt lat="43.230560" lon="-2.089050">
        <ele>430.0</ele>
        <time>2012-03-10T09:34:22Z</time>
      </trkpt>
      <trkpt lat="43.230400" lon="-2.089370">
        <ele>429.0</ele>
        <time>2012-03-10T09:34:42Z</time>
      </trkpt>
      <trkpt lat="43.230270" lon="-2.089660">
        <ele>429.0</ele>
        <time>2012-03-10T09:35:02Z</time>
      </trkpt>
      <trkpt lat="43.230150" lon="-2.089980">
        <ele>429.0</ele>
        <time>2012-03-10T09:35:22Z</time>
      </trkpt>
      <trkpt lat="43.230010" lon="-2.090290">
        <ele>431.0</ele>
        <time>2012-03-10T09:35:42Z</time>
      </trkpt>
      <trkpt lat="43.229850" lon="-2.090590">
        <ele>426.0</ele>
        <time>2012-03-10T09:36:02Z</time>
      </trkpt>
      <trkpt lat="43.229660" lon="-2.090830">
        <ele>425.0</ele>
        <time>2012-03-10T09:36:22Z</time>
      </trkpt>
      <trkpt lat="43.229510" lon="-2.091100">
        <ele>428.0</ele>
        <time>2012-03-10T09:36:42Z</time>
      </trkpt>
      <trkpt lat="43.229320" lon="-2.091370">
        <ele>425.0</ele>
        <time>2012-03-10T09:37:02Z</time>
      </trkpt>
      <trkpt lat="43.229180" lon="-2.091620">
        <ele>425.0</ele>
        <time>2012-03-10T09:37:22Z</time>
      </trkpt>
      <trkpt lat="43.229050" lon="-2.091870">
        <ele>424.0</ele>
        <time>2012-03-10T09:37:42Z</time>
      </trkpt>
      <trkpt lat="43.228950" lon="-2.092180">
        <ele>428.0</ele>
        <time>2012-03-10T09:38:02Z</time>
      </trkpt>
      <trkpt lat="43.228840" lon="-2.092450">
        <ele>427.0</ele>
        <time>2012-03-10T09:38:22Z</time>
      </trkpt>
      <trkpt lat="43.228790" lon="-2.092590">
        <ele>423.0</ele>
        <time>2012-03-10T09:38:42Z</time>
      </trkpt>
      <trkpt lat="43.228770" lon="-2.092620">
        <ele>422.0</ele>
        <time>2012-03-10T09:39:02Z</time>
      </trkpt>
      <trkpt lat="43.228680" lon="-2.092790">
        <ele>419.0</ele>
        <time>2012-03-10T09:39:22Z</time>
      </trkpt>
      <trkpt lat="43.228610" lon="-2.092820">
        <ele>415.0</ele>
        <time>2012-03-10T09:39:42Z</time>
      </trkpt>
      <trkpt lat="43.228590" lon="-2.092810">
        <ele>414.0</ele>
        <time>2012-03-10T09:40:02Z</time>
      </trkpt>
      <trkpt lat="43.228590" lon="-2.092810">
        <ele>414.0</ele>
        <time>2012-03-10T09:40:22Z</time>
      </trkpt>
      <trkpt lat="43.228600" lon="-2.092820">
        <ele>413.0</ele>
        <time>2012-03-10T09:40:42Z</time>
      </trkpt>
      <trkpt lat="43.228600" lon="-2.092810">
        <ele>413.0</ele>
        <time>2012-03-10T09:41:02Z</time>
      </trkpt>
      <trkpt lat="43.228600" lon="-2.092810">
        <ele>412.0</ele>
        <time>2012-03-10T09:41:22Z</time>
      </trkpt>
      <trkpt lat="43.228640" lon="-2.092800">
        <ele>409.0</ele>
        <time>2012-03-10T09:41:42Z</time>
      </trkpt>
      <trkpt lat="43.228640" lon="-2.092810">
        <ele>411.0</ele>
        <time>2012-03-10T09:42:02Z</time>
      </trkpt>
      <trkpt lat="43.228630" lon="-2.092820">
        <ele>412.0</ele>
        <time>2012-03-10T09:42:22Z</time>
      </trkpt>
      <trkpt lat="43.228630" lon="-2.092830">
        <ele>414.0</ele>
        <time>2012-03-10T09:42:42Z</time>
      </trkpt>
      <trkpt lat="43.228620" lon="-2.092830">
        <ele>415.0</ele>
        <time>2012-03-10T09:43:02Z</time>
      </trkpt>
      <trkpt lat="43.228580" lon="-2.092810">
        <ele>422.0</ele>
        <time>2012-03-10T09:43:22Z</time>
      </trkpt>
      <trkpt lat="43.228580" lon="-2.092800">
        <ele>422.0</ele>
        <time>2012-03-10T09:43:42Z</time>
      </trkpt>
      <trkpt lat="43.228620" lon="-2.092750">
        <ele>421.0</ele>
        <time>2012-03-10T09:44:02Z</time>
      </trkpt>
      <trkpt lat="43.228670" lon="-2.092490">
        <ele>417.0</ele>
        <time>2012-03-10T09:44:22Z</time>
      </trkpt>
      <trkpt lat="43.228680" lon="-2.092160">
        <ele>416.0</ele>
        <time>2012-03-10T09:44:42Z</time>
      </trkpt>
      <trkpt lat="43.228710" lon="-2.091830">
        <ele>414.0</ele>
        <time>2012-03-10T09:45:02Z</time>
      </trkpt>
      <trkpt lat="43.228710" lon="-2.091500">
        <ele>414.0</ele>
        <time>2012-03-10T09:45:22Z</time>
      </trkpt>
      <trkpt lat="43.228720" lon="-2.091200">
        <ele>411.0</ele>
        <time>2012-03-10T09:45:42Z</time>
      </trkpt>
      <trkpt lat="43.228780" lon="-2.090900">
        <ele>405.0</ele>
        <time>2012-03-10T09:46:02Z</time>
      </trkpt>
      <trkpt lat="43.228930" lon="-2.090650">
        <ele>403.0</ele>
        <time>2012-03-10T09:46:22Z</time>
      </trkpt>
      <trkpt lat="43.229080" lon="-2.090370">
        <ele>412.0</ele>
        <time>2012-03-10T09:46:42Z</time>
      </trkpt>
      <trkpt lat="43.229180" lon="-2.090040">
        <ele>404.0</ele>
        <time>2012-03-10T09:47:02Z</time>
      </trkpt>
      <trkpt lat="43.229210" lon="-2.089740">
        <ele>404.0</ele>
        <time>2012-03-10T09:47:22Z</time>
      </trkpt>
      <trkpt lat="43.229180" lon="-2.089360">
        <ele>405.0</ele>
        <time>2012-03-10T09:47:42Z</time>
      </trkpt>
      <trkpt lat="43.229040" lon="-2.089050">
        <ele>410.0</ele>
        <time>2012-03-10T09:48:02Z</time>
      </trkpt>
      <trkpt lat="43.228960" lon="-2.088750">
        <ele>410.0</ele>
        <time>2012-03-10T09:48:22Z</time>
      </trkpt>
      <trkpt lat="43.228900" lon="-2.088400">
        <ele>406.0</ele>
        <time>2012-03-10T09:48:42Z</time>
      </trkpt>
      <trkpt lat="43.228840" lon="-2.088090">
        <ele>406.0</ele>
        <time>2012-03-10T09:49:02Z</time>
      </trkpt>
      <trkpt lat="43.228770" lon="-2.087780">
        <ele>407.0</ele>
        <time>2012-03-10T09:49:22Z</time>
      </trkpt>
      <trkpt lat="43.228660" lon="-2.087460">
        <ele>407.0</ele>
        <time>2012-03-10T09:49:42Z</time>
      </trkpt>
      <trkpt lat="43.228570" lon="-2.087140">
        <ele>408.0</ele>
        <time>2012-03-10T09:50:02Z</time>
      </trkpt>
      <trkpt lat="43.228500" lon="-2.086820">
        <ele>409.0</ele>
        <time>2012-03-10T09:50:22Z</time>
      </trkpt>
      <trkpt lat="43.228440" lon="-2.086500">
        <ele>405.0</ele>
        <time>2012-03-10T09:50:42Z</time>
      </trkpt>
      <trkpt lat="43.228370" lon="-2.086160">
        <ele>408.0</ele>
        <time>2012-03-10T09:51:02Z</time>
      </trkpt>
      <trkpt lat="43.228350" lon="-2.085850">
        <ele>406.0</ele>
        <time>2012-03-10T09:51:22Z</time>
      </trkpt>
      <trkpt lat="43.228370" lon="-2.085560">
        <ele>400.0</ele>
        <time>2012-03-10T09:51:42Z</time>
      </trkpt>
      <trkpt lat="43.228420" lon="-2.085240">
        <ele>396.0</ele>
        <time>2012-03-10T09:52:02Z</time>
      </trkpt>
      <trkpt lat="43.228450" lon="-2.084910">
        <ele>395.0</ele>
        <time>2012-03-10T09:52:22Z</time>
      </trkpt>
      <trkpt lat="43.228480" lon="-2.084570">
        <ele>394.0</ele>
        <time>2012-03-10T09:52:42Z</time>
      </trkpt>
      <trkpt lat="43.228470" lon="-2.084250">
        <ele>389.0</ele>
        <time>2012-03-10T09:53:02Z</time>
      </trkpt>
      <trkpt lat="43.228440" lon="-2.083960">
        <ele>389.0</ele>
        <time>2012-03-10T09:53:22Z</time>
      </trkpt>
      <trkpt lat="43.228460" lon="-2.083650">
        <ele>383.0</ele>
        <time>2012-03-10T09:53:42Z</time>
      </trkpt>
      <trkpt lat="43.228470" lon="-2.083350">
        <ele>380.0</ele>
        <time>2012-03-10T09:54:02Z</time>
      </trkpt>
      <trkpt lat="43.228490" lon="-2.083080">
        <ele>379.0</ele>
        <time>2012-03-10T09:54:22Z</time>
      </trkpt>
      <trkpt lat="43.228510" lon="-2.082790">
        <ele>381.0</ele>
        <time>2012-03-10T09:54:42Z</time>
      </trkpt>
      <trkpt lat="43.228550" lon="-2.082490">
        <ele>378.0</ele>
        <time>2012-03-10T09:55:02Z</time>
      </trkpt>
      <trkpt lat="43.228580" lon="-2.082240">
        <ele>375.0</ele>
        <time>2012-03-10T09:55:22Z</time>
      </trkpt>
      <trkpt lat="43.228610" lon="-2.081990">
        <ele>366.0</ele>
        <time>2012-03-10T09:55:42Z</time>
      </trkpt>
      <trkpt lat="43.228520" lon="-2.081670">
        <ele>373.0</ele>
        <time>2012-03-10T09:56:02Z</time>
      </trkpt>
      <trkpt lat="43.228440" lon="-2.081390">
        <ele>376.0</ele>
        <time>2012-03-10T09:56:22Z</time>
      </trkpt>
      <trkpt lat="43.228390" lon="-2.081170">
        <ele>369.0</ele>
        <time>2012-03-10T09:56:42Z</time>
      </trkpt>
      <trkpt lat="43.228410" lon="-2.080930">
        <ele>357.0</ele>
        <time>2012-03-10T09:57:02Z</time>
      </trkpt>
      <trkpt lat="43.228460" lon="-2.080570">
        <ele>359.0</ele>
        <time>2012-03-10T09:57:22Z</time>
      </trkpt>
      <trkpt lat="43.228520" lon="-2.080310">
        <ele>358.0</ele>
        <time>2012-03-10T09:57:42Z</time>
      </trkpt>
      <trkpt lat="43.228550" lon="-2.080030">
        <ele>355.0</ele>
        <time>2012-03-10T09:58:02Z</time>
      </trkpt>
      <trkpt lat="43.228450" lon="-2.079730">
        <ele>351.0</ele>
        <time>2012-03-10T09:58:22Z</time>
      </trkpt>
      <trkpt lat="43.228270" lon="-2.079510">
        <ele>348.0</ele>
        <time>2012-03-10T09:58:42Z</time>
      </trkpt>
      <trkpt lat="43.228140" lon="-2.079300">
        <ele>350.0</ele>
        <time>2012-03-10T09:59:02Z</time>
      </trkpt>
      <trkpt lat="43.228100" lon="-2.079230">
        <ele>353.0</ele>
        <time>2012-03-10T09:59:22Z</time>
      </trkpt>
      <trkpt lat="43.228000" lon="-2.078920">
        <ele>348.0</ele>
        <time>2012-03-10T09:59:42Z</time>
      </trkpt>
      <trkpt lat="43.227910" lon="-2.078590">
        <ele>347.0</ele>
        <time>2012-03-10T10:00:02Z</time>
      </trkpt>
      <trkpt lat="43.227830" lon="-2.078250">
        <ele>351.0</ele>
        <time>2012-03-10T10:00:22Z</time>
      </trkpt>
      <trkpt lat="43.227810" lon="-2.077910">
        <ele>354.0</ele>
        <time>2012-03-10T10:00:42Z</time>
      </trkpt>
      <trkpt lat="43.227830" lon="-2.077540">
        <ele>355.0</ele>
        <time>2012-03-10T10:01:02Z</time>
      </trkpt>
      <trkpt lat="43.227860" lon="-2.077210">
        <ele>355.0</ele>
        <time>2012-03-10T10:01:22Z</time>
      </trkpt>
      <trkpt lat="43.227910" lon="-2.076910">
        <ele>356.0</ele>
        <time>2012-03-10T10:01:42Z</time>
      </trkpt>
      <trkpt lat="43.227980" lon="-2.076620">
        <ele>355.0</ele>
        <time>2012-03-10T10:02:02Z</time>
      </trkpt>
      <trkpt lat="43.228090" lon="-2.076360">
        <ele>351.0</ele>
        <time>2012-03-10T10:02:22Z</time>
      </trkpt>
      <trkpt lat="43.228140" lon="-2.076060">
        <ele>347.0</ele>
        <time>2012-03-10T10:02:42Z</time>
      </trkpt>
      <trkpt lat="43.228120" lon="-2.075740">
        <ele>346.0</ele>
        <time>2012-03-10T10:03:02Z</time>
      </trkpt>
      <trkpt lat="43.228140" lon="-2.075370">
        <ele>347.0</ele>
        <time>2012-03-10T10:03:22Z</time>
      </trkpt>
      <trkpt lat="43.228180" lon="-2.075060">
        <ele>349.0</ele>
        <time>2012-03-10T10:03:42Z</time>
      </trkpt>
      <trkpt lat="43.228180" lon="-2.074730">
        <ele>351.0</ele>
        <time>2012-03-10T10:04:02Z</time>
      </trkpt>
      <trkpt lat="43.228090" lon="-2.074470">
        <ele>353.0</ele>
        <time>2012-03-10T10:04:22Z</time>
      </trkpt>
      <trkpt lat="43.228040" lon="-2.074160">
        <ele>354.0</ele>
        <time>2012-03-10T10:04:42Z</time>
      </trkpt>
      <trkpt lat="43.227970" lon="-2.073800">
        <ele>354.0</ele>
        <time>2012-03-10T10:05:02Z</time>
      </trkpt>
      <trkpt lat="43.227880" lon="-2.073490">
        <ele>346.0</ele>
        <time>2012-03-10T10:05:22Z</time>
      </trkpt>
      <trkpt lat="43.227860" lon="-2.073230">
        <ele>336.0</ele>
        <time>2012-03-10T10:05:42Z</time>
      </trkpt>
      <trkpt lat="43.227810" lon="-2.072910">
        <ele>330.0</ele>
        <time>2012-03-10T10:06:02Z</time>
      </trkpt>
      <trkpt lat="43.227720" lon="-2.072540">
        <ele>334.0</ele>
        <time>2012-03-10T10:06:22Z</time>
      </trkpt>
      <trkpt lat="43.227660" lon="-2.072220">
        <ele>329.0</ele>
        <time>2012-03-10T10:06:42Z</time>
      </trkpt>
      <trkpt lat="43.227570" lon="-2.071800">
        <ele>336.0</ele>
        <time>2012-03-10T10:07:02Z</time>
      </trkpt>
      <trkpt lat="43.227560" lon="-2.071740">
        <ele>339.0</ele>
        <time>2012-03-10T10:07:22Z</time>
      </trkpt>
      <trkpt lat="43.227550" lon="-2.071610">
        <ele>339.0</ele>
        <time>2012-03-10T10:07:42Z</time>
      </trkpt>
      <trkpt lat="43.227540" lon="-2.071620">
        <ele>339.0</ele>
        <time>2012-03-10T10:08:02Z</time>
      </trkpt>
      <trkpt lat="43.227650" lon="-2.071530">
        <ele>335.0</ele>
        <time>2012-03-10T10:08:22Z</time>
      </trkpt>
      <trkpt lat="43.227820" lon="-2.071360">
        <ele>334.0</ele>
        <time>2012-03-10T10:08:42Z</time>
      </trkpt>
      <trkpt lat="43.227970" lon="-2.071260">
        <ele>328.0</ele>
        <time>2012-03-10T10:09:02Z</time>
      </trkpt>
      <trkpt lat="43.228170" lon="-2.071190">
        <ele>322.0</ele>
        <time>2012-03-10T10:09:22Z</time>
      </trkpt>
      <trkpt lat="43.228420" lon="-2.071120">
        <ele>322.0</ele>
        <time>2012-03-10T10:09:42Z</time>
      </trkpt>
      <trkpt lat="43.228660" lon="-2.071110">
        <ele>321.0</ele>
        <time>2012-03-10T10:10:02Z</time>
      </trkpt>
      <trkpt lat="43.228860" lon="-2.071100">
        <ele>315.0</ele>
        <time>2012-03-10T10:10:22Z</time>
      </trkpt>
      <trkpt lat="43.229090" lon="-2.071120">
        <ele>311.0</ele>
        <time>2012-03-10T10:10:42Z</time>
      </trkpt>
      <trkpt lat="43.229300" lon="-2.071210">
        <ele>308.0</ele>
        <time>2012-03-10T10:11:02Z</time>
      </trkpt>
      <trkpt lat="43.229490" lon="-2.071190">
        <ele>303.0</ele>
        <time>2012-03-10T10:11:22Z</time>
      </trkpt>
      <trkpt lat="43.229500" lon="-2.071180">
        <ele>304.0</ele>
        <time>2012-03-10T10:11:42Z</time>
      </trkpt>
      <trkpt lat="43.229510" lon="-2.071170">
        <ele>306.0</ele>
        <time>2012-03-10T10:12:02Z</time>
      </trkpt>
      <trkpt lat="43.229540" lon="-2.071150">
        <ele>309.0</ele>
        <time>2012-03-10T10:12:22Z</time>
      </trkpt>
      <trkpt lat="43.229530" lon="-2.071150">
        <ele>310.0</ele>
        <time>2012-03-10T10:12:42Z</time>
      </trkpt>
      <trkpt lat="43.229630" lon="-2.071050">
        <ele>307.0</ele>
        <time>2012-03-10T10:13:02Z</time>
      </trkpt>
      <trkpt lat="43.229780" lon="-2.070870">
        <ele>299.0</ele>
        <time>2012-03-10T10:13:22Z</time>
      </trkpt>
      <trkpt lat="43.230000" lon="-2.070760">
        <ele>295.0</ele>
        <time>2012-03-10T10:13:42Z</time>
      </trkpt>
      <trkpt lat="43.230230" lon="-2.070610">
        <ele>293.0</ele>
        <time>2012-03-10T10:14:02Z</time>
      </trkpt>
      <trkpt lat="43.230370" lon="-2.070350">
        <ele>292.0</ele>
        <time>2012-03-10T10:14:22Z</time>
      </trkpt>
      <trkpt lat="43.230370" lon="-2.070010">
        <ele>290.0</ele>
        <time>2012-03-10T10:14:43Z</time>
      </trkpt>
      <trkpt lat="43.230410" lon="-2.069710">
        <ele>283.0</ele>
        <time>2012-03-10T10:15:03Z</time>
      </trkpt>
      <trkpt lat="43.230510" lon="-2.069390">
        <ele>277.0</ele>
        <time>2012-03-10T10:15:23Z</time>
      </trkpt>
      <trkpt lat="43.230640" lon="-2.069290">
        <ele>272.0</ele>
        <time>2012-03-10T10:15:43Z</time>
      </trkpt>
      <trkpt lat="43.230700" lon="-2.069370">
        <ele>273.0</ele>
        <time>2012-03-10T10:16:03Z</time>
      </trkpt>
      <trkpt lat="43.230790" lon="-2.069530">
        <ele>283.0</ele>
        <time>2012-03-10T10:16:23Z</time>
      </trkpt>
      <trkpt lat="43.230920" lon="-2.069490">
        <ele>273.0</ele>
        <time>2012-03-10T10:16:43Z</time>
      </trkpt>
      <trkpt lat="43.231090" lon="-2.069290">
        <ele>261.0</ele>
        <time>2012-03-10T10:17:03Z</time>
      </trkpt>
      <trkpt lat="43.231290" lon="-2.069210">
        <ele>254.0</ele>
        <time>2012-03-10T10:17:23Z</time>
      </trkpt>
      <trkpt lat="43.231480" lon="-2.069270">
        <ele>255.0</ele>
        <time>2012-03-10T10:17:43Z</time>
      </trkpt>
      <trkpt lat="43.231530" lon="-2.069500">
        <ele>249.0</ele>
        <time>2012-03-10T10:18:03Z</time>
      </trkpt>
      <trkpt lat="43.231530" lon="-2.069720">
        <ele>238.0</ele>
        <time>2012-03-10T10:18:23Z</time>
      </trkpt>
      <trkpt lat="43.231530" lon="-2.069910">
        <ele>223.0</ele>
        <time>2012-03-10T10:18:43Z</time>
      </trkpt>
      <trkpt lat="43.231640" lon="-2.070030">
        <ele>232.0</ele>
        <time>2012-03-10T10:19:03Z</time>
      </trkpt>
      <trkpt lat="43.231820" lon="-2.069940">
        <ele>244.0</ele>
        <time>2012-03-10T10:19:23Z</time>
      </trkpt>
      <trkpt lat="43.231960" lon="-2.069730">
        <ele>244.0</ele>
        <time>2012-03-10T10:19:43Z</time>
      </trkpt>
      <trkpt lat="43.232060" lon="-2.069540">
        <ele>235.0</ele>
        <time>2012-03-10T10:20:03Z</time>
      </trkpt>
      <trkpt lat="43.232160" lon="-2.069330">
        <ele>232.0</ele>
        <time>2012-03-10T10:20:23Z</time>
      </trkpt>
      <trkpt lat="43.232270" lon="-2.069120">
        <ele>227.0</ele>
        <time>2012-03-10T10:20:43Z</time>
      </trkpt>
      <trkpt lat="43.232390" lon="-2.068890">
        <ele>226.0</ele>
        <time>2012-03-10T10:21:03Z</time>
      </trkpt>
      <trkpt lat="43.232420" lon="-2.068690">
        <ele>237.0</ele>
        <time>2012-03-10T10:21:23Z</time>
      </trkpt>
      <trkpt lat="43.232400" lon="-2.068580">
        <ele>242.0</ele>
        <time>2012-03-10T10:21:43Z</time>
      </trkpt>
      <trkpt lat="43.232380" lon="-2.068480">
        <ele>244.0</ele>
        <time>2012-03-10T10:22:03Z</time>
      </trkpt>
      <trkpt lat="43.232360" lon="-2.068380">
        <ele>235.0</ele>
        <time>2012-03-10T10:22:23Z</time>
      </trkpt>
      <trkpt lat="43.232330" lon="-2.068420">
        <ele>230.0</ele>
        <time>2012-03-10T10:22:43Z</time>
      </trkpt>
      <trkpt lat="43.232390" lon="-2.068270">
        <ele>230.0</ele>
        <time>2012-03-10T10:23:03Z</time>
      </trkpt>
      <trkpt lat="43.232440" lon="-2.068140">
        <ele>239.0</ele>
        <time>2012-03-10T10:23:23Z</time>
      </trkpt>
      <trkpt lat="43.232520" lon="-2.067820">
        <ele>236.0</ele>
        <time>2012-03-10T10:23:43Z</time>
      </trkpt>
      <trkpt lat="43.232690" lon="-2.067620">
        <ele>227.0</ele>
        <time>2012-03-10T10:24:03Z</time>
      </trkpt>
      <trkpt lat="43.232810" lon="-2.067460">
        <ele>221.0</ele>
        <time>2012-03-10T10:24:23Z</time>
      </trkpt>
      <trkpt lat="43.232990" lon="-2.067410">
        <ele>221.0</ele>
        <time>2012-03-10T10:24:43Z</time>
      </trkpt>
      <trkpt lat="43.233060" lon="-2.067250">
        <ele>220.0</ele>
        <time>2012-03-10T10:25:03Z</time>
      </trkpt>
      <trkpt lat="43.233100" lon="-2.067030">
        <ele>215.0</ele>
        <time>2012-03-10T10:25:23Z</time>
      </trkpt>
      <trkpt lat="43.233120" lon="-2.066770">
        <ele>212.0</ele>
        <time>2012-03-10T10:25:43Z</time>
      </trkpt>
      <trkpt lat="43.233190" lon="-2.066560">
        <ele>214.0</ele>
        <time>2012-03-10T10:26:03Z</time>
      </trkpt>
      <trkpt lat="43.233250" lon="-2.066300">
        <ele>214.0</ele>
        <time>2012-03-10T10:26:23Z</time>
      </trkpt>
      <trkpt lat="43.233320" lon="-2.066080">
        <ele>214.0</ele>
        <time>2012-03-10T10:26:43Z</time>
      </trkpt>
      <trkpt lat="43.233380" lon="-2.065820">
        <ele>216.0</ele>
        <time>2012-03-10T10:27:03Z</time>
      </trkpt>
      <trkpt lat="43.233430" lon="-2.065620">
        <ele>218.0</ele>
        <time>2012-03-10T10:27:23Z</time>
      </trkpt>
      <trkpt lat="43.233580" lon="-2.065440">
        <ele>218.0</ele>
        <time>2012-03-10T10:27:43Z</time>
      </trkpt>
      <trkpt lat="43.233790" lon="-2.065280">
        <ele>219.0</ele>
        <time>2012-03-10T10:28:03Z</time>
      </trkpt>
      <trkpt lat="43.233950" lon="-2.065060">
        <ele>220.0</ele>
        <time>2012-03-10T10:28:23Z</time>
      </trkpt>
      <trkpt lat="43.234010" lon="-2.064810">
        <ele>217.0</ele>
        <time>2012-03-10T10:28:43Z</time>
      </trkpt>
      <trkpt lat="43.234030" lon="-2.064530">
        <ele>216.0</ele>
        <time>2012-03-10T10:29:03Z</time>
      </trkpt>
      <trkpt lat="43.234040" lon="-2.064420">
        <ele>220.0</ele>
        <time>2012-03-10T10:29:23Z</time>
      </trkpt>
      <trkpt lat="43.234040" lon="-2.064280">
        <ele>226.0</ele>
        <time>2012-03-10T10:29:43Z</time>
      </trkpt>
      <trkpt lat="43.234070" lon="-2.064130">
        <ele>224.0</ele>
        <time>2012-03-10T10:30:03Z</time>
      </trkpt>
      <trkpt lat="43.234120" lon="-2.064010">
        <ele>220.0</ele>
        <time>2012-03-10T10:30:23Z</time>
      </trkpt>
      <trkpt lat="43.234310" lon="-2.063890">
        <ele>218.0</ele>
        <time>2012-03-10T10:30:43Z</time>
      </trkpt>
      <trkpt lat="43.234470" lon="-2.063720">
        <ele>217.0</ele>
        <time>2012-03-10T10:31:03Z</time>
      </trkpt>
      <trkpt lat="43.234640" lon="-2.063490">
        <ele>214.0</ele>
        <time>2012-03-10T10:31:23Z</time>
      </trkpt>
      <trkpt lat="43.234810" lon="-2.063370">
        <ele>209.0</ele>
        <time>2012-03-10T10:31:43Z</time>
      </trkpt>
      <trkpt lat="43.235020" lon="-2.063280">
        <ele>209.0</ele>
        <time>2012-03-10T10:32:03Z</time>
      </trkpt>
      <trkpt lat="43.235160" lon="-2.063180">
        <ele>207.0</ele>
        <time>2012-03-10T10:32:23Z</time>
      </trkpt>
      <trkpt lat="43.235210" lon="-2.063030">
        <ele>211.0</ele>
        <time>2012-03-10T10:32:43Z</time>
      </trkpt>
      <trkpt lat="43.235230" lon="-2.062810">
        <ele>221.0</ele>
        <time>2012-03-10T10:33:03Z</time>
      </trkpt>
      <trkpt lat="43.235290" lon="-2.062580">
        <ele>224.0</ele>
        <time>2012-03-10T10:33:23Z</time>
      </trkpt>
      <trkpt lat="43.235260" lon="-2.062450">
        <ele>207.0</ele>
        <time>2012-03-10T10:33:45Z</time>
      </trkpt>
      <trkpt lat="43.235210" lon="-2.062370">
        <ele>207.0</ele>
        <time>2012-03-10T10:34:05Z</time>
      </trkpt>
      <trkpt lat="43.235260" lon="-2.062140">
        <ele>209.0</ele>
        <time>2012-03-10T10:34:25Z</time>
      </trkpt>
      <trkpt lat="43.235340" lon="-2.061830">
        <ele>208.0</ele>
        <time>2012-03-10T10:34:45Z</time>
      </trkpt>
      <trkpt lat="43.235410" lon="-2.061660">
        <ele>213.0</ele>
        <time>2012-03-10T10:35:05Z</time>
      </trkpt>
      <trkpt lat="43.235450" lon="-2.061580">
        <ele>217.0</ele>
        <time>2012-03-10T10:35:25Z</time>
      </trkpt>
      <trkpt lat="43.235480" lon="-2.061400">
        <ele>216.0</ele>
        <time>2012-03-10T10:35:45Z</time>
      </trkpt>
      <trkpt lat="43.235570" lon="-2.061170">
        <ele>218.0</ele>
        <time>2012-03-10T10:36:05Z</time>
      </trkpt>
      <trkpt lat="43.235680" lon="-2.060970">
        <ele>230.0</ele>
        <time>2012-03-10T10:36:27Z</time>
      </trkpt>
      <trkpt lat="43.235770" lon="-2.060720">
        <ele>227.0</ele>
        <time>2012-03-10T10:36:47Z</time>
      </trkpt>
      <trkpt lat="43.235810" lon="-2.060620">
        <ele>227.0</ele>
        <time>2012-03-10T10:37:07Z</time>
      </trkpt>
      <trkpt lat="43.235900" lon="-2.060630">
        <ele>239.0</ele>
        <time>2012-03-10T10:37:29Z</time>
      </trkpt>
      <trkpt lat="43.235930" lon="-2.060600">
        <ele>239.0</ele>
        <time>2012-03-10T10:37:49Z</time>
      </trkpt>
      <trkpt lat="43.235920" lon="-2.060610">
        <ele>239.0</ele>
        <time>2012-03-10T10:38:09Z</time>
      </trkpt>
      <trkpt lat="43.235950" lon="-2.060600">
        <ele>232.0</ele>
        <time>2012-03-10T10:38:29Z</time>
      </trkpt>
      <trkpt lat="43.235970" lon="-2.060540">
        <ele>229.0</ele>
        <time>2012-03-10T10:38:49Z</time>
      </trkpt>
      <trkpt lat="43.235900" lon="-2.060510">
        <ele>232.0</ele>
        <time>2012-03-10T10:39:09Z</time>
      </trkpt>
      <trkpt lat="43.235800" lon="-2.060480">
        <ele>230.0</ele>
        <time>2012-03-10T10:39:29Z</time>
      </trkpt>
      <trkpt lat="43.235780" lon="-2.060320">
        <ele>227.0</ele>
        <time>2012-03-10T10:39:51Z</time>
      </trkpt>
      <trkpt lat="43.235790" lon="-2.060210">
        <ele>218.0</ele>
        <time>2012-03-10T10:40:12Z</time>
      </trkpt>
      <trkpt lat="43.235770" lon="-2.060060">
        <ele>221.0</ele>
        <time>2012-03-10T10:40:32Z</time>
      </trkpt>
      <trkpt lat="43.235770" lon="-2.059880">
        <ele>241.0</ele>
        <time>2012-03-10T10:40:52Z</time>
      </trkpt>
      <trkpt lat="43.235760" lon="-2.059630">
        <ele>241.0</ele>
        <time>2012-03-10T10:41:12Z</time>
      </trkpt>
      <trkpt lat="43.235840" lon="-2.059390">
        <ele>231.0</ele>
        <time>2012-03-10T10:41:32Z</time>
      </trkpt>
      <trkpt lat="43.235990" lon="-2.059210">
        <ele>222.0</ele>
        <time>2012-03-10T10:41:52Z</time>
      </trkpt>
      <trkpt lat="43.236180" lon="-2.059030">
        <ele>221.0</ele>
        <time>2012-03-10T10:42:12Z</time>
      </trkpt>
      <trkpt lat="43.236310" lon="-2.058970">
        <ele>222.0</ele>
        <time>2012-03-10T10:42:32Z</time>
      </trkpt>
      <trkpt lat="43.236450" lon="-2.058850">
        <ele>216.0</ele>
        <time>2012-03-10T10:42:52Z</time>
      </trkpt>
      <trkpt lat="43.236510" lon="-2.058790">
        <ele>213.0</ele>
        <time>2012-03-10T10:43:14Z</time>
      </trkpt>
      <trkpt lat="43.236560" lon="-2.058730">
        <ele>217.0</ele>
        <time>2012-03-10T10:43:34Z</time>
      </trkpt>
      <trkpt lat="43.236630" lon="-2.058580">
        <ele>219.0</ele>
        <time>2012-03-10T10:43:54Z</time>
      </trkpt>
      <trkpt lat="43.236580" lon="-2.058450">
        <ele>214.0</ele>
        <time>2012-03-10T10:44:15Z</time>
      </trkpt>
      <trkpt lat="43.236660" lon="-2.058420">
        <ele>212.0</ele>
        <time>2012-03-10T10:44:35Z</time>
      </trkpt>
      <trkpt lat="43.236610" lon="-2.058280">
        <ele>209.0</ele>
        <time>2012-03-10T10:44:55Z</time>
      </trkpt>
      <trkpt lat="43.236580" lon="-2.058090">
        <ele>209.0</ele>
        <time>2012-03-10T10:45:15Z</time>
      </trkpt>
      <trkpt lat="43.236640" lon="-2.057890">
        <ele>203.0</ele>
        <time>2012-03-10T10:45:36Z</time>
      </trkpt>
      <trkpt lat="43.236710" lon="-2.057600">
        <ele>198.0</ele>
        <time>2012-03-10T10:45:56Z</time>
      </trkpt>
      <trkpt lat="43.236690" lon="-2.057410">
        <ele>193.0</ele>
        <time>2012-03-10T10:46:16Z</time>
      </trkpt>
      <trkpt lat="43.236670" lon="-2.057230">
        <ele>186.0</ele>
        <time>2012-03-10T10:46:36Z</time>
      </trkpt>
      <trkpt lat="43.236680" lon="-2.057050">
        <ele>182.0</ele>
        <time>2012-03-10T10:46:56Z</time>
      </trkpt>
      <trkpt lat="43.236710" lon="-2.056850">
        <ele>177.0</ele>
        <time>2012-03-10T10:47:16Z</time>
      </trkpt>
      <trkpt lat="43.236760" lon="-2.056650">
        <ele>171.0</ele>
        <time>2012-03-10T10:47:36Z</time>
      </trkpt>
      <trkpt lat="43.236920" lon="-2.056560">
        <ele>169.0</ele>
        <time>2012-03-10T10:47:56Z</time>
      </trkpt>
      <trkpt lat="43.237090" lon="-2.056560">
        <ele>162.0</ele>
        <time>2012-03-10T10:48:16Z</time>
      </trkpt>
      <trkpt lat="43.237160" lon="-2.056420">
        <ele>155.0</ele>
        <time>2012-03-10T10:48:36Z</time>
      </trkpt>
      <trkpt lat="43.237130" lon="-2.056280">
        <ele>170.0</ele>
        <time>2012-03-10T10:48:56Z</time>
      </trkpt>
      <trkpt lat="43.237090" lon="-2.056190">
        <ele>163.0</ele>
        <time>2012-03-10T10:52:48Z</time>
      </trkpt>
      <trkpt lat="43.236930" lon="-2.056110">
        <ele>165.0</ele>
        <time>2012-03-10T10:53:08Z</time>
      </trkpt>
      <trkpt lat="43.236800" lon="-2.056040">
        <ele>155.0</ele>
        <time>2012-03-10T10:55:50Z</time>
      </trkpt>
      <trkpt lat="43.236760" lon="-2.055970">
        <ele>170.0</ele>
        <time>2012-03-10T10:58:35Z</time>
      </trkpt>
      <trkpt lat="43.236760" lon="-2.055850">
        <ele>164.0</ele>
        <time>2012-03-10T10:58:55Z</time>
      </trkpt>
      <trkpt lat="43.236800" lon="-2.055730">
        <ele>165.0</ele>
        <time>2012-03-10T10:59:15Z</time>
      </trkpt>
      <trkpt lat="43.236790" lon="-2.055570">
        <ele>173.0</ele>
        <time>2012-03-10T10:59:35Z</time>
      </trkpt>
      <trkpt lat="43.236730" lon="-2.055370">
        <ele>166.0</ele>
        <time>2012-03-10T10:59:55Z</time>
      </trkpt>
      <trkpt lat="43.236690" lon="-2.055200">
        <ele>171.0</ele>
        <time>2012-03-10T11:00:15Z</time>
      </trkpt>
      <trkpt lat="43.236640" lon="-2.055290">
        <ele>184.0</ele>
        <time>2012-03-10T11:00:35Z</time>
      </trkpt>
      <trkpt lat="43.236590" lon="-2.055280">
        <ele>188.0</ele>
        <time>2012-03-10T11:00:56Z</time>
      </trkpt>
      <trkpt lat="43.236560" lon="-2.055100">
        <ele>183.0</ele>
        <time>2012-03-10T11:01:23Z</time>
      </trkpt>
      <trkpt lat="43.236500" lon="-2.055040">
        <ele>180.0</ele>
        <time>2012-03-10T11:01:43Z</time>
      </trkpt>
      <trkpt lat="43.236430" lon="-2.054970">
        <ele>183.0</ele>
        <time>2012-03-10T11:02:06Z</time>
      </trkpt>
      <trkpt lat="43.236380" lon="-2.054830">
        <ele>190.0</ele>
        <time>2012-03-10T11:02:28Z</time>
      </trkpt>
      <trkpt lat="43.236360" lon="-2.054770">
        <ele>194.0</ele>
        <time>2012-03-10T11:02:50Z</time>
      </trkpt>
      <trkpt lat="43.236370" lon="-2.054670">
        <ele>194.0</ele>
        <time>2012-03-10T11:03:10Z</time>
      </trkpt>
      <trkpt lat="43.236450" lon="-2.054540">
        <ele>189.0</ele>
        <time>2012-03-10T11:03:30Z</time>
      </trkpt>
      <trkpt lat="43.236550" lon="-2.054440">
        <ele>198.0</ele>
        <time>2012-03-10T11:03:50Z</time>
      </trkpt>
      <trkpt lat="43.236670" lon="-2.054340">
        <ele>196.0</ele>
        <time>2012-03-10T11:04:10Z</time>
      </trkpt>
      <trkpt lat="43.236770" lon="-2.054300">
        <ele>205.0</ele>
        <time>2012-03-10T11:04:30Z</time>
      </trkpt>
      <trkpt lat="43.236930" lon="-2.054160">
        <ele>203.0</ele>
        <time>2012-03-10T11:04:50Z</time>
      </trkpt>
      <trkpt lat="43.237080" lon="-2.054090">
        <ele>198.0</ele>
        <time>2012-03-10T11:05:10Z</time>
      </trkpt>
      <trkpt lat="43.237180" lon="-2.054060">
        <ele>202.0</ele>
        <time>2012-03-10T11:05:30Z</time>
      </trkpt>
      <trkpt lat="43.237340" lon="-2.054100">
        <ele>202.0</ele>
        <time>2012-03-10T11:05:50Z</time>
      </trkpt>
      <trkpt lat="43.237430" lon="-2.054100">
        <ele>203.0</ele>
        <time>2012-03-10T11:06:10Z</time>
      </trkpt>
      <trkpt lat="43.237530" lon="-2.054280">
        <ele>210.0</ele>
        <time>2012-03-10T11:06:30Z</time>
      </trkpt>
      <trkpt lat="43.237660" lon="-2.054450">
        <ele>219.0</ele>
        <time>2012-03-10T11:06:50Z</time>
      </trkpt>
      <trkpt lat="43.237870" lon="-2.054470">
        <ele>214.0</ele>
        <time>2012-03-10T11:07:10Z</time>
      </trkpt>
      <trkpt lat="43.238050" lon="-2.054400">
        <ele>215.0</ele>
        <time>2012-03-10T11:07:30Z</time>
      </trkpt>
      <trkpt lat="43.238150" lon="-2.054460">
        <ele>219.0</ele>
        <time>2012-03-10T11:07:50Z</time>
      </trkpt>
      <trkpt lat="43.238240" lon="-2.054300">
        <ele>212.0</ele>
        <time>2012-03-10T11:08:10Z</time>
      </trkpt>
      <trkpt lat="43.238410" lon="-2.054160">
        <ele>211.0</ele>
        <time>2012-03-10T11:08:30Z</time>
      </trkpt>
      <trkpt lat="43.238600" lon="-2.054030">
        <ele>210.0</ele>
        <time>2012-03-10T11:08:51Z</time>
      </trkpt>
      <trkpt lat="43.238670" lon="-2.053780">
        <ele>219.0</ele>
        <time>2012-03-10T11:09:11Z</time>
      </trkpt>
      <trkpt lat="43.238700" lon="-2.053520">
        <ele>219.0</ele>
        <time>2012-03-10T11:09:31Z</time>
      </trkpt>
      <trkpt lat="43.238660" lon="-2.053260">
        <ele>221.0</ele>
        <time>2012-03-10T11:09:51Z</time>
      </trkpt>
      <trkpt lat="43.238780" lon="-2.053030">
        <ele>222.0</ele>
        <time>2012-03-10T11:10:11Z</time>
      </trkpt>
      <trkpt lat="43.238870" lon="-2.052820">
        <ele>221.0</ele>
        <time>2012-03-10T11:10:31Z</time>
      </trkpt>
      <trkpt lat="43.238930" lon="-2.052600">
        <ele>222.0</ele>
        <time>2012-03-10T11:10:51Z</time>
      </trkpt>
      <trkpt lat="43.239030" lon="-2.052440">
        <ele>224.0</ele>
        <time>2012-03-10T11:11:11Z</time>
      </trkpt>
      <trkpt lat="43.239090" lon="-2.052240">
        <ele>228.0</ele>
        <time>2012-03-10T11:11:31Z</time>
      </trkpt>
      <trkpt lat="43.239250" lon="-2.052140">
        <ele>230.0</ele>
        <time>2012-03-10T11:11:51Z</time>
      </trkpt>
      <trkpt lat="43.239410" lon="-2.052000">
        <ele>232.0</ele>
        <time>2012-03-10T11:12:11Z</time>
      </trkpt>
      <trkpt lat="43.239550" lon="-2.051750">
        <ele>229.0</ele>
        <time>2012-03-10T11:12:31Z</time>
      </trkpt>
      <trkpt lat="43.239710" lon="-2.051560">
        <ele>230.0</ele>
        <time>2012-03-10T11:12:51Z</time>
      </trkpt>
      <trkpt lat="43.239840" lon="-2.051350">
        <ele>233.0</ele>
        <time>2012-03-10T11:13:11Z</time>
      </trkpt>
      <trkpt lat="43.239870" lon="-2.051140">
        <ele>238.0</ele>
        <time>2012-03-10T11:13:31Z</time>
      </trkpt>
      <trkpt lat="43.239900" lon="-2.050870">
        <ele>245.0</ele>
        <time>2012-03-10T11:13:51Z</time>
      </trkpt>
      <trkpt lat="43.239950" lon="-2.050610">
        <ele>246.0</ele>
        <time>2012-03-10T11:14:11Z</time>
      </trkpt>
      <trkpt lat="43.240030" lon="-2.050320">
        <ele>247.0</ele>
        <time>2012-03-10T11:14:31Z</time>
      </trkpt>
      <trkpt lat="43.240060" lon="-2.050040">
        <ele>252.0</ele>
        <time>2012-03-10T11:14:54Z</time>
      </trkpt>
      <trkpt lat="43.240100" lon="-2.049880">
        <ele>249.0</ele>
        <time>2012-03-10T11:15:36Z</time>
      </trkpt>
      <trkpt lat="43.240160" lon="-2.049840">
        <ele>250.0</ele>
        <time>2012-03-10T11:16:05Z</time>
      </trkpt>
      <trkpt lat="43.240130" lon="-2.049790">
        <ele>258.0</ele>
        <time>2012-03-10T11:16:36Z</time>
      </trkpt>
      <trkpt lat="43.240290" lon="-2.049420">
        <ele>256.0</ele>
        <time>2012-03-10T11:17:03Z</time>
      </trkpt>
      <trkpt lat="43.240370" lon="-2.049080">
        <ele>257.0</ele>
        <time>2012-03-10T11:17:25Z</time>
      </trkpt>
      <trkpt lat="43.240370" lon="-2.048790">
        <ele>263.0</ele>
        <time>2012-03-10T11:17:46Z</time>
      </trkpt>
      <trkpt lat="43.240650" lon="-2.048560">
        <ele>268.0</ele>
        <time>2012-03-10T11:18:16Z</time>
      </trkpt>
      <trkpt lat="43.240420" lon="-2.048580">
        <ele>267.0</ele>
        <time>2012-03-10T11:18:49Z</time>
      </trkpt>
      <trkpt lat="43.240140" lon="-2.048740">
        <ele>263.0</ele>
        <time>2012-03-10T11:19:21Z</time>
      </trkpt>
      <trkpt lat="43.239970" lon="-2.049170">
        <ele>273.0</ele>
        <time>2012-03-10T11:19:47Z</time>
      </trkpt>
      <trkpt lat="43.239700" lon="-2.049520">
        <ele>277.0</ele>
        <time>2012-03-10T11:20:18Z</time>
      </trkpt>
      <trkpt lat="43.239600" lon="-2.049890">
        <ele>278.0</ele>
        <time>2012-03-10T11:20:40Z</time>
      </trkpt>
      <trkpt lat="43.239330" lon="-2.050330">
        <ele>269.0</ele>
        <time>2012-03-10T11:21:15Z</time>
      </trkpt>
      <trkpt lat="43.238980" lon="-2.050520">
        <ele>283.0</ele>
        <time>2012-03-10T11:21:37Z</time>
      </trkpt>
      <trkpt lat="43.238800" lon="-2.050690">
        <ele>279.0</ele>
        <time>2012-03-10T11:21:57Z</time>
      </trkpt>
      <trkpt lat="43.238570" lon="-2.050820">
        <ele>280.0</ele>
        <time>2012-03-10T11:22:17Z</time>
      </trkpt>
      <trkpt lat="43.238370" lon="-2.050960">
        <ele>283.0</ele>
        <time>2012-03-10T11:22:37Z</time>
      </trkpt>
      <trkpt lat="43.238160" lon="-2.051080">
        <ele>283.0</ele>
        <time>2012-03-10T11:22:57Z</time>
      </trkpt>
      <trkpt lat="43.237950" lon="-2.051220">
        <ele>284.0</ele>
        <time>2012-03-10T11:23:17Z</time>
      </trkpt>
      <trkpt lat="43.237820" lon="-2.051250">
        <ele>286.0</ele>
        <time>2012-03-10T11:23:37Z</time>
      </trkpt>
      <trkpt lat="43.237610" lon="-2.051330">
        <ele>289.0</ele>
        <time>2012-03-10T11:23:57Z</time>
      </trkpt>
      <trkpt lat="43.237430" lon="-2.051340">
        <ele>292.0</ele>
        <time>2012-03-10T11:24:17Z</time>
      </trkpt>
      <trkpt lat="43.237280" lon="-2.051280">
        <ele>294.0</ele>
        <time>2012-03-10T11:24:37Z</time>
      </trkpt>
      <trkpt lat="43.237080" lon="-2.051300">
        <ele>295.0</ele>
        <time>2012-03-10T11:24:57Z</time>
      </trkpt>
      <trkpt lat="43.237060" lon="-2.051100">
        <ele>296.0</ele>
        <time>2012-03-10T11:25:17Z</time>
      </trkpt>
      <trkpt lat="43.237160" lon="-2.050890">
        <ele>300.0</ele>
        <time>2012-03-10T11:25:37Z</time>
      </trkpt>
      <trkpt lat="43.237280" lon="-2.050670">
        <ele>305.0</ele>
        <time>2012-03-10T11:25:57Z</time>
      </trkpt>
      <trkpt lat="43.237490" lon="-2.050450">
        <ele>306.0</ele>
        <time>2012-03-10T11:26:17Z</time>
      </trkpt>
      <trkpt lat="43.237630" lon="-2.050210">
        <ele>308.0</ele>
        <time>2012-03-10T11:26:37Z</time>
      </trkpt>
      <trkpt lat="43.237730" lon="-2.050000">
        <ele>308.0</ele>
        <time>2012-03-10T11:26:57Z</time>
      </trkpt>
      <trkpt lat="43.237810" lon="-2.049770">
        <ele>312.0</ele>
        <time>2012-03-10T11:27:17Z</time>
      </trkpt>
      <trkpt lat="43.237900" lon="-2.049580">
        <ele>314.0</ele>
        <time>2012-03-10T11:27:37Z</time>
      </trkpt>
      <trkpt lat="43.238020" lon="-2.049400">
        <ele>317.0</ele>
        <time>2012-03-10T11:27:57Z</time>
      </trkpt>
      <trkpt lat="43.238110" lon="-2.049160">
        <ele>318.0</ele>
        <time>2012-03-10T11:28:17Z</time>
      </trkpt>
      <trkpt lat="43.238180" lon="-2.048950">
        <ele>323.0</ele>
        <time>2012-03-10T11:28:37Z</time>
      </trkpt>
      <trkpt lat="43.238250" lon="-2.048920">
        <ele>325.0</ele>
        <time>2012-03-10T11:28:57Z</time>
      </trkpt>
      <trkpt lat="43.238350" lon="-2.048650">
        <ele>322.0</ele>
        <time>2012-03-10T11:29:19Z</time>
      </trkpt>
      <trkpt lat="43.238540" lon="-2.048410">
        <ele>323.0</ele>
        <time>2012-03-10T11:29:41Z</time>
      </trkpt>
      <trkpt lat="43.238680" lon="-2.048170">
        <ele>327.0</ele>
        <time>2012-03-10T11:30:05Z</time>
      </trkpt>
      <trkpt lat="43.238460" lon="-2.048050">
        <ele>330.0</ele>
        <time>2012-03-10T11:30:35Z</time>
      </trkpt>
      <trkpt lat="43.238270" lon="-2.048030">
        <ele>331.0</ele>
        <time>2012-03-10T11:30:57Z</time>
      </trkpt>
      <trkpt lat="43.238090" lon="-2.048030">
        <ele>334.0</ele>
        <time>2012-03-10T11:31:17Z</time>
      </trkpt>
      <trkpt lat="43.237900" lon="-2.048080">
        <ele>338.0</ele>
        <time>2012-03-10T11:31:37Z</time>
      </trkpt>
      <trkpt lat="43.237740" lon="-2.048100">
        <ele>339.0</ele>
        <time>2012-03-10T11:31:57Z</time>
      </trkpt>
      <trkpt lat="43.237590" lon="-2.048140">
        <ele>342.0</ele>
        <time>2012-03-10T11:32:17Z</time>
      </trkpt>
      <trkpt lat="43.237430" lon="-2.048200">
        <ele>345.0</ele>
        <time>2012-03-10T11:32:37Z</time>
      </trkpt>
      <trkpt lat="43.237270" lon="-2.048230">
        <ele>349.0</ele>
        <time>2012-03-10T11:32:57Z</time>
      </trkpt>
      <trkpt lat="43.237110" lon="-2.048320">
        <ele>349.0</ele>
        <time>2012-03-10T11:33:17Z</time>
      </trkpt>
      <trkpt lat="43.237110" lon="-2.048300">
        <ele>346.0</ele>
        <time>2012-03-10T11:33:37Z</time>
      </trkpt>
      <trkpt lat="43.237110" lon="-2.048140">
        <ele>350.0</ele>
        <time>2012-03-10T11:33:57Z</time>
      </trkpt>
      <trkpt lat="43.237200" lon="-2.047890">
        <ele>353.0</ele>
        <time>2012-03-10T11:34:17Z</time>
      </trkpt>
      <trkpt lat="43.237310" lon="-2.047650">
        <ele>354.0</ele>
        <time>2012-03-10T11:34:37Z</time>
      </trkpt>
      <trkpt lat="43.237400" lon="-2.047410">
        <ele>352.0</ele>
        <time>2012-03-10T11:34:57Z</time>
      </trkpt>
      <trkpt lat="43.237520" lon="-2.047200">
        <ele>353.0</ele>
        <time>2012-03-10T11:35:17Z</time>
      </trkpt>
      <trkpt lat="43.237690" lon="-2.046970">
        <ele>358.0</ele>
        <time>2012-03-10T11:35:37Z</time>
      </trkpt>
      <trkpt lat="43.237840" lon="-2.046700">
        <ele>357.0</ele>
        <time>2012-03-10T11:35:57Z</time>
      </trkpt>
      <trkpt lat="43.237990" lon="-2.046420">
        <ele>357.0</ele>
        <time>2012-03-10T11:36:17Z</time>
      </trkpt>
      <trkpt lat="43.238080" lon="-2.046190">
        <ele>361.0</ele>
        <time>2012-03-10T11:36:37Z</time>
      </trkpt>
      <trkpt lat="43.238090" lon="-2.045950">
        <ele>364.0</ele>
        <time>2012-03-10T11:36:57Z</time>
      </trkpt>
      <trkpt lat="43.238010" lon="-2.045760">
        <ele>363.0</ele>
        <time>2012-03-10T11:37:17Z</time>
      </trkpt>
      <trkpt lat="43.237930" lon="-2.045820">
        <ele>366.0</ele>
        <time>2012-03-10T11:37:37Z</time>
      </trkpt>
      <trkpt lat="43.237700" lon="-2.045910">
        <ele>366.0</ele>
        <time>2012-03-10T11:37:57Z</time>
      </trkpt>
      <trkpt lat="43.237500" lon="-2.046040">
        <ele>368.0</ele>
        <time>2012-03-10T11:38:17Z</time>
      </trkpt>
      <trkpt lat="43.237280" lon="-2.046150">
        <ele>374.0</ele>
        <time>2012-03-10T11:38:37Z</time>
      </trkpt>
      <trkpt lat="43.237080" lon="-2.046280">
        <ele>375.0</ele>
        <time>2012-03-10T11:38:57Z</time>
      </trkpt>
      <trkpt lat="43.236860" lon="-2.046410">
        <ele>378.0</ele>
        <time>2012-03-10T11:39:17Z</time>
      </trkpt>
      <trkpt lat="43.236660" lon="-2.046540">
        <ele>377.0</ele>
        <time>2012-03-10T11:39:37Z</time>
      </trkpt>
      <trkpt lat="43.236470" lon="-2.046710">
        <ele>380.0</ele>
        <time>2012-03-10T11:39:57Z</time>
      </trkpt>
      <trkpt lat="43.236250" lon="-2.046810">
        <ele>381.0</ele>
        <time>2012-03-10T11:40:17Z</time>
      </trkpt>
      <trkpt lat="43.236040" lon="-2.046880">
        <ele>382.0</ele>
        <time>2012-03-10T11:40:37Z</time>
      </trkpt>
      <trkpt lat="43.235790" lon="-2.046960">
        <ele>388.0</ele>
        <time>2012-03-10T11:40:57Z</time>
      </trkpt>
      <trkpt lat="43.235570" lon="-2.047010">
        <ele>392.0</ele>
        <time>2012-03-10T11:41:17Z</time>
      </trkpt>
      <trkpt lat="43.235530" lon="-2.047040">
        <ele>391.0</ele>
        <time>2012-03-10T11:41:37Z</time>
      </trkpt>
      <trkpt lat="43.235420" lon="-2.047060">
        <ele>391.0</ele>
        <time>2012-03-10T11:41:57Z</time>
      </trkpt>
      <trkpt lat="43.235250" lon="-2.047120">
        <ele>392.0</ele>
        <time>2012-03-10T11:42:17Z</time>
      </trkpt>
      <trkpt lat="43.235130" lon="-2.047120">
        <ele>393.0</ele>
        <time>2012-03-10T11:42:37Z</time>
      </trkpt>
      <trkpt lat="43.235130" lon="-2.047110">
        <ele>393.0</ele>
        <time>2012-03-10T11:42:57Z</time>
      </trkpt>
      <trkpt lat="43.235000" lon="-2.047130">
        <ele>391.0</ele>
        <time>2012-03-10T11:43:17Z</time>
      </trkpt>
      <trkpt lat="43.234990" lon="-2.047130">
        <ele>392.0</ele>
        <time>2012-03-10T11:43:37Z</time>
      </trkpt>
      <trkpt lat="43.234980" lon="-2.047120">
        <ele>393.0</ele>
        <time>2012-03-10T11:43:57Z</time>
      </trkpt>
      <trkpt lat="43.234800" lon="-2.047180">
        <ele>394.0</ele>
        <time>2012-03-10T11:44:17Z</time>
      </trkpt>
      <trkpt lat="43.234650" lon="-2.047270">
        <ele>392.0</ele>
        <time>2012-03-10T11:44:37Z</time>
      </trkpt>
      <trkpt lat="43.234600" lon="-2.047280">
        <ele>392.0</ele>
        <time>2012-03-10T11:44:57Z</time>
      </trkpt>
      <trkpt lat="43.234400" lon="-2.047280">
        <ele>393.0</ele>
        <time>2012-03-10T11:45:17Z</time>
      </trkpt>
      <trkpt lat="43.234190" lon="-2.047270">
        <ele>393.0</ele>
        <time>2012-03-10T11:45:37Z</time>
      </trkpt>
      <trkpt lat="43.234000" lon="-2.047340">
        <ele>391.0</ele>
        <time>2012-03-10T11:45:57Z</time>
      </trkpt>
      <trkpt lat="43.234010" lon="-2.047320">
        <ele>391.0</ele>
        <time>2012-03-10T11:46:17Z</time>
      </trkpt>
      <trkpt lat="43.233800" lon="-2.047340">
        <ele>391.0</ele>
        <time>2012-03-10T11:46:37Z</time>
      </trkpt>
      <trkpt lat="43.233600" lon="-2.047530">
        <ele>389.0</ele>
        <time>2012-03-10T11:46:57Z</time>
      </trkpt>
      <trkpt lat="43.233390" lon="-2.047670">
        <ele>387.0</ele>
        <time>2012-03-10T11:47:17Z</time>
      </trkpt>
      <trkpt lat="43.233150" lon="-2.047760">
        <ele>385.0</ele>
        <time>2012-03-10T11:47:37Z</time>
      </trkpt>
      <trkpt lat="43.232920" lon="-2.047770">
        <ele>383.0</ele>
        <time>2012-03-10T11:47:57Z</time>
      </trkpt>
      <trkpt lat="43.232670" lon="-2.047800">
        <ele>384.0</ele>
        <time>2012-03-10T11:48:17Z</time>
      </trkpt>
      <trkpt lat="43.232440" lon="-2.047760">
        <ele>382.0</ele>
        <time>2012-03-10T11:48:37Z</time>
      </trkpt>
      <trkpt lat="43.232220" lon="-2.047620">
        <ele>379.0</ele>
        <time>2012-03-10T11:48:57Z</time>
      </trkpt>
      <trkpt lat="43.232200" lon="-2.047590">
        <ele>377.0</ele>
        <time>2012-03-10T11:49:17Z</time>
      </trkpt>
      <trkpt lat="43.232180" lon="-2.047510">
        <ele>381.0</ele>
        <time>2012-03-10T11:49:37Z</time>
      </trkpt>
      <trkpt lat="43.232110" lon="-2.047340">
        <ele>372.0</ele>
        <time>2012-03-10T11:49:57Z</time>
      </trkpt>
      <trkpt lat="43.232000" lon="-2.047150">
        <ele>364.0</ele>
        <time>2012-03-10T11:50:17Z</time>
      </trkpt>
      <trkpt lat="43.231880" lon="-2.046850">
        <ele>359.0</ele>
        <time>2012-03-10T11:50:37Z</time>
      </trkpt>
      <trkpt lat="43.231860" lon="-2.046640">
        <ele>360.0</ele>
        <time>2012-03-10T11:50:57Z</time>
      </trkpt>
      <trkpt lat="43.231930" lon="-2.046320">
        <ele>359.0</ele>
        <time>2012-03-10T11:51:17Z</time>
      </trkpt>
      <trkpt lat="43.232020" lon="-2.045990">
        <ele>358.0</ele>
        <time>2012-03-10T11:51:37Z</time>
      </trkpt>
      <trkpt lat="43.232170" lon="-2.045810">
        <ele>354.0</ele>
        <time>2012-03-10T11:51:57Z</time>
      </trkpt>
      <trkpt lat="43.232190" lon="-2.045570">
        <ele>354.0</ele>
        <time>2012-03-10T11:52:17Z</time>
      </trkpt>
      <trkpt lat="43.232220" lon="-2.045520">
        <ele>351.0</ele>
        <time>2012-03-10T11:52:37Z</time>
      </trkpt>
      <trkpt lat="43.232260" lon="-2.045540">
        <ele>345.0</ele>
        <time>2012-03-10T11:52:57Z</time>
      </trkpt>
      <trkpt lat="43.232040" lon="-2.045600">
        <ele>345.0</ele>
        <time>2012-03-10T11:53:20Z</time>
      </trkpt>
      <trkpt lat="43.231700" lon="-2.045660">
        <ele>347.0</ele>
        <time>2012-03-10T11:53:40Z</time>
      </trkpt>
      <trkpt lat="43.231460" lon="-2.045650">
        <ele>342.0</ele>
        <time>2012-03-10T11:54:00Z</time>
      </trkpt>
      <trkpt lat="43.231290" lon="-2.045710">
        <ele>346.0</ele>
        <time>2012-03-10T11:54:22Z</time>
      </trkpt>
      <trkpt lat="43.231120" lon="-2.045840">
        <ele>353.0</ele>
        <time>2012-03-10T11:54:44Z</time>
      </trkpt>
      <trkpt lat="43.230870" lon="-2.045930">
        <ele>352.0</ele>
        <time>2012-03-10T11:55:06Z</time>
      </trkpt>
      <trkpt lat="43.230640" lon="-2.045940">
        <ele>353.0</ele>
        <time>2012-03-10T11:55:26Z</time>
      </trkpt>
      <trkpt lat="43.230370" lon="-2.045910">
        <ele>353.0</ele>
        <time>2012-03-10T11:55:46Z</time>
      </trkpt>
      <trkpt lat="43.230110" lon="-2.045860">
        <ele>353.0</ele>
        <time>2012-03-10T11:56:06Z</time>
      </trkpt>
      <trkpt lat="43.229820" lon="-2.045870">
        <ele>356.0</ele>
        <time>2012-03-10T11:56:26Z</time>
      </trkpt>
      <trkpt lat="43.229610" lon="-2.045800">
        <ele>358.0</ele>
        <time>2012-03-10T11:56:46Z</time>
      </trkpt>
      <trkpt lat="43.229400" lon="-2.045820">
        <ele>354.0</ele>
        <time>2012-03-10T11:57:06Z</time>
      </trkpt>
      <trkpt lat="43.229000" lon="-2.045850">
        <ele>350.0</ele>
        <time>2012-03-10T11:57:36Z</time>
      </trkpt>
      <trkpt lat="43.228710" lon="-2.045760">
        <ele>350.0</ele>
        <time>2012-03-10T11:57:56Z</time>
      </trkpt>
      <trkpt lat="43.228530" lon="-2.045610">
        <ele>351.0</ele>
        <time>2012-03-10T11:58:16Z</time>
      </trkpt>
      <trkpt lat="43.228390" lon="-2.045450">
        <ele>357.0</ele>
        <time>2012-03-10T11:58:36Z</time>
      </trkpt>
      <trkpt lat="43.228430" lon="-2.045370">
        <ele>363.0</ele>
        <time>2012-03-10T11:58:56Z</time>
      </trkpt>
      <trkpt lat="43.228430" lon="-2.045340">
        <ele>364.0</ele>
        <time>2012-03-10T11:59:16Z</time>
      </trkpt>
      <trkpt lat="43.228440" lon="-2.045340">
        <ele>363.0</ele>
        <time>2012-03-10T11:59:36Z</time>
      </trkpt>
      <trkpt lat="43.228440" lon="-2.045270">
        <ele>365.0</ele>
        <time>2012-03-10T11:59:56Z</time>
      </trkpt>
      <trkpt lat="43.228430" lon="-2.045240">
        <ele>368.0</ele>
        <time>2012-03-10T12:00:17Z</time>
      </trkpt>
      <trkpt lat="43.228390" lon="-2.045220">
        <ele>368.0</ele>
        <time>2012-03-10T12:00:37Z</time>
      </trkpt>
      <trkpt lat="43.228180" lon="-2.045240">
        <ele>370.0</ele>
        <time>2012-03-10T12:00:57Z</time>
      </trkpt>
      <trkpt lat="43.227980" lon="-2.045190">
        <ele>375.0</ele>
        <time>2012-03-10T12:01:17Z</time>
      </trkpt>
      <trkpt lat="43.227770" lon="-2.045130">
        <ele>380.0</ele>
        <time>2012-03-10T12:01:37Z</time>
      </trkpt>
      <trkpt lat="43.227580" lon="-2.045120">
        <ele>376.0</ele>
        <time>2012-03-10T12:01:57Z</time>
      </trkpt>
      <trkpt lat="43.227420" lon="-2.045220">
        <ele>379.0</ele>
        <time>2012-03-10T12:02:17Z</time>
      </trkpt>
      <trkpt lat="43.227260" lon="-2.045310">
        <ele>379.0</ele>
        <time>2012-03-10T12:02:37Z</time>
      </trkpt>
      <trkpt lat="43.227100" lon="-2.045410">
        <ele>384.0</ele>
        <time>2012-03-10T12:02:57Z</time>
      </trkpt>
      <trkpt lat="43.226900" lon="-2.045440">
        <ele>386.0</ele>
        <time>2012-03-10T12:03:17Z</time>
      </trkpt>
      <trkpt lat="43.226720" lon="-2.045580">
        <ele>383.0</ele>
        <time>2012-03-10T12:03:37Z</time>
      </trkpt>
      <trkpt lat="43.226590" lon="-2.045840">
        <ele>382.0</ele>
        <time>2012-03-10T12:03:57Z</time>
      </trkpt>
      <trkpt lat="43.226470" lon="-2.046070">
        <ele>382.0</ele>
        <time>2012-03-10T12:04:17Z</time>
      </trkpt>
      <trkpt lat="43.226360" lon="-2.046330">
        <ele>389.0</ele>
        <time>2012-03-10T12:04:37Z</time>
      </trkpt>
      <trkpt lat="43.226250" lon="-2.046580">
        <ele>391.0</ele>
        <time>2012-03-10T12:04:57Z</time>
      </trkpt>
      <trkpt lat="43.226070" lon="-2.046830">
        <ele>389.0</ele>
        <time>2012-03-10T12:05:17Z</time>
      </trkpt>
      <trkpt lat="43.225890" lon="-2.046960">
        <ele>386.0</ele>
        <time>2012-03-10T12:05:37Z</time>
      </trkpt>
      <trkpt lat="43.225670" lon="-2.046980">
        <ele>388.0</ele>
        <time>2012-03-10T12:05:57Z</time>
      </trkpt>
      <trkpt lat="43.225450" lon="-2.046920">
        <ele>396.0</ele>
        <time>2012-03-10T12:06:17Z</time>
      </trkpt>
      <trkpt lat="43.225220" lon="-2.046850">
        <ele>399.0</ele>
        <time>2012-03-10T12:06:37Z</time>
      </trkpt>
      <trkpt lat="43.225070" lon="-2.046630">
        <ele>403.0</ele>
        <time>2012-03-10T12:06:57Z</time>
      </trkpt>
      <trkpt lat="43.224970" lon="-2.046610">
        <ele>403.0</ele>
        <time>2012-03-10T12:07:17Z</time>
      </trkpt>
      <trkpt lat="43.224820" lon="-2.046690">
        <ele>407.0</ele>
        <time>2012-03-10T12:07:37Z</time>
      </trkpt>
      <trkpt lat="43.224630" lon="-2.046770">
        <ele>405.0</ele>
        <time>2012-03-10T12:07:57Z</time>
      </trkpt>
      <trkpt lat="43.224490" lon="-2.046800">
        <ele>406.0</ele>
        <time>2012-03-10T12:08:17Z</time>
      </trkpt>
      <trkpt lat="43.224330" lon="-2.046860">
        <ele>408.0</ele>
        <time>2012-03-10T12:08:37Z</time>
      </trkpt>
      <trkpt lat="43.224180" lon="-2.046930">
        <ele>411.0</ele>
        <time>2012-03-10T12:08:57Z</time>
      </trkpt>
      <trkpt lat="43.224040" lon="-2.046960">
        <ele>415.0</ele>
        <time>2012-03-10T12:09:17Z</time>
      </trkpt>
      <trkpt lat="43.223930" lon="-2.046990">
        <ele>410.0</ele>
        <time>2012-03-10T12:09:37Z</time>
      </trkpt>
      <trkpt lat="43.223850" lon="-2.047000">
        <ele>413.0</ele>
        <time>2012-03-10T12:09:57Z</time>
      </trkpt>
      <trkpt lat="43.223770" lon="-2.047010">
        <ele>420.0</ele>
        <time>2012-03-10T12:10:17Z</time>
      </trkpt>
      <trkpt lat="43.223770" lon="-2.047010">
        <ele>425.0</ele>
        <time>2012-03-10T12:10:37Z</time>
      </trkpt>
      <trkpt lat="43.223670" lon="-2.047040">
        <ele>436.0</ele>
        <time>2012-03-10T12:10:57Z</time>
      </trkpt>
      <trkpt lat="43.223550" lon="-2.047080">
        <ele>434.0</ele>
        <time>2012-03-10T12:11:17Z</time>
      </trkpt>
      <trkpt lat="43.223420" lon="-2.047210">
        <ele>435.0</ele>
        <time>2012-03-10T12:11:37Z</time>
      </trkpt>
      <trkpt lat="43.223290" lon="-2.047460">
        <ele>438.0</ele>
        <time>2012-03-10T12:11:57Z</time>
      </trkpt>
      <trkpt lat="43.223130" lon="-2.047620">
        <ele>442.0</ele>
        <time>2012-03-10T12:12:17Z</time>
      </trkpt>
      <trkpt lat="43.222970" lon="-2.047820">
        <ele>447.0</ele>
        <time>2012-03-10T12:12:37Z</time>
      </trkpt>
      <trkpt lat="43.222800" lon="-2.047960">
        <ele>450.0</ele>
        <time>2012-03-10T12:12:57Z</time>
      </trkpt>
      <trkpt lat="43.222610" lon="-2.048110">
        <ele>454.0</ele>
        <time>2012-03-10T12:13:17Z</time>
      </trkpt>
      <trkpt lat="43.222470" lon="-2.048260">
        <ele>455.0</ele>
        <time>2012-03-10T12:13:37Z</time>
      </trkpt>
      <trkpt lat="43.222330" lon="-2.048350">
        <ele>455.0</ele>
        <time>2012-03-10T12:13:57Z</time>
      </trkpt>
      <trkpt lat="43.222200" lon="-2.048430">
        <ele>458.0</ele>
        <time>2012-03-10T12:14:17Z</time>
      </trkpt>
      <trkpt lat="43.222030" lon="-2.048580">
        <ele>463.0</ele>
        <time>2012-03-10T12:14:37Z</time>
      </trkpt>
      <trkpt lat="43.221910" lon="-2.048660">
        <ele>462.0</ele>
        <time>2012-03-10T12:14:57Z</time>
      </trkpt>
      <trkpt lat="43.221790" lon="-2.048740">
        <ele>465.0</ele>
        <time>2012-03-10T12:15:17Z</time>
      </trkpt>
      <trkpt lat="43.221650" lon="-2.048810">
        <ele>467.0</ele>
        <time>2012-03-10T12:15:37Z</time>
      </trkpt>
      <trkpt lat="43.221540" lon="-2.048940">
        <ele>466.0</ele>
        <time>2012-03-10T12:15:57Z</time>
      </trkpt>
      <trkpt lat="43.221450" lon="-2.049120">
        <ele>466.0</ele>
        <time>2012-03-10T12:16:17Z</time>
      </trkpt>
      <trkpt lat="43.221390" lon="-2.049280">
        <ele>466.0</ele>
        <time>2012-03-10T12:16:37Z</time>
      </trkpt>
      <trkpt lat="43.221310" lon="-2.049510">
        <ele>468.0</ele>
        <time>2012-03-10T12:16:57Z</time>
      </trkpt>
      <trkpt lat="43.221250" lon="-2.049690">
        <ele>468.0</ele>
        <time>2012-03-10T12:17:17Z</time>
      </trkpt>
      <trkpt lat="43.221170" lon="-2.049890">
        <ele>468.0</ele>
        <time>2012-03-10T12:17:37Z</time>
      </trkpt>
      <trkpt lat="43.221080" lon="-2.050110">
        <ele>474.0</ele>
        <time>2012-03-10T12:17:57Z</time>
      </trkpt>
      <trkpt lat="43.220990" lon="-2.050320">
        <ele>479.0</ele>
        <time>2012-03-10T12:18:17Z</time>
      </trkpt>
      <trkpt lat="43.220870" lon="-2.050570">
        <ele>482.0</ele>
        <time>2012-03-10T12:18:37Z</time>
      </trkpt>
      <trkpt lat="43.220780" lon="-2.050800">
        <ele>483.0</ele>
        <time>2012-03-10T12:18:57Z</time>
      </trkpt>
      <trkpt lat="43.220710" lon="-2.050970">
        <ele>487.0</ele>
        <time>2012-03-10T12:19:17Z</time>
      </trkpt>
      <trkpt lat="43.220640" lon="-2.051160">
        <ele>487.0</ele>
        <time>2012-03-10T12:19:37Z</time>
      </trkpt>
      <trkpt lat="43.220600" lon="-2.051070">
        <ele>488.0</ele>
        <time>2012-03-10T12:19:57Z</time>
      </trkpt>
      <trkpt lat="43.220620" lon="-2.051080">
        <ele>486.0</ele>
        <time>2012-03-10T12:20:20Z</time>
      </trkpt>
      <trkpt lat="43.220720" lon="-2.051190">
        <ele>476.0</ele>
        <time>2012-03-10T12:20:40Z</time>
      </trkpt>
      <trkpt lat="43.220650" lon="-2.051180">
        <ele>468.0</ele>
        <time>2012-03-10T12:21:03Z</time>
      </trkpt>
      <trkpt lat="43.220640" lon="-2.051150">
        <ele>480.0</ele>
        <time>2012-03-10T12:21:26Z</time>
      </trkpt>
      <trkpt lat="43.220640" lon="-2.051150">
        <ele>482.0</ele>
        <time>2012-03-10T12:21:48Z</time>
      </trkpt>
      <trkpt lat="43.220630" lon="-2.051140">
        <ele>477.0</ele>
        <time>2012-03-10T12:22:08Z</time>
      </trkpt>
      <trkpt lat="43.220640" lon="-2.051140">
        <ele>479.0</ele>
        <time>2012-03-10T12:22:28Z</time>
      </trkpt>
      <trkpt lat="43.220630" lon="-2.051140">
        <ele>480.0</ele>
        <time>2012-03-10T12:22:48Z</time>
      </trkpt>
      <trkpt lat="43.220630" lon="-2.051140">
        <ele>480.0</ele>
        <time>2012-03-10T12:23:08Z</time>
      </trkpt>
      <trkpt lat="43.220620" lon="-2.051140">
        <ele>480.0</ele>
        <time>2012-03-10T12:23:28Z</time>
      </trkpt>
      <trkpt lat="43.220610" lon="-2.051140">
        <ele>481.0</ele>
        <time>2012-03-10T12:23:48Z</time>
      </trkpt>
      <trkpt lat="43.220610" lon="-2.051140">
        <ele>481.0</ele>
        <time>2012-03-10T12:24:08Z</time>
      </trkpt>
      <trkpt lat="43.220610" lon="-2.051160">
        <ele>483.0</ele>
        <time>2012-03-10T12:24:28Z</time>
      </trkpt>
      <trkpt lat="43.220550" lon="-2.051310">
        <ele>486.0</ele>
        <time>2012-03-10T12:24:48Z</time>
      </trkpt>
      <trkpt lat="43.220500" lon="-2.051550">
        <ele>479.0</ele>
        <time>2012-03-10T12:25:08Z</time>
      </trkpt>
      <trkpt lat="43.220470" lon="-2.051750">
        <ele>477.0</ele>
        <time>2012-03-10T12:25:28Z</time>
      </trkpt>
      <trkpt lat="43.220420" lon="-2.051990">
        <ele>478.0</ele>
        <time>2012-03-10T12:25:48Z</time>
      </trkpt>
      <trkpt lat="43.220390" lon="-2.052240">
        <ele>475.0</ele>
        <time>2012-03-10T12:26:08Z</time>
      </trkpt>
      <trkpt lat="43.220350" lon="-2.052520">
        <ele>472.0</ele>
        <time>2012-03-10T12:26:28Z</time>
      </trkpt>
      <trkpt lat="43.220270" lon="-2.052790">
        <ele>470.0</ele>
        <time>2012-03-10T12:26:48Z</time>
      </trkpt>
      <trkpt lat="43.220220" lon="-2.053030">
        <ele>468.0</ele>
        <time>2012-03-10T12:27:08Z</time>
      </trkpt>
      <trkpt lat="43.220190" lon="-2.053260">
        <ele>465.0</ele>
        <time>2012-03-10T12:27:28Z</time>
      </trkpt>
      <trkpt lat="43.220160" lon="-2.053540">
        <ele>459.0</ele>
        <time>2012-03-10T12:27:48Z</time>
      </trkpt>
      <trkpt lat="43.220090" lon="-2.053820">
        <ele>451.0</ele>
        <time>2012-03-10T12:28:08Z</time>
      </trkpt>
      <trkpt lat="43.220070" lon="-2.054090">
        <ele>446.0</ele>
        <time>2012-03-10T12:28:28Z</time>
      </trkpt>
      <trkpt lat="43.220080" lon="-2.054360">
        <ele>443.0</ele>
        <time>2012-03-10T12:28:48Z</time>
      </trkpt>
      <trkpt lat="43.220070" lon="-2.054630">
        <ele>439.0</ele>
        <time>2012-03-10T12:29:08Z</time>
      </trkpt>
      <trkpt lat="43.220110" lon="-2.054890">
        <ele>436.0</ele>
        <time>2012-03-10T12:29:28Z</time>
      </trkpt>
      <trkpt lat="43.220160" lon="-2.055180">
        <ele>435.0</ele>
        <time>2012-03-10T12:29:48Z</time>
      </trkpt>
      <trkpt lat="43.220200" lon="-2.055460">
        <ele>427.0</ele>
        <time>2012-03-10T12:30:08Z</time>
      </trkpt>
      <trkpt lat="43.220240" lon="-2.055720">
        <ele>424.0</ele>
        <time>2012-03-10T12:30:28Z</time>
      </trkpt>
      <trkpt lat="43.220240" lon="-2.055990">
        <ele>421.0</ele>
        <time>2012-03-10T12:30:48Z</time>
      </trkpt>
      <trkpt lat="43.220270" lon="-2.056220">
        <ele>410.0</ele>
        <time>2012-03-10T12:31:08Z</time>
      </trkpt>
      <trkpt lat="43.220280" lon="-2.056490">
        <ele>409.0</ele>
        <time>2012-03-10T12:31:28Z</time>
      </trkpt>
      <trkpt lat="43.220250" lon="-2.056740">
        <ele>406.0</ele>
        <time>2012-03-10T12:31:48Z</time>
      </trkpt>
      <trkpt lat="43.220170" lon="-2.057110">
        <ele>409.0</ele>
        <time>2012-03-10T12:32:08Z</time>
      </trkpt>
      <trkpt lat="43.220090" lon="-2.057430">
        <ele>411.0</ele>
        <time>2012-03-10T12:32:28Z</time>
      </trkpt>
      <trkpt lat="43.219960" lon="-2.057630">
        <ele>407.0</ele>
        <time>2012-03-10T12:32:48Z</time>
      </trkpt>
      <trkpt lat="43.219880" lon="-2.057720">
        <ele>406.0</ele>
        <time>2012-03-10T12:33:08Z</time>
      </trkpt>
      <trkpt lat="43.219780" lon="-2.057830">
        <ele>406.0</ele>
        <time>2012-03-10T12:33:28Z</time>
      </trkpt>
      <trkpt lat="43.219680" lon="-2.058080">
        <ele>399.0</ele>
        <time>2012-03-10T12:33:48Z</time>
      </trkpt>
      <trkpt lat="43.219510" lon="-2.058290">
        <ele>397.0</ele>
        <time>2012-03-10T12:34:08Z</time>
      </trkpt>
      <trkpt lat="43.219380" lon="-2.058490">
        <ele>396.0</ele>
        <time>2012-03-10T12:34:28Z</time>
      </trkpt>
      <trkpt lat="43.219310" lon="-2.058790">
        <ele>394.0</ele>
        <time>2012-03-10T12:34:48Z</time>
      </trkpt>
      <trkpt lat="43.219250" lon="-2.059080">
        <ele>389.0</ele>
        <time>2012-03-10T12:35:08Z</time>
      </trkpt>
      <trkpt lat="43.219120" lon="-2.059320">
        <ele>384.0</ele>
        <time>2012-03-10T12:35:28Z</time>
      </trkpt>
      <trkpt lat="43.218910" lon="-2.059480">
        <ele>388.0</ele>
        <time>2012-03-10T12:35:48Z</time>
      </trkpt>
      <trkpt lat="43.218700" lon="-2.059610">
        <ele>386.0</ele>
        <time>2012-03-10T12:36:08Z</time>
      </trkpt>
      <trkpt lat="43.218500" lon="-2.059710">
        <ele>377.0</ele>
        <time>2012-03-10T12:36:28Z</time>
      </trkpt>
      <trkpt lat="43.218290" lon="-2.059800">
        <ele>375.0</ele>
        <time>2012-03-10T12:36:48Z</time>
      </trkpt>
      <trkpt lat="43.218070" lon="-2.059900">
        <ele>378.0</ele>
        <time>2012-03-10T12:37:08Z</time>
      </trkpt>
      <trkpt lat="43.217900" lon="-2.060040">
        <ele>372.0</ele>
        <time>2012-03-10T12:37:28Z</time>
      </trkpt>
      <trkpt lat="43.217840" lon="-2.060340">
        <ele>366.0</ele>
        <time>2012-03-10T12:37:48Z</time>
      </trkpt>
      <trkpt lat="43.217960" lon="-2.060600">
        <ele>364.0</ele>
        <time>2012-03-10T12:38:08Z</time>
      </trkpt>
      <trkpt lat="43.218050" lon="-2.060880">
        <ele>364.0</ele>
        <time>2012-03-10T12:38:28Z</time>
      </trkpt>
      <trkpt lat="43.218210" lon="-2.061000">
        <ele>358.0</ele>
        <time>2012-03-10T12:38:48Z</time>
      </trkpt>
      <trkpt lat="43.218410" lon="-2.061050">
        <ele>361.0</ele>
        <time>2012-03-10T12:39:08Z</time>
      </trkpt>
      <trkpt lat="43.218640" lon="-2.060950">
        <ele>349.0</ele>
        <time>2012-03-10T12:39:28Z</time>
      </trkpt>
      <trkpt lat="43.218910" lon="-2.060990">
        <ele>350.0</ele>
        <time>2012-03-10T12:39:48Z</time>
      </trkpt>
      <trkpt lat="43.219110" lon="-2.061150">
        <ele>357.0</ele>
        <time>2012-03-10T12:40:08Z</time>
      </trkpt>
      <trkpt lat="43.219220" lon="-2.061340">
        <ele>349.0</ele>
        <time>2012-03-10T12:40:28Z</time>
      </trkpt>
      <trkpt lat="43.219300" lon="-2.061560">
        <ele>351.0</ele>
        <time>2012-03-10T12:40:48Z</time>
      </trkpt>
      <trkpt lat="43.219360" lon="-2.061750">
        <ele>347.0</ele>
        <time>2012-03-10T12:41:08Z</time>
      </trkpt>
      <trkpt lat="43.219260" lon="-2.061590">
        <ele>341.0</ele>
        <time>2012-03-10T12:41:28Z</time>
      </trkpt>
      <trkpt lat="43.219090" lon="-2.061400">
        <ele>339.0</ele>
        <time>2012-03-10T12:41:48Z</time>
      </trkpt>
      <trkpt lat="43.218890" lon="-2.061270">
        <ele>333.0</ele>
        <time>2012-03-10T12:42:08Z</time>
      </trkpt>
      <trkpt lat="43.218650" lon="-2.061370">
        <ele>333.0</ele>
        <time>2012-03-10T12:42:28Z</time>
      </trkpt>
      <trkpt lat="43.218430" lon="-2.061560">
        <ele>337.0</ele>
        <time>2012-03-10T12:42:48Z</time>
      </trkpt>
      <trkpt lat="43.218230" lon="-2.061740">
        <ele>336.0</ele>
        <time>2012-03-10T12:43:08Z</time>
      </trkpt>
      <trkpt lat="43.218020" lon="-2.061820">
        <ele>332.0</ele>
        <time>2012-03-10T12:43:28Z</time>
      </trkpt>
      <trkpt lat="43.217830" lon="-2.061710">
        <ele>324.0</ele>
        <time>2012-03-10T12:43:48Z</time>
      </trkpt>
      <trkpt lat="43.217640" lon="-2.061530">
        <ele>321.0</ele>
        <time>2012-03-10T12:44:08Z</time>
      </trkpt>
      <trkpt lat="43.217410" lon="-2.061430">
        <ele>325.0</ele>
        <time>2012-03-10T12:44:28Z</time>
      </trkpt>
      <trkpt lat="43.217190" lon="-2.061330">
        <ele>325.0</ele>
        <time>2012-03-10T12:44:48Z</time>
      </trkpt>
      <trkpt lat="43.216940" lon="-2.061280">
        <ele>320.0</ele>
        <time>2012-03-10T12:45:08Z</time>
      </trkpt>
      <trkpt lat="43.216740" lon="-2.061200">
        <ele>308.0</ele>
        <time>2012-03-10T12:45:28Z</time>
      </trkpt>
      <trkpt lat="43.216500" lon="-2.061150">
        <ele>302.0</ele>
        <time>2012-03-10T12:45:48Z</time>
      </trkpt>
      <trkpt lat="43.216250" lon="-2.061070">
        <ele>298.0</ele>
        <time>2012-03-10T12:46:08Z</time>
      </trkpt>
      <trkpt lat="43.216060" lon="-2.061010">
        <ele>296.0</ele>
        <time>2012-03-10T12:46:28Z</time>
      </trkpt>
      <trkpt lat="43.215850" lon="-2.060890">
        <ele>301.0</ele>
        <time>2012-03-10T12:46:48Z</time>
      </trkpt>
      <trkpt lat="43.215630" lon="-2.060760">
        <ele>301.0</ele>
        <time>2012-03-10T12:47:08Z</time>
      </trkpt>
      <trkpt lat="43.215470" lon="-2.060650">
        <ele>297.0</ele>
        <time>2012-03-10T12:47:28Z</time>
      </trkpt>
      <trkpt lat="43.215280" lon="-2.060460">
        <ele>289.0</ele>
        <time>2012-03-10T12:47:48Z</time>
      </trkpt>
      <trkpt lat="43.215030" lon="-2.060310">
        <ele>285.0</ele>
        <time>2012-03-10T12:48:10Z</time>
      </trkpt>
      <trkpt lat="43.214820" lon="-2.060270">
        <ele>275.0</ele>
        <time>2012-03-10T12:48:30Z</time>
      </trkpt>
      <trkpt lat="43.214580" lon="-2.060280">
        <ele>287.0</ele>
        <time>2012-03-10T12:48:50Z</time>
      </trkpt>
      <trkpt lat="43.214310" lon="-2.060280">
        <ele>288.0</ele>
        <time>2012-03-10T12:49:10Z</time>
      </trkpt>
      <trkpt lat="43.214170" lon="-2.060230">
        <ele>286.0</ele>
        <time>2012-03-10T12:49:30Z</time>
      </trkpt>
      <trkpt lat="43.214160" lon="-2.060220">
        <ele>288.0</ele>
        <time>2012-03-10T12:49:50Z</time>
      </trkpt>
      <trkpt lat="43.213950" lon="-2.060100">
        <ele>299.0</ele>
        <time>2012-03-10T12:50:12Z</time>
      </trkpt>
      <trkpt lat="43.213720" lon="-2.060050">
        <ele>291.0</ele>
        <time>2012-03-10T12:50:32Z</time>
      </trkpt>
      <trkpt lat="43.213470" lon="-2.060080">
        <ele>288.0</ele>
        <time>2012-03-10T12:50:52Z</time>
      </trkpt>
      <trkpt lat="43.213240" lon="-2.060060">
        <ele>296.0</ele>
        <time>2012-03-10T12:51:12Z</time>
      </trkpt>
      <trkpt lat="43.213020" lon="-2.060120">
        <ele>288.0</ele>
        <time>2012-03-10T12:51:32Z</time>
      </trkpt>
      <trkpt lat="43.212830" lon="-2.060320">
        <ele>278.0</ele>
        <time>2012-03-10T12:51:52Z</time>
      </trkpt>
      <trkpt lat="43.212680" lon="-2.060570">
        <ele>271.0</ele>
        <time>2012-03-10T12:52:12Z</time>
      </trkpt>
      <trkpt lat="43.212500" lon="-2.060790">
        <ele>275.0</ele>
        <time>2012-03-10T12:52:32Z</time>
      </trkpt>
      <trkpt lat="43.212320" lon="-2.060960">
        <ele>274.0</ele>
        <time>2012-03-10T12:52:52Z</time>
      </trkpt>
      <trkpt lat="43.212150" lon="-2.061120">
        <ele>268.0</ele>
        <time>2012-03-10T12:53:12Z</time>
      </trkpt>
      <trkpt lat="43.212020" lon="-2.061330">
        <ele>257.0</ele>
        <time>2012-03-10T12:53:32Z</time>
      </trkpt>
      <trkpt lat="43.211850" lon="-2.061530">
        <ele>255.0</ele>
        <time>2012-03-10T12:53:52Z</time>
      </trkpt>
      <trkpt lat="43.211670" lon="-2.061720">
        <ele>251.0</ele>
        <time>2012-03-10T12:54:12Z</time>
      </trkpt>
      <trkpt lat="43.211530" lon="-2.061710">
        <ele>247.0</ele>
        <time>2012-03-10T12:54:32Z</time>
      </trkpt>
      <trkpt lat="43.211480" lon="-2.061650">
        <ele>253.0</ele>
        <time>2012-03-10T12:54:52Z</time>
      </trkpt>
      <trkpt lat="43.211550" lon="-2.061440">
        <ele>254.0</ele>
        <time>2012-03-10T12:55:12Z</time>
      </trkpt>
      <trkpt lat="43.211680" lon="-2.061210">
        <ele>241.0</ele>
        <time>2012-03-10T12:55:32Z</time>
      </trkpt>
      <trkpt lat="43.211780" lon="-2.060870">
        <ele>243.0</ele>
        <time>2012-03-10T12:55:52Z</time>
      </trkpt>
      <trkpt lat="43.211880" lon="-2.060500">
        <ele>250.0</ele>
        <time>2012-03-10T12:56:12Z</time>
      </trkpt>
      <trkpt lat="43.211940" lon="-2.060150">
        <ele>251.0</ele>
        <time>2012-03-10T12:56:32Z</time>
      </trkpt>
      <trkpt lat="43.212020" lon="-2.059840">
        <ele>249.0</ele>
        <time>2012-03-10T12:56:52Z</time>
      </trkpt>
      <trkpt lat="43.212070" lon="-2.059540">
        <ele>246.0</ele>
        <time>2012-03-10T12:57:12Z</time>
      </trkpt>
      <trkpt lat="43.212060" lon="-2.059170">
        <ele>242.0</ele>
        <time>2012-03-10T12:57:32Z</time>
      </trkpt>
      <trkpt lat="43.212060" lon="-2.058770">
        <ele>239.0</ele>
        <time>2012-03-10T12:57:52Z</time>
      </trkpt>
      <trkpt lat="43.212050" lon="-2.058400">
        <ele>219.0</ele>
        <time>2012-03-10T12:58:12Z</time>
      </trkpt>
      <trkpt lat="43.212170" lon="-2.058100">
        <ele>211.0</ele>
        <time>2012-03-10T12:58:32Z</time>
      </trkpt>
      <trkpt lat="43.212350" lon="-2.057780">
        <ele>224.0</ele>
        <time>2012-03-10T12:58:52Z</time>
      </trkpt>
      <trkpt lat="43.212430" lon="-2.057450">
        <ele>223.0</ele>
        <time>2012-03-10T12:59:12Z</time>
      </trkpt>
      <trkpt lat="43.212520" lon="-2.057150">
        <ele>216.0</ele>
        <time>2012-03-10T12:59:32Z</time>
      </trkpt>
      <trkpt lat="43.212620" lon="-2.056830">
        <ele>223.0</ele>
        <time>2012-03-10T12:59:52Z</time>
      </trkpt>
      <trkpt lat="43.212650" lon="-2.056480">
        <ele>223.0</ele>
        <time>2012-03-10T13:00:12Z</time>
      </trkpt>
      <trkpt lat="43.212490" lon="-2.056290">
        <ele>212.0</ele>
        <time>2012-03-10T13:00:32Z</time>
      </trkpt>
      <trkpt lat="43.212250" lon="-2.056220">
        <ele>206.0</ele>
        <time>2012-03-10T13:00:52Z</time>
      </trkpt>
      <trkpt lat="43.211960" lon="-2.056110">
        <ele>206.0</ele>
        <time>2012-03-10T13:01:12Z</time>
      </trkpt>
      <trkpt lat="43.211720" lon="-2.056000">
        <ele>204.0</ele>
        <time>2012-03-10T13:01:32Z</time>
      </trkpt>
      <trkpt lat="43.211480" lon="-2.055960">
        <ele>203.0</ele>
        <time>2012-03-10T13:01:52Z</time>
      </trkpt>
      <trkpt lat="43.211250" lon="-2.056070">
        <ele>201.0</ele>
        <time>2012-03-10T13:02:12Z</time>
      </trkpt>
      <trkpt lat="43.211030" lon="-2.056150">
        <ele>195.0</ele>
        <time>2012-03-10T13:02:32Z</time>
      </trkpt>
      <trkpt lat="43.210780" lon="-2.056130">
        <ele>196.0</ele>
        <time>2012-03-10T13:02:52Z</time>
      </trkpt>
      <trkpt lat="43.210510" lon="-2.056150">
        <ele>197.0</ele>
        <time>2012-03-10T13:03:12Z</time>
      </trkpt>
      <trkpt lat="43.210260" lon="-2.056050">
        <ele>194.0</ele>
        <time>2012-03-10T13:03:32Z</time>
      </trkpt>
      <trkpt lat="43.210040" lon="-2.055890">
        <ele>196.0</ele>
        <time>2012-03-10T13:03:52Z</time>
      </trkpt>
      <trkpt lat="43.209810" lon="-2.055960">
        <ele>191.0</ele>
        <time>2012-03-10T13:04:12Z</time>
      </trkpt>
      <trkpt lat="43.209600" lon="-2.056100">
        <ele>185.0</ele>
        <time>2012-03-10T13:04:32Z</time>
      </trkpt>
      <trkpt lat="43.209380" lon="-2.056050">
        <ele>187.0</ele>
        <time>2012-03-10T13:04:52Z</time>
      </trkpt>
      <trkpt lat="43.209190" lon="-2.055820">
        <ele>186.0</ele>
        <time>2012-03-10T13:05:12Z</time>
      </trkpt>
      <trkpt lat="43.209040" lon="-2.055640">
        <ele>187.0</ele>
        <time>2012-03-10T13:05:32Z</time>
      </trkpt>
      <trkpt lat="43.208970" lon="-2.055490">
        <ele>190.0</ele>
        <time>2012-03-10T13:05:52Z</time>
      </trkpt>
      <trkpt lat="43.208850" lon="-2.055460">
        <ele>184.0</ele>
        <time>2012-03-10T13:06:12Z</time>
      </trkpt>
      <trkpt lat="43.208980" lon="-2.055500">
        <ele>185.0</ele>
        <time>2012-03-10T13:06:32Z</time>
      </trkpt>
      <trkpt lat="43.209240" lon="-2.055610">
        <ele>186.0</ele>
        <time>2012-03-10T13:06:54Z</time>
      </trkpt>
      <trkpt lat="43.209550" lon="-2.055810">
        <ele>187.0</ele>
        <time>2012-03-10T13:07:23Z</time>
      </trkpt>
      <trkpt lat="43.209790" lon="-2.055610">
        <ele>182.0</ele>
        <time>2012-03-10T13:07:43Z</time>
      </trkpt>
      <trkpt lat="43.209950" lon="-2.055500">
        <ele>181.0</ele>
        <time>2012-03-10T13:08:05Z</time>
      </trkpt>
      <trkpt lat="43.210180" lon="-2.055750">
        <ele>189.0</ele>
        <time>2012-03-10T13:08:25Z</time>
      </trkpt>
      <trkpt lat="43.210380" lon="-2.055890">
        <ele>191.0</ele>
        <time>2012-03-10T13:08:50Z</time>
      </trkpt>
      <trkpt lat="43.210620" lon="-2.055900">
        <ele>192.0</ele>
        <time>2012-03-10T13:09:13Z</time>
      </trkpt>
      <trkpt lat="43.210660" lon="-2.055910">
        <ele>190.0</ele>
        <time>2012-03-10T13:09:33Z</time>
      </trkpt>
      <trkpt lat="43.210750" lon="-2.055890">
        <ele>183.0</ele>
        <time>2012-03-10T13:09:53Z</time>
      </trkpt>
      <trkpt lat="43.210950" lon="-2.055870">
        <ele>188.0</ele>
        <time>2012-03-10T13:10:13Z</time>
      </trkpt>
      <trkpt lat="43.211130" lon="-2.055820">
        <ele>188.0</ele>
        <time>2012-03-10T13:10:33Z</time>
      </trkpt>
      <trkpt lat="43.211330" lon="-2.055700">
        <ele>188.0</ele>
        <time>2012-03-10T13:10:53Z</time>
      </trkpt>
      <trkpt lat="43.211580" lon="-2.055710">
        <ele>189.0</ele>
        <time>2012-03-10T13:11:13Z</time>
      </trkpt>
      <trkpt lat="43.211830" lon="-2.055740">
        <ele>179.0</ele>
        <time>2012-03-10T13:11:33Z</time>
      </trkpt>
      <trkpt lat="43.212030" lon="-2.055760">
        <ele>174.0</ele>
        <time>2012-03-10T13:11:53Z</time>
      </trkpt>
      <trkpt lat="43.212270" lon="-2.055740">
        <ele>189.0</ele>
        <time>2012-03-10T13:12:13Z</time>
      </trkpt>
      <trkpt lat="43.212550" lon="-2.055760">
        <ele>184.0</ele>
        <time>2012-03-10T13:12:35Z</time>
      </trkpt>
      <trkpt lat="43.212760" lon="-2.055640">
        <ele>188.0</ele>
        <time>2012-03-10T13:12:55Z</time>
      </trkpt>
      <trkpt lat="43.213110" lon="-2.055660">
        <ele>181.0</ele>
        <time>2012-03-10T13:13:22Z</time>
      </trkpt>
      <trkpt lat="43.213280" lon="-2.055520">
        <ele>176.0</ele>
        <time>2012-03-10T13:13:42Z</time>
      </trkpt>
      <trkpt lat="43.213420" lon="-2.055420">
        <ele>178.0</ele>
        <time>2012-03-10T13:14:02Z</time>
      </trkpt>
      <trkpt lat="43.213570" lon="-2.055260">
        <ele>189.0</ele>
        <time>2012-03-10T13:14:22Z</time>
      </trkpt>
      <trkpt lat="43.213680" lon="-2.055050">
        <ele>199.0</ele>
        <time>2012-03-10T13:14:42Z</time>
      </trkpt>
      <trkpt lat="43.213760" lon="-2.054790">
        <ele>204.0</ele>
        <time>2012-03-10T13:15:02Z</time>
      </trkpt>
      <trkpt lat="43.213870" lon="-2.054530">
        <ele>212.0</ele>
        <time>2012-03-10T13:15:22Z</time>
      </trkpt>
      <trkpt lat="43.213950" lon="-2.054270">
        <ele>215.0</ele>
        <time>2012-03-10T13:15:42Z</time>
      </trkpt>
      <trkpt lat="43.214010" lon="-2.053980">
        <ele>210.0</ele>
        <time>2012-03-10T13:16:04Z</time>
      </trkpt>
      <trkpt lat="43.214040" lon="-2.053700">
        <ele>208.0</ele>
        <time>2012-03-10T13:16:24Z</time>
      </trkpt>
      <trkpt lat="43.214120" lon="-2.053480">
        <ele>202.0</ele>
        <time>2012-03-10T13:16:44Z</time>
      </trkpt>
      <trkpt lat="43.214200" lon="-2.053590">
        <ele>213.0</ele>
        <time>2012-03-10T13:17:04Z</time>
      </trkpt>
      <trkpt lat="43.214260" lon="-2.053540">
        <ele>211.0</ele>
        <time>2012-03-10T13:17:24Z</time>
      </trkpt>
      <trkpt lat="43.214260" lon="-2.053370">
        <ele>212.0</ele>
        <time>2012-03-10T13:17:44Z</time>
      </trkpt>
      <trkpt lat="43.214290" lon="-2.053110">
        <ele>222.0</ele>
        <time>2012-03-10T13:18:04Z</time>
      </trkpt>
      <trkpt lat="43.214310" lon="-2.052900">
        <ele>230.0</ele>
        <time>2012-03-10T13:18:24Z</time>
      </trkpt>
      <trkpt lat="43.214420" lon="-2.052680">
        <ele>234.0</ele>
        <time>2012-03-10T13:18:44Z</time>
      </trkpt>
      <trkpt lat="43.214460" lon="-2.052460">
        <ele>221.0</ele>
        <time>2012-03-10T13:19:04Z</time>
      </trkpt>
      <trkpt lat="43.214490" lon="-2.052220">
        <ele>231.0</ele>
        <time>2012-03-10T13:19:24Z</time>
      </trkpt>
      <trkpt lat="43.214530" lon="-2.051990">
        <ele>232.0</ele>
        <time>2012-03-10T13:19:44Z</time>
      </trkpt>
      <trkpt lat="43.214550" lon="-2.051700">
        <ele>236.0</ele>
        <time>2012-03-10T13:20:04Z</time>
      </trkpt>
      <trkpt lat="43.214510" lon="-2.051440">
        <ele>242.0</ele>
        <time>2012-03-10T13:20:24Z</time>
      </trkpt>
      <trkpt lat="43.214530" lon="-2.051150">
        <ele>242.0</ele>
        <time>2012-03-10T13:20:44Z</time>
      </trkpt>
      <trkpt lat="43.214680" lon="-2.050950">
        <ele>252.0</ele>
        <time>2012-03-10T13:21:04Z</time>
      </trkpt>
      <trkpt lat="43.214800" lon="-2.050700">
        <ele>254.0</ele>
        <time>2012-03-10T13:21:28Z</time>
      </trkpt>
      <trkpt lat="43.214970" lon="-2.050490">
        <ele>256.0</ele>
        <time>2012-03-10T13:21:48Z</time>
      </trkpt>
      <trkpt lat="43.215030" lon="-2.050420">
        <ele>251.0</ele>
        <time>2012-03-10T13:22:08Z</time>
      </trkpt>
      <trkpt lat="43.215290" lon="-2.050400">
        <ele>250.0</ele>
        <time>2012-03-10T13:23:16Z</time>
      </trkpt>
      <trkpt lat="43.215320" lon="-2.049810">
        <ele>261.0</ele>
        <time>2012-03-10T13:23:53Z</time>
      </trkpt>
      <trkpt lat="43.215290" lon="-2.049660">
        <ele>265.0</ele>
        <time>2012-03-10T13:24:28Z</time>
      </trkpt>
      <trkpt lat="43.215180" lon="-2.049460">
        <ele>263.0</ele>
        <time>2012-03-10T13:24:55Z</time>
      </trkpt>
      <trkpt lat="43.215100" lon="-2.049000">
        <ele>271.0</ele>
        <time>2012-03-10T13:25:37Z</time>
      </trkpt>
      <trkpt lat="43.215150" lon="-2.048630">
        <ele>256.0</ele>
        <time>2012-03-10T13:26:07Z</time>
      </trkpt>
      <trkpt lat="43.215300" lon="-2.048390">
        <ele>254.0</ele>
        <time>2012-03-10T13:26:27Z</time>
      </trkpt>
      <trkpt lat="43.215500" lon="-2.048250">
        <ele>268.0</ele>
        <time>2012-03-10T13:26:47Z</time>
      </trkpt>
      <trkpt lat="43.215660" lon="-2.048150">
        <ele>273.0</ele>
        <time>2012-03-10T13:27:07Z</time>
      </trkpt>
      <trkpt lat="43.215800" lon="-2.048040">
        <ele>272.0</ele>
        <time>2012-03-10T13:27:27Z</time>
      </trkpt>
      <trkpt lat="43.215810" lon="-2.047970">
        <ele>272.0</ele>
        <time>2012-03-10T13:27:47Z</time>
      </trkpt>
      <trkpt lat="43.215840" lon="-2.047970">
        <ele>279.0</ele>
        <time>2012-03-10T13:28:07Z</time>
      </trkpt>
      <trkpt lat="43.215960" lon="-2.047840">
        <ele>268.0</ele>
        <time>2012-03-10T13:28:27Z</time>
      </trkpt>
      <trkpt lat="43.216090" lon="-2.047690">
        <ele>267.0</ele>
        <time>2012-03-10T13:28:47Z</time>
      </trkpt>
      <trkpt lat="43.216220" lon="-2.047530">
        <ele>262.0</ele>
        <time>2012-03-10T13:29:07Z</time>
      </trkpt>
      <trkpt lat="43.216340" lon="-2.047310">
        <ele>258.0</ele>
        <time>2012-03-10T13:29:27Z</time>
      </trkpt>
      <trkpt lat="43.216410" lon="-2.047080">
        <ele>252.0</ele>
        <time>2012-03-10T13:29:47Z</time>
      </trkpt>
      <trkpt lat="43.216420" lon="-2.046840">
        <ele>249.0</ele>
        <time>2012-03-10T13:30:07Z</time>
      </trkpt>
      <trkpt lat="43.216460" lon="-2.046540">
        <ele>249.0</ele>
        <time>2012-03-10T13:30:27Z</time>
      </trkpt>
      <trkpt lat="43.216580" lon="-2.046350">
        <ele>244.0</ele>
        <time>2012-03-10T13:30:47Z</time>
      </trkpt>
      <trkpt lat="43.216720" lon="-2.046200">
        <ele>240.0</ele>
        <time>2012-03-10T13:31:07Z</time>
      </trkpt>
      <trkpt lat="43.216680" lon="-2.045830">
        <ele>233.0</ele>
        <time>2012-03-10T13:31:34Z</time>
      </trkpt>
      <trkpt lat="43.216620" lon="-2.045670">
        <ele>234.0</ele>
        <time>2012-03-10T13:31:54Z</time>
      </trkpt>
      <trkpt lat="43.216600" lon="-2.045450">
        <ele>235.0</ele>
        <time>2012-03-10T13:32:14Z</time>
      </trkpt>
      <trkpt lat="43.216890" lon="-2.045170">
        <ele>230.0</ele>
        <time>2012-03-10T13:32:47Z</time>
      </trkpt>
      <trkpt lat="43.216820" lon="-2.044600">
        <ele>228.0</ele>
        <time>2012-03-10T13:33:27Z</time>
      </trkpt>
      <trkpt lat="43.216770" lon="-2.044230">
        <ele>221.0</ele>
        <time>2012-03-10T13:33:47Z</time>
      </trkpt>
      <trkpt lat="43.216790" lon="-2.043930">
        <ele>214.0</ele>
        <time>2012-03-10T13:34:09Z</time>
      </trkpt>
      <trkpt lat="43.216820" lon="-2.043700">
        <ele>213.0</ele>
        <time>2012-03-10T13:34:29Z</time>
      </trkpt>
      <trkpt lat="43.216830" lon="-2.043410">
        <ele>203.0</ele>
        <time>2012-03-10T13:34:49Z</time>
      </trkpt>
      <trkpt lat="43.216850" lon="-2.043130">
        <ele>205.0</ele>
        <time>2012-03-10T13:35:09Z</time>
      </trkpt>
      <trkpt lat="43.216820" lon="-2.042900">
        <ele>197.0</ele>
        <time>2012-03-10T13:35:29Z</time>
      </trkpt>
      <trkpt lat="43.216730" lon="-2.042640">
        <ele>191.0</ele>
        <time>2012-03-10T13:35:49Z</time>
      </trkpt>
      <trkpt lat="43.216730" lon="-2.042340">
        <ele>188.0</ele>
        <time>2012-03-10T13:36:09Z</time>
      </trkpt>
      <trkpt lat="43.216720" lon="-2.042020">
        <ele>181.0</ele>
        <time>2012-03-10T13:36:29Z</time>
      </trkpt>
      <trkpt lat="43.216720" lon="-2.041700">
        <ele>175.0</ele>
        <time>2012-03-10T13:36:49Z</time>
      </trkpt>
      <trkpt lat="43.216690" lon="-2.041300">
        <ele>174.0</ele>
        <time>2012-03-10T13:37:09Z</time>
      </trkpt>
      <trkpt lat="43.216610" lon="-2.040950">
        <ele>177.0</ele>
        <time>2012-03-10T13:37:29Z</time>
      </trkpt>
      <trkpt lat="43.216510" lon="-2.040680">
        <ele>175.0</ele>
        <time>2012-03-10T13:37:49Z</time>
      </trkpt>
      <trkpt lat="43.216480" lon="-2.040390">
        <ele>170.0</ele>
        <time>2012-03-10T13:38:09Z</time>
      </trkpt>
      <trkpt lat="43.216460" lon="-2.040140">
        <ele>165.0</ele>
        <time>2012-03-10T13:38:29Z</time>
      </trkpt>
      <trkpt lat="43.216440" lon="-2.039850">
        <ele>160.0</ele>
        <time>2012-03-10T13:38:49Z</time>
      </trkpt>
      <trkpt lat="43.216460" lon="-2.039510">
        <ele>160.0</ele>
        <time>2012-03-10T13:39:09Z</time>
      </trkpt>
      <trkpt lat="43.216520" lon="-2.039480">
        <ele>162.0</ele>
        <time>2012-03-10T13:39:29Z</time>
      </trkpt>
      <trkpt lat="43.216560" lon="-2.039220">
        <ele>156.0</ele>
        <time>2012-03-10T13:39:49Z</time>
      </trkpt>
      <trkpt lat="43.216580" lon="-2.038900">
        <ele>158.0</ele>
        <time>2012-03-10T13:40:09Z</time>
      </trkpt>
      <trkpt lat="43.216590" lon="-2.038720">
        <ele>159.0</ele>
        <time>2012-03-10T13:40:29Z</time>
      </trkpt>
      <trkpt lat="43.216670" lon="-2.038420">
        <ele>144.0</ele>
        <time>2012-03-10T13:40:49Z</time>
      </trkpt>
      <trkpt lat="43.216820" lon="-2.038180">
        <ele>145.0</ele>
        <time>2012-03-10T13:41:09Z</time>
      </trkpt>
      <trkpt lat="43.216900" lon="-2.038080">
        <ele>143.0</ele>
        <time>2012-03-10T13:41:29Z</time>
      </trkpt>
      <trkpt lat="43.216840" lon="-2.037830">
        <ele>141.0</ele>
        <time>2012-03-10T13:41:49Z</time>
      </trkpt>
      <trkpt lat="43.216800" lon="-2.037510">
        <ele>143.0</ele>
        <time>2012-03-10T13:42:09Z</time>
      </trkpt>
      <trkpt lat="43.216700" lon="-2.037200">
        <ele>139.0</ele>
        <time>2012-03-10T13:42:29Z</time>
      </trkpt>
      <trkpt lat="43.216570" lon="-2.036980">
        <ele>137.0</ele>
        <time>2012-03-10T13:42:49Z</time>
      </trkpt>
      <trkpt lat="43.216510" lon="-2.036760">
        <ele>140.0</ele>
        <time>2012-03-10T13:43:09Z</time>
      </trkpt>
      <trkpt lat="43.216370" lon="-2.036460">
        <ele>134.0</ele>
        <time>2012-03-10T13:43:29Z</time>
      </trkpt>
      <trkpt lat="43.216260" lon="-2.036210">
        <ele>133.0</ele>
        <time>2012-03-10T13:43:49Z</time>
      </trkpt>
      <trkpt lat="43.216220" lon="-2.036060">
        <ele>132.0</ele>
        <time>2012-03-10T13:44:09Z</time>
      </trkpt>
      <trkpt lat="43.216130" lon="-2.035800">
        <ele>126.0</ele>
        <time>2012-03-10T13:44:29Z</time>
      </trkpt>
      <trkpt lat="43.216010" lon="-2.035600">
        <ele>124.0</ele>
        <time>2012-03-10T13:44:49Z</time>
      </trkpt>
      <trkpt lat="43.215890" lon="-2.035330">
        <ele>123.0</ele>
        <time>2012-03-10T13:45:09Z</time>
      </trkpt>
      <trkpt lat="43.215880" lon="-2.035030">
        <ele>122.0</ele>
        <time>2012-03-10T13:45:29Z</time>
      </trkpt>
      <trkpt lat="43.215900" lon="-2.034760">
        <ele>119.0</ele>
        <time>2012-03-10T13:45:49Z</time>
      </trkpt>
      <trkpt lat="43.215930" lon="-2.034480">
        <ele>112.0</ele>
        <time>2012-03-10T13:46:09Z</time>
      </trkpt>
      <trkpt lat="43.215930" lon="-2.034180">
        <ele>109.0</ele>
        <time>2012-03-10T13:46:29Z</time>
      </trkpt>
      <trkpt lat="43.215900" lon="-2.033840">
        <ele>113.0</ele>
        <time>2012-03-10T13:46:49Z</time>
      </trkpt>
      <trkpt lat="43.215900" lon="-2.033540">
        <ele>115.0</ele>
        <time>2012-03-10T13:47:09Z</time>
      </trkpt>
      <trkpt lat="43.215890" lon="-2.033250">
        <ele>113.0</ele>
        <time>2012-03-10T13:47:29Z</time>
      </trkpt>
      <trkpt lat="43.215780" lon="-2.032980">
        <ele>107.0</ele>
        <time>2012-03-10T13:47:49Z</time>
      </trkpt>
      <trkpt lat="43.215560" lon="-2.032820">
        <ele>102.0</ele>
        <time>2012-03-10T13:48:09Z</time>
      </trkpt>
      <trkpt lat="43.215390" lon="-2.032660">
        <ele>101.0</ele>
        <time>2012-03-10T13:48:29Z</time>
      </trkpt>
      <trkpt lat="43.215270" lon="-2.032360">
        <ele>104.0</ele>
        <time>2012-03-10T13:48:49Z</time>
      </trkpt>
      <trkpt lat="43.215270" lon="-2.032220">
        <ele>101.0</ele>
        <time>2012-03-10T13:49:09Z</time>
      </trkpt>
      <trkpt lat="43.215240" lon="-2.032130">
        <ele>99.0</ele>
        <time>2012-03-10T13:49:29Z</time>
      </trkpt>
      <trkpt lat="43.215230" lon="-2.031820">
        <ele>103.0</ele>
        <time>2012-03-10T13:49:49Z</time>
      </trkpt>
      <trkpt lat="43.215210" lon="-2.031460">
        <ele>104.0</ele>
        <time>2012-03-10T13:50:09Z</time>
      </trkpt>
      <trkpt lat="43.215180" lon="-2.031120">
        <ele>99.0</ele>
        <time>2012-03-10T13:50:29Z</time>
      </trkpt>
      <trkpt lat="43.215220" lon="-2.030930">
        <ele>108.0</ele>
        <time>2012-03-10T13:50:49Z</time>
      </trkpt>
      <trkpt lat="43.215200" lon="-2.030880">
        <ele>105.0</ele>
        <time>2012-03-10T13:51:09Z</time>
      </trkpt>
      <trkpt lat="43.215240" lon="-2.030540">
        <ele>106.0</ele>
        <time>2012-03-10T13:51:29Z</time>
      </trkpt>
      <trkpt lat="43.215370" lon="-2.030210">
        <ele>109.0</ele>
        <time>2012-03-10T13:51:49Z</time>
      </trkpt>
      <trkpt lat="43.215580" lon="-2.029980">
        <ele>104.0</ele>
        <time>2012-03-10T13:52:09Z</time>
      </trkpt>
      <trkpt lat="43.215690" lon="-2.029790">
        <ele>99.0</ele>
        <time>2012-03-10T13:52:29Z</time>
      </trkpt>
      <trkpt lat="43.215700" lon="-2.029810">
        <ele>97.0</ele>
        <time>2012-03-10T13:52:49Z</time>
      </trkpt>
      <trkpt lat="43.215830" lon="-2.029680">
        <ele>94.0</ele>
        <time>2012-03-10T13:53:09Z</time>
      </trkpt>
      <trkpt lat="43.215990" lon="-2.029410">
        <ele>94.0</ele>
        <time>2012-03-10T13:53:29Z</time>
      </trkpt>
      <trkpt lat="43.216190" lon="-2.029140">
        <ele>86.0</ele>
        <time>2012-03-10T13:53:51Z</time>
      </trkpt>
      <trkpt lat="43.216350" lon="-2.028820">
        <ele>88.0</ele>
        <time>2012-03-10T13:54:11Z</time>
      </trkpt>
      <trkpt lat="43.216450" lon="-2.028530">
        <ele>84.0</ele>
        <time>2012-03-10T13:54:31Z</time>
      </trkpt>
      <trkpt lat="43.216560" lon="-2.028200">
        <ele>81.0</ele>
        <time>2012-03-10T13:54:51Z</time>
      </trkpt>
      <trkpt lat="43.216690" lon="-2.027860">
        <ele>78.0</ele>
        <time>2012-03-10T13:55:11Z</time>
      </trkpt>
      <trkpt lat="43.216870" lon="-2.027650">
        <ele>77.0</ele>
        <time>2012-03-10T13:55:31Z</time>
      </trkpt>
      <trkpt lat="43.217090" lon="-2.027600">
        <ele>72.0</ele>
        <time>2012-03-10T13:55:51Z</time>
      </trkpt>
      <trkpt lat="43.217290" lon="-2.027590">
        <ele>67.0</ele>
        <time>2012-03-10T13:56:11Z</time>
      </trkpt>
      <trkpt lat="43.217510" lon="-2.027530">
        <ele>65.0</ele>
        <time>2012-03-10T13:56:31Z</time>
      </trkpt>
      <trkpt lat="43.217730" lon="-2.027480">
        <ele>67.0</ele>
        <time>2012-03-10T13:56:51Z</time>
      </trkpt>
      <trkpt lat="43.217940" lon="-2.027450">
        <ele>62.0</ele>
        <time>2012-03-10T13:57:11Z</time>
      </trkpt>
      <trkpt lat="43.218120" lon="-2.027420">
        <ele>53.0</ele>
        <time>2012-03-10T13:57:31Z</time>
      </trkpt>
      <trkpt lat="43.218320" lon="-2.027240">
        <ele>49.0</ele>
        <time>2012-03-10T13:57:51Z</time>
      </trkpt>
      <trkpt lat="43.218410" lon="-2.026950">
        <ele>47.0</ele>
        <time>2012-03-10T13:58:11Z</time>
      </trkpt>
      <trkpt lat="43.218490" lon="-2.026650">
        <ele>43.0</ele>
        <time>2012-03-10T13:58:31Z</time>
      </trkpt>
      <trkpt lat="43.218430" lon="-2.026360">
        <ele>42.0</ele>
        <time>2012-03-10T13:58:51Z</time>
      </trkpt>
      <trkpt lat="43.218330" lon="-2.026130">
        <ele>45.0</ele>
        <time>2012-03-10T13:59:11Z</time>
      </trkpt>
      <trkpt lat="43.218380" lon="-2.025880">
        <ele>40.0</ele>
        <time>2012-03-10T13:59:31Z</time>
      </trkpt>
      <trkpt lat="43.218490" lon="-2.025580">
        <ele>34.0</ele>
        <time>2012-03-10T13:59:51Z</time>
      </trkpt>
      <trkpt lat="43.218620" lon="-2.025350">
        <ele>33.0</ele>
        <time>2012-03-10T14:00:11Z</time>
      </trkpt>
      <trkpt lat="43.218800" lon="-2.025230">
        <ele>40.0</ele>
        <time>2012-03-10T14:00:31Z</time>
      </trkpt>
      <trkpt lat="43.218990" lon="-2.025050">
        <ele>40.0</ele>
        <time>2012-03-10T14:00:51Z</time>
      </trkpt>
      <trkpt lat="43.219010" lon="-2.024420">
        <ele>37.0</ele>
        <time>2012-03-10T14:01:27Z</time>
      </trkpt>
      <trkpt lat="43.219030" lon="-2.024380">
        <ele>38.0</ele>
        <time>2012-03-10T14:01:47Z</time>
      </trkpt>
      <trkpt lat="43.218850" lon="-2.024310">
        <ele>38.0</ele>
        <time>2012-03-10T14:02:08Z</time>
      </trkpt>
      <trkpt lat="43.218670" lon="-2.024230">
        <ele>36.0</ele>
        <time>2012-03-10T14:02:28Z</time>
      </trkpt>
      <trkpt lat="43.218480" lon="-2.024130">
        <ele>34.0</ele>
        <time>2012-03-10T14:02:48Z</time>
      </trkpt>
      <trkpt lat="43.218270" lon="-2.024040">
        <ele>34.0</ele>
        <time>2012-03-10T14:03:08Z</time>
      </trkpt>
      <trkpt lat="43.218040" lon="-2.023900">
        <ele>33.0</ele>
        <time>2012-03-10T14:03:28Z</time>
      </trkpt>
      <trkpt lat="43.217840" lon="-2.023760">
        <ele>34.0</ele>
        <time>2012-03-10T14:03:48Z</time>
      </trkpt>
      <trkpt lat="43.217620" lon="-2.023570">
        <ele>34.0</ele>
        <time>2012-03-10T14:04:08Z</time>
      </trkpt>
      <trkpt lat="43.217420" lon="-2.023400">
        <ele>34.0</ele>
        <time>2012-03-10T14:04:28Z</time>
      </trkpt>
      <trkpt lat="43.217220" lon="-2.023250">
        <ele>34.0</ele>
        <time>2012-03-10T14:04:48Z</time>
      </trkpt>
      <trkpt lat="43.217010" lon="-2.023080">
        <ele>37.0</ele>
        <time>2012-03-10T14:05:08Z</time>
      </trkpt>
      <trkpt lat="43.216830" lon="-2.022900">
        <ele>37.0</ele>
        <time>2012-03-10T14:05:28Z</time>
      </trkpt>
      <trkpt lat="43.216730" lon="-2.022770">
        <ele>39.0</ele>
        <time>2012-03-10T14:05:48Z</time>
      </trkpt>
      <trkpt lat="43.216790" lon="-2.022500">
        <ele>40.0</ele>
        <time>2012-03-10T14:06:08Z</time>
      </trkpt>
      <trkpt lat="43.216850" lon="-2.022230">
        <ele>41.0</ele>
        <time>2012-03-10T14:06:28Z</time>
      </trkpt>
      <trkpt lat="43.216920" lon="-2.021990">
        <ele>40.0</ele>
        <time>2012-03-10T14:06:48Z</time>
      </trkpt>
      <trkpt lat="43.216920" lon="-2.021940">
        <ele>42.0</ele>
        <time>2012-03-10T14:07:08Z</time>
      </trkpt>
      <trkpt lat="43.216880" lon="-2.021850">
        <ele>43.0</ele>
        <time>2012-03-10T14:07:28Z</time>
      </trkpt>
      <trkpt lat="43.216880" lon="-2.021850">
        <ele>47.0</ele>
        <time>2012-03-10T14:07:48Z</time>
      </trkpt>
      <trkpt lat="43.216870" lon="-2.021850">
        <ele>51.0</ele>
        <time>2012-03-10T14:08:08Z</time>
      </trkpt>
      <trkpt lat="43.216987" lon="-2.021607">
        <ele>45.1</ele>
        <time>2012-03-10T14:08:08Z</time>
      </trkpt>
      <trkpt lat="43.216763" lon="-2.021462">
        <ele>46.0</ele>
        <time>2012-03-10T14:08:08Z</time>
      </trkpt>
      <trkpt lat="43.216700" lon="-2.021336">
        <ele>46.2</ele>
        <time>2012-03-10T14:08:08Z</time>
      </trkpt>
      <trkpt lat="43.216636" lon="-2.021138">
        <ele>46.2</ele>
        <time>2012-03-10T14:08:08Z</time>
      </trkpt>
    </trkseg>
  </trk>
</gpx>
